[[{"header":{"parameterUnit":"m.s-1","parameterCategory":1,"la1":30.6,"la2":29.2853,"lo1":-89.7004,"lo2":-87.6739,"dy":0.0162,"dx":0.0183,"nx":112,"ny":82,"refTime":"2023-04-29T12:00:00:Z","depth":0,"parameterNumber":2,"parameterNumberName":"U-component_of_WINDS"},"data":[0.0,0.0,0.0,0.0,0.0,0.0,0.0,0.0,0.0,0.0,0.0,0.0,0.0,0.0,0.0,0.0,0.0,0.0,0.0,0.0,0.0,0.0,0.0,0.0,0.0,0.0,0.0,0.0,0.0,0.0,0.0,0.0,0.0,0.0,0.0,0.0,0.0,0.0,0.0,0.0,0.0,0.0,0.0,0.0,0.0,0.0,0.0,0.0,0.0,0.0,0.0,0.0,0.0,0.0,0.0,0.0,0.0,0.0,0.0,0.0,0.0,0.0,0.0,0.0,0.0,0.0,0.0,0.0,0.0,0.0,0.0,0.0,0.0,0.0,0.0,0.0,0.0,0.0,0.0,0.0,0.0,0.0,0.0,0.0,0.0,0.0,0.0,0.0,0.0,0.0,0.0,1.3728,1.6092,1.7929,1.8893,1.7915,1.7236,1.7216,0.0,0.0,0.0,0.0,0.0,0.0,0.0,0.0,0.0,0.0,0.0,0.0,0.0,0.0,0.0,0.0,0.0,0.0,0.0,0.0,0.0,0.0,0.0,0.0,0.0,0.0,0.0,0.0,0.0,0.0,0.0,0.0,0.0,0.0,0.0,0.0,0.0,0.0,0.0,0.0,0.0,0.0,0.0,0.0,0.0,0.0,0.0,0.0,0.0,0.0,0.0,0.0,0.0,0.0,0.0,0.0,0.0,0.0,0.0,0.0,0.0,0.0,0.0,0.0,0.0,0.0,0.0,0.0,0.0,0.0,0.0,0.0,0.0,0.0,0.0,0.0,0.0,0.0,0.0,0.0,0.0,0.0,0.0,0.0,0.0,0.0,0.0,0.0,0.0,0.0,0.0,0.0,0.0,0.0,0.0,0.0,0.0,0.0,0.0,0.0,0.0,0.0,0.0,0.0,1.28,1.5268,1.6339,1.7368,1.8732,1.7587,1.6892,1.7193,0.0,0.0,0.0,0.0,0.0,0.0,0.0,0.0,0.0,0.0,0.0,0.0,0.0,0.0,0.0,0.0,0.0,0.0,0.0,0.0,0.0,0.0,0.0,0.0,0.0,0.0,0.0,0.0,0.0,0.0,0.0,0.0,0.0,0.0,0.0,0.0,0.0,0.0,0.0,0.0,0.0,0.0,0.0,0.0,0.0,0.0,0.0,0.0,0.0,0.0,0.0,0.0,0.0,0.0,0.0,0.0,0.0,0.0,0.0,0.0,0.0,0.0,0.0,0.0,0.0,0.0,0.0,0.0,0.0,0.0,0.0,0.0,0.0,0.0,0.0,0.0,0.0,0.0,0.0,0.0,0.0,0.0,0.0,0.0,0.0,0.0,0.0,0.0,0.0,0.0,0.0,0.0,0.0,0.0,0.0,0.0,0.0,0.0,0.0,0.0,0.0,0.0,0.0,1.1987,1.3181,1.5178,1.592,1.6704,1.7779,1.6871,1.6287,1.6452,1.5005,0.0,0.0,0.0,0.0,0.0,0.0,0.0,0.0,0.0,0.0,0.0,0.0,0.0,0.0,0.0,0.0,0.0,0.0,0.0,0.0,0.0,0.0,0.0,0.0,0.0,0.0,0.0,0.0,0.0,0.0,0.0,0.0,0.0,0.0,0.0,0.0,0.0,0.0,0.0,0.0,0.0,0.0,0.0,0.0,0.0,0.0,0.0,0.0,0.0,0.0,0.0,0.0,0.0,0.0,0.0,0.0,0.0,0.0,0.0,0.0,0.0,0.0,0.0,0.0,0.0,0.0,0.0,0.0,0.0,0.0,0.0,0.0,0.0,0.0,0.0,0.0,0.0,0.0,0.0,0.0,0.0,0.0,0.0,0.0,0.0,0.0,0.0,0.0,0.0,0.0,0.0,0.0,0.0,0.0,0.0,0.0,0.0,0.0,0.0,0.0,0.0,0.0,1.2696,1.318,1.4814,1.5355,1.5901,1.6718,1.6087,1.5691,1.5877,1.5002,0.0,0.0,0.0,0.0,0.0,0.0,0.0,0.0,0.0,0.0,0.0,0.0,0.0,0.0,0.0,0.0,0.0,0.0,0.0,0.0,0.0,0.0,0.0,0.0,0.0,0.0,0.0,0.0,0.0,0.0,0.0,0.0,0.0,0.0,0.0,0.0,0.0,0.0,0.0,0.0,0.0,0.0,0.0,0.0,0.0,0.0,0.0,0.0,0.0,0.0,0.0,0.0,0.0,0.0,0.0,0.0,0.0,0.0,0.0,0.0,0.0,0.0,0.0,0.0,0.0,0.0,0.0,0.0,0.0,0.0,0.0,0.0,0.0,0.0,0.0,0.0,0.0,0.0,0.0,0.0,0.0,0.0,0.0,0.0,0.0,0.0,0.0,0.0,0.0,0.0,0.0,0.0,0.0,0.0,0.0,0.0,0.0,0.0,0.0,0.0,0.0,0.0,1.258,1.287,1.4785,1.4784,1.4965,1.5756,1.5392,1.5349,1.5879,1.5313,0.0,0.0,0.0,0.0,0.0,0.0,0.0,0.0,0.0,0.0,0.0,0.0,0.0,0.0,0.0,0.0,0.0,0.0,0.0,0.0,0.0,0.0,0.0,0.0,0.0,0.0,0.0,0.0,0.0,0.0,0.0,0.0,0.0,0.0,0.0,0.0,0.0,0.0,0.0,0.0,0.0,0.0,0.0,0.0,0.0,0.0,0.0,0.0,0.0,0.0,0.0,0.0,0.0,0.0,0.0,0.0,0.0,0.0,0.0,0.0,0.0,0.0,0.0,0.0,0.0,0.0,0.0,0.0,0.0,0.0,0.0,0.0,0.0,0.0,0.0,0.0,0.0,0.0,0.0,0.0,0.0,0.0,0.0,0.0,0.0,0.0,0.0,0.0,0.0,0.0,0.0,0.0,0.0,0.0,0.0,0.0,0.0,0.0,0.0,0.0,0.0,0.0,1.2687,1.2874,0.0,1.4316,1.452,1.4501,1.486,1.4993,1.4918,0.0,0.0,0.0,0.0,0.0,0.0,0.0,0.0,0.0,0.0,0.0,0.0,0.0,0.0,0.0,0.0,0.0,0.0,0.0,0.0,0.0,0.0,0.0,0.0,0.0,0.0,0.0,0.0,0.0,0.0,0.0,0.0,0.0,0.0,0.0,0.0,0.0,0.0,0.0,0.0,0.0,0.0,0.0,0.0,0.0,0.0,0.0,0.0,0.0,0.0,0.0,0.0,0.0,0.0,0.0,0.0,0.0,0.0,0.0,0.0,0.0,0.0,0.0,0.0,0.0,0.0,0.0,0.0,0.0,0.0,0.0,0.0,0.0,0.0,0.0,0.0,0.0,0.0,0.0,0.0,0.0,0.0,0.0,0.0,0.0,0.0,0.0,0.0,0.0,0.0,0.0,0.0,0.0,0.0,0.0,0.0,0.0,0.0,0.0,0.0,0.0,0.0,1.2866,1.2656,1.2687,0.0,1.3599,1.385,1.373,1.4222,1.4548,1.4547,0.0,0.0,0.0,0.0,0.0,0.0,0.0,0.0,0.0,0.0,0.0,0.0,0.0,0.0,0.0,0.0,0.0,0.0,0.0,0.0,0.0,0.0,0.0,0.0,0.0,0.0,0.0,0.0,0.0,0.0,0.0,0.0,0.0,0.0,0.0,0.0,0.0,0.0,0.0,0.0,0.0,0.0,0.0,0.0,0.0,0.0,0.0,0.0,0.0,0.0,0.0,0.0,0.0,0.0,0.0,0.0,0.0,0.0,0.0,0.0,0.0,0.0,0.0,0.0,0.0,0.0,0.0,0.0,0.0,0.0,0.0,0.0,0.0,0.0,0.0,0.0,0.0,0.0,0.0,0.0,0.0,0.0,0.0,0.0,0.0,0.0,0.0,0.0,0.0,0.0,0.0,0.0,0.0,0.0,0.0,0.0,0.0,0.0,0.0,0.0,0.0,0.0,1.3275,1.2626,1.2382,1.3039,1.2726,1.2822,1.3515,1.3619,1.4049,0.0,0.0,0.0,0.0,0.0,0.0,0.0,0.0,0.0,0.0,0.0,0.0,0.0,0.0,0.0,0.0,0.0,0.0,0.0,0.0,0.0,0.0,0.0,0.0,0.0,0.0,0.0,0.0,0.0,0.0,0.0,0.0,0.0,0.0,0.0,0.0,0.0,0.0,0.0,0.0,0.0,0.0,0.0,0.0,0.0,0.0,0.0,0.0,0.0,0.0,0.0,0.0,0.0,0.0,0.0,0.0,0.0,0.0,0.0,0.0,0.0,0.0,0.0,0.0,0.0,0.0,0.0,0.0,0.0,0.0,0.0,0.0,0.0,0.0,0.0,0.0,0.0,0.0,0.0,0.0,0.0,0.0,0.0,0.0,0.0,0.0,0.0,0.0,0.0,0.0,0.0,0.0,0.0,0.0,0.0,0.0,0.0,0.0,0.0,0.0,0.0,0.0,0.0,1.3326,1.287,1.2586,1.2809,1.3157,1.3412,1.3344,1.3803,1.4392,1.5051,0.0,0.0,0.0,0.0,0.0,0.0,0.0,0.0,0.0,0.0,0.0,0.0,0.0,0.0,0.0,0.0,0.0,0.0,0.0,0.0,0.0,0.0,0.0,0.0,0.0,0.0,0.0,0.0,0.0,0.0,0.0,0.0,0.0,0.0,0.0,0.0,0.0,0.0,0.0,0.0,0.0,0.0,0.0,0.0,0.0,0.0,0.0,0.0,0.0,0.0,0.0,0.0,0.0,0.0,0.0,0.0,0.0,0.0,0.0,0.0,0.0,0.0,0.0,0.0,0.0,0.0,0.0,0.0,0.0,0.0,0.0,0.0,0.0,0.0,0.0,0.0,0.0,0.0,0.0,0.0,0.0,0.0,0.0,0.0,0.0,0.0,0.0,0.0,0.0,0.0,0.0,0.0,0.0,0.0,0.0,0.0,0.0,0.0,0.0,0.0,0.0,0.0,1.3721,1.3323,1.3082,1.3408,1.3627,1.38,1.391,1.4302,1.4793,1.5345,0.0,0.0,0.0,0.0,0.0,0.0,0.0,0.0,0.0,0.0,0.0,0.0,0.0,0.0,0.0,0.0,0.0,0.0,0.0,0.0,0.0,0.0,0.0,0.0,0.0,0.0,0.0,0.0,0.0,0.0,0.0,0.0,0.0,0.0,0.0,0.0,0.0,0.0,0.0,0.0,0.0,0.0,0.0,0.0,0.0,0.0,0.0,0.0,0.0,0.0,0.0,0.0,0.0,0.0,0.0,0.0,0.0,0.0,0.0,0.0,0.0,0.0,0.0,0.0,0.0,0.0,0.0,0.0,0.0,0.0,0.0,0.0,0.0,0.0,0.0,0.0,0.0,0.0,0.0,0.0,0.0,0.0,0.0,0.0,0.0,0.0,0.0,0.0,0.0,0.0,0.0,0.0,0.0,0.0,0.0,0.0,0.0,0.0,0.0,0.0,0.0,0.0,1.4383,1.3942,1.3805,1.4513,1.418,1.4258,1.5034,1.5105,1.5317,1.5855,0.0,0.0,0.0,0.0,0.0,0.0,0.0,0.0,0.0,0.0,0.0,0.0,0.0,0.0,0.0,0.0,0.0,0.0,0.0,0.0,0.0,0.0,0.0,0.0,0.0,0.0,0.0,0.0,0.0,0.0,0.0,0.0,0.0,0.0,0.0,0.0,0.0,0.0,0.0,0.0,0.0,0.0,0.0,0.0,0.0,0.0,0.0,0.0,0.0,0.0,0.0,0.0,0.0,0.0,0.0,0.0,0.0,0.0,0.0,0.0,1.4744,0.0,0.0,0.0,0.0,0.0,0.0,0.0,0.0,0.0,0.0,0.0,0.0,0.0,0.0,0.0,0.0,0.0,0.0,0.0,0.0,0.0,0.0,0.0,0.0,0.0,0.0,0.0,0.0,0.0,0.0,0.0,0.0,0.0,0.0,0.0,0.0,0.0,0.0,0.0,0.0,0.0,1.4646,1.4697,1.4661,1.4725,1.5267,1.5733,1.5998,1.5841,1.5903,1.6416,1.602,0.0,0.0,0.0,0.0,0.0,0.0,0.0,0.0,0.0,0.0,0.0,0.0,0.0,0.0,0.0,0.0,0.0,0.0,0.0,0.0,0.0,0.0,0.0,0.0,0.0,0.0,0.0,0.0,0.0,0.0,0.0,0.0,0.0,0.0,0.0,0.0,0.0,0.0,0.0,0.0,0.0,0.0,0.0,0.0,0.0,0.0,0.0,0.0,0.0,0.0,0.0,0.0,0.0,0.0,0.0,0.0,0.0,0.0,0.0,0.0,1.4865,0.0,0.0,0.0,0.0,0.0,0.0,0.0,0.0,0.0,0.0,0.0,0.0,0.0,0.0,0.0,0.0,0.0,0.0,0.0,0.0,0.0,0.0,0.0,0.0,0.0,0.0,0.0,0.0,0.0,0.0,0.0,0.0,0.0,0.0,0.0,0.0,0.0,0.0,0.0,0.0,1.5254,1.533,1.5426,1.5619,1.6126,1.6375,1.6269,1.6187,1.6299,1.6596,1.608,0.0,0.0,0.0,0.0,0.0,0.0,0.0,0.0,0.0,0.0,0.0,0.0,0.0,0.0,0.0,0.0,0.0,0.0,0.0,0.0,0.0,0.0,0.0,0.0,0.0,0.0,0.0,0.0,0.0,0.0,0.0,0.0,0.0,0.0,0.0,0.0,0.0,0.0,0.0,0.0,0.0,0.0,0.0,0.0,0.0,0.0,0.0,0.0,0.0,0.0,0.0,0.0,0.0,1.8462,1.8962,1.9275,2.0028,2.0098,1.9462,1.6984,1.5758,1.5495,0.0,0.0,0.0,0.0,0.0,0.0,0.0,0.0,0.0,0.0,0.0,0.0,0.0,0.0,0.0,0.0,0.0,0.0,0.0,0.0,0.0,0.0,0.0,0.0,0.0,1.7898,1.7649,0.0,0.0,0.0,0.0,0.0,0.0,0.0,0.0,0.0,0.0,0.0,0.0,1.5807,1.5931,1.621,1.6701,1.6944,1.6938,1.6526,1.6694,1.6767,1.6598,1.6166,1.5888,0.0,0.0,0.0,0.0,0.0,0.0,0.0,0.0,0.0,0.0,0.0,0.0,0.0,0.0,0.0,0.0,0.0,0.0,0.0,0.0,0.0,0.0,0.0,0.0,0.0,0.0,0.0,0.0,0.0,0.0,0.0,0.0,1.7213,1.7462,0.0,0.0,0.0,0.0,0.0,0.0,0.0,0.0,0.0,0.0,0.0,0.0,0.0,1.7759,1.8552,1.9415,1.9717,1.9479,2.004,2.0105,1.9684,1.9647,1.9769,1.9986,1.9431,0.0,1.7126,1.7126,0.0,0.0,0.0,0.0,0.0,0.0,0.0,0.0,0.0,0.0,0.0,0.0,0.0,0.0,0.0,0.0,0.0,0.0,0.0,0.0,0.0,0.0,1.8015,1.8575,1.8403,1.813,0.0,1.7702,1.683,1.5969,1.5797,0.0,0.0,0.0,0.0,0.0,0.0,0.0,1.5738,1.6591,1.7221,1.7269,1.7952,1.8201,1.7698,1.7868,1.7556,1.6581,1.6516,1.6272,1.5816,1.6236,0.0,0.0,0.0,0.0,0.0,0.0,0.0,0.0,0.0,0.0,0.0,0.0,0.0,0.0,0.0,0.0,0.0,0.0,0.0,0.0,0.0,0.0,0.0,0.0,0.0,0.0,0.0,0.0,0.0,1.7952,1.7958,1.7315,1.792,1.8159,0.0,0.0,0.0,0.0,0.0,0.0,0.0,0.0,0.0,1.8294,1.8344,1.8743,1.947,1.9902,2.0386,2.0965,2.1713,2.2229,2.2447,2.2652,2.2804,2.2981,2.2563,2.1634,2.0205,1.9038,1.78,1.6684,0.0,0.0,0.0,0.0,1.7257,1.7857,1.8136,1.8465,0.0,1.8345,0.0,0.0,0.0,0.0,0.0,0.0,0.0,0.0,0.0,0.0,1.962,2.0412,2.0641,2.0676,2.0607,2.0251,1.9298,0.0,1.6508,1.6302,1.629,0.0,0.0,0.0,0.0,1.5987,1.6204,1.6905,1.7342,1.7324,1.8007,1.829,1.7843,1.7973,1.7775,1.7032,1.6478,1.6055,1.5816,1.6054,1.5939,0.0,0.0,0.0,0.0,0.0,0.0,0.0,0.0,0.0,0.0,0.0,0.0,0.0,0.0,0.0,0.0,0.0,0.0,0.0,0.0,0.0,0.0,0.0,0.0,0.0,0.0,0.0,0.0,1.8351,1.8511,1.72,1.8411,1.8999,0.0,0.0,0.0,0.0,0.0,0.0,1.9208,1.9285,1.9597,2.017,2.0018,2.0216,2.0803,2.0928,2.1497,2.2511,2.3329,2.4064,2.4736,2.5192,2.5399,2.5378,2.4912,2.4074,2.2863,2.1021,1.9414,1.8206,1.8403,1.8251,1.7984,1.8337,1.8927,1.9588,1.9962,2.0339,2.0545,1.992,0.0,1.877,1.8012,0.0,0.0,0.0,0.0,1.8644,1.993,2.063,2.125,2.2271,2.2696,2.2765,2.2398,2.2111,2.1135,0.0,1.7668,1.7324,1.7008,0.0,0.0,0.0,0.0,1.6417,1.6773,1.7139,1.7317,1.728,1.7667,1.7788,1.7335,1.7611,1.7554,1.697,1.6489,1.6111,1.5776,1.6219,1.6224,1.5747,0.0,0.0,0.0,0.0,0.0,0.0,0.0,0.0,0.0,0.0,0.0,0.0,0.0,0.0,0.0,0.0,0.0,0.0,0.0,0.0,0.0,0.0,0.0,0.0,0.0,0.0,0.0,0.0,0.0,1.7277,1.8823,0.0,0.0,0.0,0.0,1.9878,2.0291,2.0712,2.114,2.1368,2.1607,2.2083,2.2647,2.3184,2.367,2.4084,2.4333,2.4405,2.4892,2.515,2.5213,2.5647,2.5844,2.5823,2.5388,2.4902,2.4333,2.2915,2.1507,2.0255,2.0255,2.0234,2.0224,2.0245,2.0488,2.079,2.0811,2.1021,2.129,2.1751,2.1484,2.0997,2.1014,2.0595,0.0,0.0,2.0607,2.1101,2.1663,2.2191,2.2823,2.3844,2.3741,2.3326,2.3303,2.2536,2.1456,0.0,1.9551,1.9218,1.8176,0.0,1.7301,1.7301,1.7301,1.7312,1.7335,1.7265,1.7235,1.7379,1.7101,1.6719,1.6228,1.6856,1.6796,1.5683,1.6638,1.6728,1.5665,1.7217,1.7365,1.5811,1.7315,0.0,0.0,0.0,0.0,0.0,0.0,0.0,0.0,0.0,0.0,0.0,0.0,0.0,0.0,0.0,0.0,0.0,0.0,0.0,0.0,0.0,0.0,0.0,0.0,0.0,0.0,0.0,0.0,1.9814,2.13,0.0,2.078,2.1021,2.1165,2.1037,2.1248,2.1702,2.2478,2.26,2.295,2.3618,2.4167,2.4581,2.4747,2.4912,2.4985,2.4995,2.544,2.5647,2.5668,2.6113,2.632,2.6299,2.5844,2.5554,2.5357,2.4871,2.3525,2.1756,2.1756,2.158,2.1352,2.1652,2.1983,2.2327,2.2635,2.2756,2.2752,2.2595,2.2148,2.18,2.2067,2.2007,2.1939,2.2271,2.249,2.2823,2.3638,2.3982,2.4292,2.5004,2.5038,2.4809,2.4464,2.4097,2.35,2.234,2.1307,2.0412,1.9723,1.9195,1.8747,1.8403,1.8357,1.8242,1.7909,1.8134,1.8204,1.7888,1.7744,1.7634,1.7579,1.7556,1.7224,1.6589,1.6396,1.6221,1.621,1.645,1.6468,1.6188,1.6699,1.6557,0.0,0.0,0.0,0.0,0.0,0.0,0.0,0.0,0.0,0.0,0.0,0.0,0.0,0.0,0.0,0.0,0.0,0.0,0.0,0.0,0.0,0.0,0.0,0.0,0.0,0.0,2.093,2.1535,2.2974,2.3608,2.2719,2.2998,2.3223,2.3056,2.3314,2.3815,2.4736,2.4788,2.5057,2.5668,2.5978,2.5989,2.5689,2.5533,2.5533,2.5689,2.5696,2.5819,2.5992,2.629,2.6411,2.64,2.6094,2.5972,2.6092,2.5947,2.482,2.3298,2.3546,2.3186,2.2655,2.2961,2.3145,2.3296,2.3853,2.3966,2.377,2.346,2.3084,2.2906,2.3327,2.347,2.3549,2.4036,2.4212,2.4395,2.5222,2.544,2.552,2.5888,2.5968,2.5773,2.5061,2.5061,2.4889,2.389,2.2742,2.1663,2.0814,2.04,2.001,1.9482,1.9264,1.9103,1.8931,1.8862,1.8657,1.8103,1.7935,1.7812,1.7822,1.7712,1.7479,1.7111,1.6632,1.6438,1.6431,1.6299,1.6277,1.6385,1.658,1.6375,1.5856,0.0,0.0,0.0,0.0,0.0,0.0,0.0,0.0,0.0,0.0,0.0,0.0,0.0,0.0,0.0,0.0,0.0,0.0,0.0,0.0,0.0,0.0,0.0,1.9252,2.0664,2.186,2.237,2.373,2.4424,2.3998,2.4809,2.5502,2.5826,2.6361,2.6982,2.7754,2.7816,2.7816,2.7785,2.7806,2.7404,2.6527,2.6063,2.6154,2.661,2.5769,2.5619,2.614,2.6069,2.6102,2.613,2.6024,2.6255,2.6579,2.6123,2.5473,2.4812,2.5614,2.5147,2.4138,2.4138,2.388,2.361,2.4196,2.4409,2.4354,2.4365,2.4384,2.4497,2.487,2.5016,2.5094,2.5595,2.5684,2.5865,2.6358,2.6485,2.6485,2.6485,2.6485,2.6209,2.5187,2.5371,2.544,2.4441,2.3844,2.3029,2.1491,2.1302,2.1066,2.0561,2.0067,0.0,2.0377,1.947,1.855,1.809,1.7675,1.7191,1.669,1.7164,1.7402,1.7043,1.7499,1.7301,1.6379,1.6866,1.6928,1.6353,1.698,1.698,1.6407,0.0,0.0,0.0,0.0,0.0,0.0,0.0,0.0,0.0,0.0,0.0,0.0,0.0,0.0,0.0,0.0,0.0,0.0,0.0,0.0,0.0,0.0,2.1188,2.1115,2.2342,2.3556,2.4374,2.6239,2.6831,2.5179,2.6567,2.711,2.5635,2.6201,2.662,2.655,2.6271,2.6064,2.6014,2.6114,2.6022,2.5701,2.5266,2.5643,2.6553,2.6358,2.6623,2.737,2.7112,2.6927,2.6912,2.6299,2.6258,2.6543,2.6413,2.6098,2.5674,2.5215,2.452,2.3677,2.3677,2.3419,2.3099,2.3047,2.294,2.3093,2.3866,2.4209,2.4367,2.5315,2.5656,2.5656,2.5831,2.6065,2.6321,2.6456,2.6758,2.7024,2.7024,2.7024,2.6841,2.6175,2.6152,2.6071,2.5417,2.5187,2.4602,2.3075,2.2823,2.265,2.2134,2.1629,0.0,2.0986,2.038,1.9757,1.9281,1.9107,1.8834,1.8328,1.8121,1.7816,1.739,1.6857,1.6628,1.6786,1.6197,1.5861,1.5682,1.6342,1.6548,0.0,0.0,0.0,0.0,0.0,0.0,0.0,0.0,0.0,0.0,0.0,0.0,0.0,0.0,0.0,0.0,0.0,0.0,0.0,0.0,0.0,0.0,2.2397,2.3815,2.4302,2.4262,2.4624,2.5688,2.68,2.7098,2.6096,2.7207,2.7623,2.6361,2.6634,2.6888,2.6869,2.6437,2.6361,2.6628,2.6126,2.589,2.5795,2.4831,2.4821,2.588,2.5246,2.5367,2.6113,2.5934,2.5943,0.0,2.5804,2.5956,2.6371,2.6371,2.6045,0.0,0.0,0.0,0.0,0.0,2.2954,2.2806,2.2838,2.2843,2.2924,2.3643,2.3958,2.4257,2.5144,2.553,2.5633,2.5812,2.6052,2.629,2.6445,2.6704,2.6974,2.7149,2.7231,2.7093,2.6577,2.6634,2.6577,2.5853,2.5888,0.0,2.459,2.4039,2.3592,2.3075,2.2386,2.1893,2.1812,2.1169,2.0538,2.0044,1.9998,1.97,1.8954,1.8608,0.0,0.0,0.0,1.6546,1.6714,1.6123,0.0,0.0,0.0,1.6022,1.5911,0.0,0.0,0.0,1.6488,1.6465,0.0,0.0,0.0,0.0,0.0,0.0,0.0,0.0,0.0,0.0,0.0,0.0,0.0,0.0,0.0,0.0,2.4767,2.6249,2.7801,2.6345,2.5444,2.6655,2.6443,2.6336,2.657,2.7157,2.7397,2.7299,2.7309,2.7547,2.78,0.0,0.0,0.0,0.0,2.6254,2.6089,2.4413,2.4001,2.4905,2.3368,2.3076,2.3921,2.3961,2.3981,2.4104,2.4898,2.5448,2.5891,2.5891,2.557,2.4986,2.5882,2.4966,2.3116,2.2676,2.2411,2.2506,2.3027,0.0,0.0,2.3392,2.3591,2.3918,2.4456,2.48,2.5168,2.5476,2.5635,2.5866,2.603,2.6185,2.6351,2.6715,2.688,2.6849,2.6474,2.6736,2.6793,2.5892,2.6074,2.6223,2.5553,2.4842,2.4127,2.3541,2.2731,2.2262,2.2571,2.1804,2.1003,2.0506,0.0,0.0,1.9022,1.8788,1.8338,1.76,1.7162,1.6806,1.6446,1.6267,1.6135,1.6115,1.581,1.5598,1.5488,1.6158,1.6178,1.5654,1.5859,1.6413,0.0,0.0,0.0,0.0,0.0,0.0,0.0,0.0,0.0,0.0,0.0,0.0,0.0,0.0,0.0,2.5171,2.7448,2.9014,2.9086,2.8369,2.7838,2.7771,2.7918,2.7444,2.6162,2.7401,2.7751,2.6317,2.6861,2.7073,2.6855,2.6399,2.6189,2.6118,2.5309,2.4703,2.4514,2.3513,2.3653,2.4836,0.0,0.0,2.5256,2.448,2.4216,2.4192,2.4199,2.4461,2.4845,2.529,2.5321,2.4787,2.4074,2.3519,2.3013,2.2322,2.2071,2.2028,2.19,2.1787,2.1873,2.2537,2.2765,2.2888,2.354,2.4219,0.0,2.382,2.4245,2.4779,2.3967,2.4125,2.4563,2.4648,2.4829,2.5147,2.5804,2.6014,2.6025,2.5837,2.5881,2.5535,2.431,2.4836,2.5006,2.3796,2.3683,2.3413,2.2435,2.1481,2.0908,2.082,1.9856,1.9276,1.9219,1.8679,1.8364,1.8354,1.738,1.668,1.6383,1.6088,1.5926,1.6125,1.6475,1.6435,1.5998,1.689,1.7318,1.7175,1.6992,1.6339,0.0,0.0,0.0,0.0,0.0,0.0,0.0,0.0,0.0,0.0,0.0,2.2097,0.0,0.0,2.5748,2.6625,2.7859,2.8584,2.8324,2.7828,2.7517,2.7639,2.7391,2.6831,2.5934,2.669,2.6882,2.6024,2.6304,2.6568,2.6463,2.6088,2.5895,2.583,2.4786,2.4069,2.3816,2.2805,2.2667,2.3268,2.2922,2.2966,2.3399,2.3303,2.3199,2.3199,2.3344,2.3582,2.3734,2.4065,2.4065,2.3862,2.3392,2.3127,2.3049,2.2484,2.227,2.2244,2.2047,2.1978,2.2077,2.246,2.2753,2.3105,2.3185,2.3786,2.4256,2.3473,2.3717,2.4104,2.3699,2.3742,2.3927,2.4102,2.4191,2.4296,2.4808,2.4978,2.4978,2.5158,2.5158,2.4914,2.4262,2.4626,2.4643,2.33,2.2972,2.2572,2.1722,2.0839,2.0254,2.0254,1.9515,1.8923,1.8786,1.7963,1.746,1.746,1.7012,1.672,1.6807,1.6493,1.6402,1.6583,1.6671,1.6624,1.6396,1.6924,1.7159,1.7149,1.6981,1.6591,0.0,0.0,0.0,0.0,0.0,0.0,0.0,0.0,2.0872,2.2316,2.3304,2.4293,2.543,2.6035,2.6653,2.7295,2.7501,2.7454,2.7055,2.679,2.6542,2.6784,2.614,2.5805,2.5931,2.5905,2.5956,2.6135,2.6097,2.6202,2.6407,2.6109,2.583,2.5692,2.4659,2.3894,2.3452,2.2401,2.1876,2.1876,2.1489,2.1306,2.1298,2.169,2.1888,2.2002,2.2562,2.2901,2.3006,2.2942,2.2871,2.2776,2.2849,2.2897,2.2764,2.2766,2.2713,2.2644,2.2644,2.2644,2.2644,2.2644,2.2946,2.3393,2.3055,2.3435,2.3932,2.3342,2.3326,2.3486,2.3653,2.3461,2.3376,2.3738,2.3595,2.3456,2.3824,2.3851,2.3877,2.4145,2.4231,2.4145,2.3983,2.3983,2.3588,2.2584,2.2091,2.1696,2.1104,2.0247,1.9655,1.9573,1.9028,1.8516,1.8072,1.7333,1.672,1.6413,1.6557,1.6831,1.7157,1.6919,1.6836,1.7025,1.6689,1.6645,1.6792,1.687,1.6908,1.6982,1.6908,1.6941,1.8237,1.814,1.8243,1.9073,1.9298,2.0257,0.0,0.0,2.325,2.4943,2.4714,2.4217,2.482,2.546,2.618,2.6661,2.74,2.7568,2.6678,2.6486,2.6252,2.5481,2.5237,2.5367,2.6017,2.6136,2.6352,2.697,2.7021,2.6734,2.6224,2.605,2.5505,2.4355,2.4155,2.3762,2.3179,2.2696,2.252,2.2513,2.192,2.1642,2.1635,2.1457,2.1325,2.1325,2.1888,2.2449,2.299,2.2664,2.2355,2.2045,2.1703,2.1626,2.1756,2.2652,2.2835,2.2644,2.2644,2.2644,2.2644,2.2644,2.2644,2.2736,2.2693,2.3176,2.3485,2.2423,2.2691,2.2979,2.197,2.1847,2.1993,2.2097,2.1981,2.2163,2.3143,2.3094,2.2911,2.3183,2.327,2.3018,2.2167,2.1989,2.2077,2.2402,2.2767,2.2471,2.1233,2.034,1.9738,1.9354,1.8299,1.7469,1.707,1.7523,1.7513,1.6904,1.6835,1.6991,1.7166,1.6766,1.6618,1.6836,1.6977,1.7014,1.7089,1.7389,1.7716,1.7871,1.7639,1.728,1.8699,1.8363,0.0,0.0,1.9558,2.0817,2.2834,2.3198,2.3501,2.5179,2.5549,2.567,2.6163,2.6266,2.621,0.0,2.5811,2.5415,2.4571,2.4278,2.3877,2.3405,2.3259,2.3762,2.5301,2.5546,2.5594,2.5885,2.5896,2.5847,2.548,2.5472,2.5095,2.4108,2.4108,2.3736,2.3113,2.2974,2.2806,2.2615,2.2359,2.2045,2.1693,2.1554,2.1386,2.1211,2.1432,2.1774,2.1987,2.173,2.1594,2.1562,2.1757,2.1565,2.1269,2.201,2.2306,2.2425,2.2519,2.2644,2.2644,2.2644,2.2698,2.2835,2.2612,2.3002,2.3199,2.2524,2.2611,2.2758,2.2206,2.2008,2.1942,2.1942,2.1648,2.1646,2.2294,2.2335,2.2144,2.2198,2.2242,2.1988,2.1401,2.1374,2.1596,2.1854,2.1684,2.1259,2.0523,1.9662,1.9061,1.8656,1.7951,1.7431,1.7266,1.7306,1.7235,1.6908,1.6908,1.6968,1.7038,1.6871,1.6847,1.7051,1.7118,1.7196,1.734,1.7561,1.7716,1.7735,1.7716,1.7523,1.8515,0.0,0.0,1.8922,2.0124,2.1499,2.2667,2.3271,2.3968,2.5104,2.5617,2.5855,2.6118,2.5807,0.0,2.4775,2.4271,2.3611,2.3106,2.2673,2.2267,2.2205,2.1868,2.2213,2.3917,2.4416,2.4775,2.4921,2.5087,2.5035,2.4826,2.4841,2.4487,2.386,2.386,2.3604,2.3106,2.3106,2.2988,2.2754,2.2667,2.2345,2.1825,2.1642,2.143,2.1211,2.1211,2.1211,2.1211,2.1211,2.1159,2.1079,2.1526,2.145,2.1046,2.1314,2.1569,2.1881,2.2028,2.2207,2.2299,2.2503,2.269,2.2851,2.2783,2.2818,2.2903,2.2621,2.2644,2.2644,2.2644,2.2347,2.215,2.215,2.185,2.1664,2.1856,2.1865,2.1803,2.1728,2.168,2.1511,2.121,2.1266,2.1293,2.1293,2.0875,2.0501,2.0292,1.9448,1.8724,1.833,1.7917,1.7669,1.7669,1.7403,1.7238,1.7238,1.7238,1.7238,1.7238,1.7128,1.7134,1.7265,1.712,1.7076,1.7222,1.7235,1.7178,1.711,1.7168,1.736,0.0,0.0,1.9366,2.0343,2.1479,2.28,2.4715,2.5111,2.5194,2.5704,2.4627,2.371,2.3718,2.3118,2.2759,2.2637,2.2901,2.3106,2.3106,2.282,2.2508,2.2228,2.1665,2.121,0.0,2.2666,2.3958,2.4556,2.4867,2.4852,2.4128,2.4161,2.386,2.3106,2.3113,2.3106,2.3106,2.3106,2.3106,2.3091,2.2776,2.2462,2.2147,2.1511,2.1218,2.1211,2.1211,2.1211,2.1211,2.1211,2.102,2.0742,2.0742,2.072,2.0737,2.0612,2.0794,2.0933,2.0925,2.1147,2.1538,2.2174,2.2278,2.2374,2.2893,2.2852,2.2561,2.2552,2.2644,2.2644,2.2644,2.2636,2.2526,2.2526,2.2244,2.2077,2.2256,2.2057,2.1882,2.2081,2.1866,2.16,2.1591,2.1254,2.0997,2.0997,2.0925,2.0839,2.1071,2.0026,1.9127,1.8742,1.8339,1.81,1.81,1.8091,1.8082,1.8082,1.8082,1.8082,1.8082,1.7697,1.7477,1.7477,1.6921,1.6655,1.6655,1.6262,1.6121,1.623,1.6121,1.6411,0.0,0.0,1.9728,2.0493,2.1439,2.2482,2.3255,2.3646,2.365,2.3457,2.2863,2.223,2.1792,2.1656,2.1752,2.1972,2.2447,2.2864,2.3076,2.2673,2.2231,2.1947,2.1232,0.0,0.0,0.0,0.0,2.2966,2.326,2.3407,2.3407,2.3502,2.3362,2.3113,2.3106,2.3106,2.3106,2.3106,2.3106,2.3106,2.2776,2.2469,2.2169,2.173,2.1415,2.1211,2.1211,2.1211,2.1211,2.1211,2.1145,2.105,2.105,2.0779,2.0377,2.0367,2.0151,1.9894,2.0617,2.0996,2.1139,2.1579,2.1659,2.1804,2.2681,2.2603,2.2456,2.3133,2.2946,2.2603,2.286,2.274,2.2644,2.2644,2.2449,2.2464,2.2455,2.2451,2.2287,2.2045,2.1898,2.1822,2.1553,2.1281,2.1125,2.1032,2.0757,2.0593,2.0665,2.0198,1.9907,1.9925,1.9311,1.8907,1.8907,1.8421,1.8128,1.8128,1.8128,1.8128,1.8128,1.799,1.7779,1.7504,1.73,1.7102,1.6775,1.6831,1.6626,1.6243,1.6635,1.6758,0.0,2.014,2.0136,2.1053,2.1796,2.2418,2.2725,2.2784,2.2601,2.1964,2.1481,2.0976,2.0325,2.0377,2.0684,2.1074,2.1438,2.1955,2.2697,2.2381,2.1964,2.195,2.1248,0.0,0.0,0.0,0.0,2.1975,2.2428,2.2827,2.3106,2.3106,2.3106,2.3106,2.3106,2.3106,2.3106,2.3106,2.3106,2.3106,2.2776,2.252,2.233,2.1898,2.1584,2.1379,2.1262,2.1211,2.1211,2.1211,2.1211,2.1196,2.1079,2.0779,2.0384,2.015,1.9806,1.9538,2.0139,2.0462,2.0701,2.1137,2.1399,2.164,2.2409,2.2338,2.2209,2.288,2.2921,2.2671,2.2773,2.2826,2.2715,2.2679,2.2644,2.2644,2.2644,2.2644,2.2475,2.2244,2.209,2.1919,2.1662,2.1294,2.1006,2.0879,2.0615,2.0404,2.0445,2.0314,2.0207,2.0078,1.9679,1.9387,1.924,1.8757,1.855,1.855,1.855,1.855,1.855,1.8412,1.821,1.7935,1.7642,1.7367,1.711,1.7102,1.6834,1.6331,1.6853,1.6884,1.9756,2.0431,2.0719,2.198,2.2469,2.274,2.3003,2.2579,2.1942,2.1254,2.0567,1.9894,0.0,0.0,1.9477,2.0098,2.0259,2.0699,2.2075,2.1936,2.1825,0.0,0.0,0.0,0.0,0.0,0.0,2.166,0.0,2.312,2.3157,2.3128,2.312,2.3135,2.312,2.3106,2.3106,2.3106,2.3106,2.3106,2.2798,2.2637,2.2601,2.2001,2.1715,2.1679,2.135,2.1211,2.1211,2.1211,2.1211,2.1181,2.0867,2.0728,2.0625,2.0011,1.9769,1.9696,1.9403,1.9703,2.0325,2.0876,2.1213,2.1589,2.2159,2.2158,2.1897,2.1921,2.2328,2.265,2.2314,2.2616,2.292,2.2663,2.2561,2.2644,2.2644,2.2644,2.2644,2.2644,2.2261,2.2013,2.2004,2.1413,2.089,2.075,2.0499,2.0361,2.0421,2.0456,2.0164,1.9335,1.9495,1.9489,1.9092,1.917,1.9301,1.9301,1.9301,1.9301,1.9301,1.8944,1.8733,1.8715,1.7954,1.755,1.7523,1.7156,1.6762,1.6386,1.678,1.6821,2.1627,2.2382,2.2524,2.3069,2.3288,2.3186,2.2564,2.192,2.1137,2.0003,1.8862,1.7874,0.0,0.0,0.0,1.9335,2.0567,0.0,2.2662,2.2848,0.0,0.0,0.0,2.1838,2.1659,2.1761,0.0,0.0,2.2539,2.2889,2.35,2.351,2.3503,2.3464,2.3237,2.3106,2.3106,2.3106,2.3106,2.3106,2.3025,2.2857,2.2608,2.2228,2.1928,2.1679,2.135,2.1211,2.1211,2.1211,2.1211,2.1203,2.1115,2.0786,2.034,2.0179,1.9813,1.9425,1.9586,1.9747,1.9923,2.0266,2.067,2.1093,2.1902,2.1965,2.1742,2.2561,2.2378,2.2121,2.2272,2.2356,2.2461,2.2361,2.2443,2.2644,2.2644,2.2644,2.2644,2.2644,2.2475,2.2321,2.2038,2.1833,2.149,2.0924,2.0821,2.0767,2.0819,2.0676,2.0606,2.0571,2.0048,1.976,1.9904,1.9426,1.9152,1.9301,1.9301,1.9301,1.9301,1.9201,1.9017,1.8715,1.8504,1.8256,1.7963,1.7862,1.7605,1.7202,1.7623,1.7587,2.2296,2.2951,2.3186,2.3515,2.3486,2.3135,2.2184,2.1137,1.9996,1.8694,1.7618,0.0,0.0,0.0,0.0,0.0,0.0,0.0,2.225,2.2634,2.2703,0.0,2.2839,0.0,2.2548,2.268,2.2958,0.0,2.313,2.3243,2.3587,2.3687,2.3797,2.3596,2.342,2.3252,2.3106,2.3106,2.3106,2.3106,2.3106,2.301,2.2828,2.2513,2.2206,2.1891,0.0,2.1342,2.1211,2.1211,2.1211,2.1196,2.105,2.0772,2.0428,2.0289,2.0011,1.9725,1.9908,2.0062,2.0216,2.0391,2.0669,2.0969,2.1601,2.1526,2.1527,2.2055,2.2066,2.2001,2.2025,2.218,2.2282,2.2136,2.2361,2.2739,2.2739,2.2946,2.3006,2.2835,2.28,2.2621,2.209,2.1593,2.1195,2.1104,2.0727,2.0395,2.0289,2.0477,2.0494,2.0419,1.9948,1.9697,1.9614,1.9119,1.8922,1.9152,1.9152,1.9222,1.9301,1.9301,1.9201,1.8971,1.8971,1.8861,1.8641,1.8249,1.7881,1.7507,1.7908,1.7547,2.2352,2.3018,2.3362,2.3596,2.3384,2.2813,2.1693,2.0216,1.8701,1.7355,0.0,0.0,1.5028,0.0,1.7037,1.7708,0.0,1.9997,2.1572,2.204,2.2443,2.3032,2.3442,2.3567,2.3702,2.3613,2.3833,2.4136,2.3865,2.376,2.3724,2.3999,2.3992,2.3676,2.3574,2.342,2.3179,2.3128,2.3106,2.3106,2.3106,2.3106,2.3098,2.2769,2.2484,2.222,2.1854,0.0,2.1269,2.1225,2.1211,2.1181,2.0896,2.0757,2.0691,2.0406,2.0274,2.0245,2.0281,2.0486,2.072,2.072,2.094,2.1211,2.1211,2.1211,2.1211,2.1211,2.1546,2.1926,2.1511,2.1842,2.2175,2.1891,2.2229,2.2733,2.2733,2.3232,2.352,2.3186,2.2963,2.2622,2.1977,2.0956,2.0321,2.0945,2.0208,1.9579,1.9193,1.9911,2.0133,1.9482,1.9461,1.9264,1.8684,1.8611,1.8602,1.8664,1.8612,1.8745,1.8895,1.8975,1.8975,1.8975,1.9054,1.9134,1.9134,1.8407,1.7834,1.7448,1.7692,1.7083,2.3208,2.3866,2.4269,2.4049,2.3552,2.2579,2.0559,1.9045,0.0,0.0,0.0,1.4428,1.4531,1.5387,0.0,1.7978,0.0,0.0,0.0,0.0,2.2799,0.0,0.0,0.0,0.0,0.0,0.0,0.0,0.0,2.4448,2.4408,2.4415,2.439,2.4005,2.3471,2.3296,2.3508,2.3245,2.3106,2.3106,2.3106,2.3106,2.3098,2.2769,2.2593,2.2513,2.1942,0.0,2.1591,2.132,2.1211,2.1203,2.1152,2.0962,2.0713,2.0655,2.0464,2.0274,2.0545,2.0676,2.072,2.072,2.094,2.1211,2.1211,2.1211,2.1211,2.1211,2.1325,2.131,2.1252,2.1474,2.1685,2.1631,2.1853,2.2196,2.2733,2.3022,2.3194,2.3126,2.2125,2.1248,2.1127,2.0177,1.9346,1.9212,1.8959,1.8644,1.8038,1.9649,1.9961,1.7902,1.8848,1.9062,1.7555,1.7664,1.7546,1.6867,1.6849,1.6854,1.6927,1.7098,1.718,1.718,1.7836,1.8247,1.8247,1.8078,1.7963,1.7903,1.7236,1.679,2.3497,2.4203,2.4496,2.4166,2.3347,2.2081,1.9989,0.0,0.0,0.0,0.0,1.3982,1.3967,0.0,0.0,0.0,0.0,0.0,0.0,0.0,0.0,0.0,0.0,0.0,0.0,0.0,0.0,0.0,0.0,2.4745,2.4581,2.4547,2.4553,2.44,2.3845,2.361,2.3596,2.3274,2.3106,2.3106,2.3106,2.3106,2.3106,2.2945,2.2784,2.2608,2.2308,0.0,2.192,2.1598,2.1459,2.1445,2.1276,2.1115,2.0976,2.0976,2.0874,2.0764,2.0918,2.0976,2.0976,2.0976,2.1086,2.1211,2.1211,2.1211,2.1211,2.1211,2.1211,2.1211,2.1211,2.1314,2.1301,2.1301,2.1965,2.2624,2.3291,2.3535,2.3428,2.2681,2.1828,2.1004,2.0189,1.9124,1.8457,1.8913,1.8487,1.7914,1.754,1.8777,1.9101,1.7456,1.7842,1.7823,1.7002,1.6911,1.6789,1.6436,1.6299,1.6286,1.6377,1.6456,1.6527,1.6527,1.7017,1.7342,1.7342,1.6862,1.6617,1.6617,1.6206,1.5801,2.2766,2.371,2.4115,2.3797,2.2792,2.1379,1.9499,1.756,0.0,0.0,1.4055,1.3821,1.3631,0.0,0.0,0.0,0.0,0.0,0.0,0.0,0.0,0.0,0.0,0.0,0.0,0.0,0.0,0.0,0.0,0.0,2.473,2.4582,2.4687,2.4694,2.4203,2.391,2.3698,2.331,2.3106,2.3106,2.3106,2.3106,2.3106,2.3106,2.2974,2.2725,2.2652,0.0,0.0,2.1832,2.1657,2.1569,2.1313,2.1211,2.1211,2.1211,2.1211,2.1211,2.1211,2.1211,2.1211,2.1211,2.1211,2.1211,2.1211,2.1211,2.1211,2.1211,2.1211,2.1211,2.1211,2.1211,2.1211,2.1211,2.1995,2.3014,2.3576,2.3615,2.3344,2.2204,2.1329,2.0362,1.9085,1.7989,1.747,1.8394,1.7779,1.7154,1.6852,1.7524,1.7725,1.6922,1.6843,1.6757,1.6302,1.6133,1.5995,1.5981,1.5712,1.5591,1.5762,1.5792,1.5786,1.5786,1.6116,1.6363,1.6363,1.5718,1.5394,1.5394,1.5235,1.4741,2.0047,2.1498,2.2724,2.2305,2.1513,2.0428,1.8767,0.0,0.0,0.0,1.3558,1.3623,1.3887,1.4304,0.0,0.0,0.0,0.0,0.0,0.0,0.0,0.0,0.0,0.0,0.0,0.0,0.0,0.0,0.0,0.0,2.5052,2.4709,2.4687,2.4993,2.4203,2.3723,2.4035,2.342,2.3106,2.3106,2.3106,2.3106,2.3106,2.3106,2.3091,2.3047,2.2754,0.0,0.0,2.1832,2.1525,2.1247,2.1218,2.1211,2.1211,2.1211,2.1211,2.1211,2.1211,2.1211,2.1211,2.1211,2.1211,2.1211,2.1211,2.1211,2.1211,2.1211,2.1211,2.1211,2.1211,2.1211,2.1211,2.1211,2.166,2.2335,2.2901,2.2378,2.179,2.1989,2.0038,1.8245,1.784,1.6842,1.6099,1.6205,1.6099,1.6007,1.5738,1.5701,1.5682,1.5362,1.6724,1.6828,1.5022,1.5282,1.5048,1.4235,1.3919,1.3711,1.3798,1.3709,1.3639,1.3639,1.4629,1.5123,1.5123,1.5304,1.5394,1.5394,1.458,1.4166,1.9312,2.0648,2.1588,2.112,2.0172,1.9122,1.7468,0.0,0.0,1.3718,1.3492,1.3536,1.3667,1.396,1.4321,1.4515,0.0,0.0,0.0,0.0,0.0,0.0,0.0,0.0,0.0,0.0,0.0,0.0,0.0,0.0,2.4103,2.4581,2.4869,2.479,2.4275,2.3896,2.3793,2.3332,2.3106,2.3106,2.3106,2.3106,2.3106,2.3106,2.3106,2.3098,2.2974,0.0,0.0,2.2118,2.1796,2.1481,2.1284,2.1211,2.1211,2.1211,2.1211,2.1211,2.1211,2.1211,2.1211,2.1211,2.1211,2.1211,2.1211,2.1211,2.1211,2.1211,2.1211,2.1211,2.1211,2.1211,2.1211,2.1211,2.1189,2.1274,2.1616,2.1114,2.0499,1.9925,1.9009,1.7965,1.7029,1.6445,1.6072,1.591,1.5891,1.5849,1.5747,1.5734,1.5692,1.559,1.5746,1.5575,1.4813,1.4737,1.4609,1.4141,1.3884,1.3768,1.3768,1.3696,1.373,1.373,1.4069,1.4315,1.4487,1.4402,1.4489,1.458,1.425,1.4088,1.731,1.8704,1.982,1.9668,1.8886,1.7932,0.0,0.0,0.0,1.366,1.3492,1.3419,1.3273,1.3453,1.3478,1.3077,1.3639,1.4303,0.0,0.0,0.0,0.0,0.0,0.0,0.0,0.0,0.0,0.0,0.0,0.0,0.0,2.3635,2.4137,2.4557,2.4316,2.3995,2.3596,2.3274,2.3106,2.3106,2.3106,2.3106,2.3106,2.3106,2.3106,2.3106,2.3106,0.0,0.0,2.2264,2.1935,2.1533,2.1298,2.1211,2.1211,2.1211,2.1211,2.1211,2.1211,2.1211,2.1211,2.1211,2.1211,2.1211,2.1211,2.1211,2.1211,2.1211,2.1211,2.1211,2.1211,2.1211,2.1089,2.0859,2.0608,2.0465,2.0336,1.9818,1.9078,1.8425,1.8036,1.7483,1.6441,1.6332,1.6217,1.6036,1.594,1.5891,1.5891,1.5891,1.5891,1.5891,1.5324,1.4914,1.4841,1.4503,1.4298,1.4298,1.4051,1.3906,1.3906,1.3842,1.3755,1.3675,1.3648,1.3767,1.3771,1.3749,1.3828,1.3997,1.4088,1.4088,1.348,1.5308,1.7379,1.8175,1.7692,1.6949,0.0,0.0,0.0,1.3565,1.3492,1.3346,1.2746,1.2599,1.2553,1.2241,1.2647,1.3391,1.4629,0.0,0.0,0.0,0.0,0.0,0.0,0.0,0.0,0.0,0.0,0.0,0.0,2.1494,2.2445,2.455,2.432,2.3998,2.3596,2.3274,2.3106,2.3106,2.3106,2.3106,2.3106,2.3106,2.3106,0.0,0.0,0.0,0.0,2.2184,2.1803,2.1211,2.1211,2.1211,2.1211,2.1211,2.1211,2.1211,2.1211,2.1211,2.1211,2.1211,2.1211,2.1211,2.1211,2.1211,2.1211,2.1211,2.1211,2.1211,2.1211,2.1211,2.0974,2.0046,1.9809,1.9686,1.9414,1.8389,1.7622,1.7894,1.7279,1.6533,1.6274,1.6238,1.6278,1.6278,1.6054,1.5891,1.5891,1.5891,1.5891,1.5891,1.565,1.5384,1.5125,1.4606,1.4298,1.4298,1.4051,1.3906,1.3906,1.3658,1.3393,1.3133,1.3373,1.3411,1.3143,1.3483,1.3737,1.3737,1.3997,1.4088,1.2,1.3024,1.3925,1.4225,1.4046,1.3849,1.3887,0.0,0.0,1.3157,1.3042,1.282,1.2673,1.2224,1.2062,1.2204,1.2766,1.3167,0.0,0.0,0.0,0.0,0.0,0.0,0.0,0.0,0.0,0.0,0.0,0.0,0.0,2.099,2.1483,2.1819,2.1717,2.1605,2.1229,2.1775,2.2111,2.2111,2.2731,2.3106,2.3106,2.3106,2.3106,0.0,0.0,0.0,0.0,2.2184,2.1796,2.1211,2.1211,2.1211,2.1211,2.1211,2.1211,2.1211,2.1211,2.1211,2.1211,2.1211,2.1211,2.1211,2.1211,2.1211,2.1211,2.1211,2.1211,2.1211,2.1211,2.1211,2.0974,2.0046,1.9339,1.8629,1.7923,1.712,1.6526,1.6669,1.6651,1.6565,1.6424,1.6535,1.6476,1.6338,1.6211,1.6091,1.591,1.5891,1.5891,1.5891,1.5656,1.539,1.5131,1.4787,1.4503,1.431,1.422,1.4171,1.4171,1.4093,1.4008,1.393,1.3659,1.3524,1.3622,1.3416,1.3398,1.373,1.3708,1.3895,0.0,1.1445,1.2102,1.237,1.2232,0.0,0.0,0.0,0.0,0.0,0.0,1.2004,1.2038,1.1621,1.1295,1.1341,1.1893,1.223,1.202,0.0,0.0,0.0,0.0,0.0,0.0,0.0,0.0,0.0,0.0,0.0,0.0,1.9566,1.9646,1.9256,2.0185,2.0418,2.0081,2.0716,2.1229,2.1607,2.2237,2.2738,2.3106,2.3106,2.3106,0.0,0.0,0.0,0.0,2.2096,2.1759,2.1379,2.1262,2.1211,2.1211,2.1211,2.1211,2.1211,2.1211,2.1211,2.1211,2.1211,2.0981,2.063,2.063,2.063,2.063,2.063,2.0392,2.0148,2.0148,2.0148,1.9917,1.8991,1.8286,1.7578,1.6649,1.6188,1.5963,1.5963,1.6194,1.6374,1.6448,1.657,1.6474,1.6279,1.6234,1.6187,1.5922,1.5891,1.5891,1.5891,1.5741,1.5541,1.5276,1.4926,1.46,1.4316,1.4298,1.4298,1.4298,1.4298,1.425,1.4153,1.3827,1.3659,1.3644,1.3275,1.3307,1.373,1.3638,1.3824,0.0,0.0,0.0,0.0,0.0,0.0,0.0,0.0,0.0,0.0,0.0,0.0,0.0,1.0803,1.034,1.0079,1.0363,1.0884,0.0,0.0,0.0,0.0,0.0,0.0,0.0,0.0,0.0,0.0,0.0,0.0,0.0,1.7491,1.7282,1.7007,1.9155,2.0215,1.9826,1.9947,2.0462,2.1355,2.1481,2.1985,2.2981,2.2981,2.2981,0.0,0.0,0.0,0.0,2.186,2.1598,2.1547,2.1335,2.1211,2.1211,2.1211,2.1211,2.1211,2.1211,2.1211,2.1211,2.1096,2.0515,1.9815,1.9693,1.9693,1.9693,1.9693,1.91,1.8389,1.8389,1.8389,1.8156,1.7226,1.6997,1.6762,1.5833,1.5601,1.5601,1.5601,1.5844,1.6087,1.6087,1.6349,1.6442,1.6298,1.6261,1.6217,1.5952,1.5903,1.5891,1.5891,1.5891,1.5783,1.5523,1.5034,1.4624,1.4346,1.4304,1.4298,1.4298,1.4298,1.4183,1.3936,1.3894,1.3628,1.3127,1.3108,1.3313,1.3652,1.3633,1.3802,0.7908,0.0,0.901,0.9402,0.0,0.0,0.0,0.0,0.0,0.0,0.0,0.0,0.0,0.0,1.0122,1.108,1.1376,1.1742,0.0,0.0,0.0,0.0,0.0,0.0,0.0,0.0,0.0,0.0,0.0,0.0,0.0,1.7413,1.7282,1.7007,1.7601,1.7866,1.7776,1.8536,1.9048,1.9304,2.0075,2.0969,2.1985,2.1985,2.1985,0.0,0.0,0.0,2.0367,2.0746,2.0704,2.0586,2.0982,2.1211,2.1211,2.1211,2.1211,2.1211,2.1211,2.1211,2.1089,2.0392,1.9931,1.9693,1.8978,1.8745,1.8745,1.8745,1.8622,1.8389,1.8389,1.8389,1.8156,1.7226,1.6997,1.6762,1.5833,1.5601,1.5601,1.5601,1.5601,1.5839,1.6087,1.6155,1.6255,1.6453,1.631,1.6267,1.6223,1.6012,1.5891,1.5891,1.5891,1.5783,1.5523,1.5203,1.4902,1.4636,1.4419,1.4298,1.4298,1.4298,1.4268,1.4208,1.3809,1.3447,1.3127,1.3108,1.3137,1.3222,1.3349,1.3528,0.7431,0.7951,0.8549,0.8506,0.8788,0.0,0.0,0.0,0.0,0.0,0.0,0.0,0.0,0.0,0.0,0.0,1.1347,0.0,0.0,0.0,0.0,0.0,0.0,0.0,0.0,0.0,0.0,0.0,0.0,0.0,0.0,1.7282,1.7147,1.7001,1.7001,1.7001,1.7001,1.7512,1.8022,1.8536,1.9048,1.9947,2.0969,2.0969,2.0969,0.0,0.0,0.0,1.9636,1.9846,1.9872,1.9834,2.0489,2.072,2.0822,2.1147,2.1211,2.1096,2.0744,2.027,1.9795,1.9332,1.8868,1.8402,1.7929,1.7545,1.7381,1.7726,1.7461,1.7114,1.7114,1.7114,1.6997,1.6532,1.6414,1.6183,1.5715,1.5601,1.5601,1.5601,1.5601,1.5601,1.5839,1.5963,1.6116,1.62,1.6161,1.6162,1.6118,1.5946,1.5923,1.5903,1.5891,1.5831,1.5692,1.5324,1.4998,1.4733,1.4455,1.4298,1.4298,1.4298,1.4298,1.4298,1.39,1.3628,1.3483,1.3179,1.3157,1.3318,1.3218,1.3419,0.7437,0.8194,0.884,0.8538,0.8728,0.8985,0.0,0.0,0.0,0.0,0.0,0.0,0.0,0.0,0.0,0.0,0.0,0.0,0.0,0.0,0.0,0.0,0.0,0.0,0.0,0.0,0.0,0.0,0.0,0.0,0.0,1.7147,1.7136,1.713,1.7136,1.7141,1.7136,1.7001,1.7389,1.8413,1.8279,1.8792,1.982,1.982,1.982,1.9807,0.0,0.0,1.9268,1.8981,1.8844,1.9031,1.9708,1.9949,2.0033,2.0599,2.0737,2.0622,1.9809,1.91,1.8389,1.8273,1.7695,1.6997,1.6879,1.6442,1.609,1.6589,1.6239,1.5709,1.5709,1.5709,1.5709,1.5709,1.5677,1.565,1.565,1.5623,1.5601,1.5601,1.5601,1.5601,1.5601,1.5839,1.6009,1.5793,1.5958,1.6012,1.5806,1.5829,1.5811,1.5869,1.5845,1.5934,1.5891,1.5445,1.5059,1.4793,1.4473,1.4298,1.4298,1.4298,1.4298,1.4298,1.4039,1.3906,1.3906,1.3423,1.3246,1.3454,1.3225,1.3351,0.7693,0.8431,0.9001,0.8424,0.8851,0.9331,0.0,0.0,0.0,0.0,0.0,0.0,0.0,0.0,0.0,0.0,0.0,0.0,0.0,0.0,0.0,0.0,0.0,0.0,0.0,0.0,0.0,0.0,0.0,0.0,0.0,1.7287,1.7405,1.7356,1.74,1.7416,1.7405,1.7136,1.7265,1.7658,1.7394,1.777,1.8792,1.8792,1.8792,1.8792,0.0,1.8105,1.7146,1.776,1.7771,1.7793,1.8456,1.8687,1.8687,1.8758,1.8855,1.8855,1.8622,1.8506,1.8273,1.7461,1.7114,1.6879,1.6065,1.5742,1.5645,1.5844,1.6008,1.6204,1.6204,1.6204,1.6204,1.6204,1.6043,1.5898,1.5898,1.5736,1.5601,1.5601,1.5601,1.5601,1.5601,1.5601,1.5709,1.6031,1.5837,1.5792,1.6058,1.5869,1.5752,1.5822,1.5793,1.5813,1.591,1.5614,1.5324,1.5065,1.4576,1.4298,1.4298,1.4298,1.4298,1.4298,1.4039,1.3906,1.3906,1.3604,1.3338,1.3209,1.333,1.3361,0.7522,0.821,0.8754,0.8431,0.9091,0.0,0.0,0.0,0.0,0.0,0.0,0.0,0.0,0.0,0.0,0.0,0.0,0.0,0.0,0.0,0.0,0.0,0.0,0.0,0.0,0.0,0.0,0.0,0.0,0.0,0.0,0.0,1.7243,1.729,1.7451,1.7625,1.7798,1.7268,1.7068,1.7085,1.7076,1.7194,1.7584,1.7585,1.7641,1.7636,0.0,1.7191,1.6468,1.6847,1.6775,1.6661,1.75,1.7803,1.7903,1.8213,1.804,1.7695,1.7695,1.7343,1.6762,1.6414,1.6295,1.6183,1.5715,1.5688,1.579,1.579,1.5946,1.6086,1.5962,1.6021,1.6118,1.6118,1.6032,1.5984,1.6118,1.5957,1.579,1.579,1.5688,1.5601,1.5601,1.5601,1.5601,1.5844,1.574,1.5737,1.5831,1.5834,1.5671,1.5758,1.5829,1.5805,1.579,1.5629,1.5324,1.492,1.4521,1.4298,1.4298,1.4298,1.4298,1.4298,1.4177,1.4117,1.4117,1.3851,1.3664,1.3544,1.3483,1.3447,0.7597,0.814,0.8597,0.0,0.0,0.0,0.0,0.0,0.0,0.0,0.0,0.0,0.0,0.0,0.0,0.0,0.0,0.0,0.0,0.0,0.0,0.0,0.0,0.0,0.0,0.0,0.0,0.0,0.0,0.0,0.0,0.0,1.7243,1.729,1.7558,1.782,1.8064,1.7556,1.7119,1.6997,1.6995,1.6861,1.6748,1.6926,1.6974,1.6915,1.6737,1.6501,1.6231,1.6231,1.6086,1.5986,1.6708,1.6954,1.7045,1.7539,1.7343,1.6649,1.6649,1.6183,1.5601,1.5601,1.5601,1.5601,1.5601,1.5725,1.5865,1.5865,1.5903,1.5919,1.5795,1.5898,1.6048,1.6102,1.6075,1.6102,1.6344,1.6204,1.6016,1.5957,1.5801,1.5661,1.5607,1.5601,1.5601,1.5601,1.5601,1.565,1.5693,1.5671,1.5693,1.5682,1.5652,1.5678,1.5781,1.5559,1.5324,1.4926,1.4582,1.4395,1.4395,1.4334,1.4298,1.4298,1.4298,1.4298,1.4298,1.4093,1.3966,1.3906,1.3701,1.3549,0.8258,0.8635,0.884,0.884,0.0,0.0,0.0,0.0,0.0,0.0,0.0,0.0,0.0,0.0,0.0,0.0,0.0,0.0,0.0,0.0,0.0,0.0,0.0,0.0,0.0,0.0,0.0,0.0,0.0,0.0,0.0,0.0,0.0,1.7973,1.8343,1.8418,1.8191,1.774,1.763,1.7876,1.7163,1.6791,1.698,1.6996,1.6888,1.6684,1.6673,1.6398,1.5973,1.5973,1.5838,1.5623,1.5742,1.5742,1.5742,1.572,1.5715,1.5715,1.5715,1.5715,1.5601,1.5601,1.5601,1.5601,1.5601,1.5612,1.5623,1.5623,1.5779,1.5994,1.621,1.6274,1.6339,1.656,1.6447,1.6355,1.6587,1.6452,1.6221,1.5994,1.5935,1.5854,1.5639,1.5601,1.5601,1.5601,1.5601,1.5596,1.5575,1.5575,1.5595,1.5704,1.546,1.5355,1.5552,1.5563,1.5481,1.5445,1.4968,1.469,1.469,1.4437,1.4298,1.4298,1.4298,1.4298,1.4298,1.428,1.4141,1.3906,1.3888,1.3737,0.8172,0.8673,0.9077,0.9077,0.0,0.0,0.0,0.0,0.0,0.0,0.0,0.0,0.0,0.0,0.0,0.0,0.0,0.0,0.0,0.0,0.0,0.0,0.0,0.0,0.0,0.0,0.0,0.0,0.0,0.0,0.0,0.0,0.0,1.7457,1.7435,1.7638,1.7907,1.7258,1.6941,1.7194,1.6883,1.6549,1.635,1.6506,1.6527,1.6436,1.6285,1.6118,1.5935,1.579,1.5677,1.5601,1.5601,1.5601,1.5601,1.5601,1.5601,1.5601,1.5601,1.5601,1.5601,1.5601,1.5601,1.5601,1.5601,1.5601,1.5601,1.5601,1.5661,1.5752,1.5844,1.5978,1.6145,1.6387,1.6264,1.6231,1.6759,1.6463,1.6145,1.6355,1.6032,1.5752,1.5806,1.5693,1.5601,1.5601,1.5601,1.5601,1.5601,1.5601,1.551,1.5389,1.5241,1.5093,1.5183,1.5388,1.5541,1.5541,1.5149,1.4883,1.4727,1.4612,1.4473,1.4298,1.4298,1.4298,1.4298,1.4298,1.4244,1.4153,1.4153,1.4008,0.8178,0.856,0.891,0.906,0.0,0.0,0.0,0.0,0.0,0.0,0.0,0.0,0.0,0.0,0.0,0.0,0.0,0.0,0.0,0.0,0.0,0.0,0.0,0.0,0.0,0.0,0.0,0.0,0.0,0.0,0.0,0.0,0.0,0.0,1.6976,1.7119,1.7492,1.6907,1.6591,1.642,1.6522,1.6307,1.607,1.6237,1.6274,1.6188,1.6021,1.5908,1.5828,1.5666,1.5601,1.5601,1.5601,1.5601,1.5601,1.5601,1.5601,1.5601,1.5601,1.5601,1.5601,1.5601,1.5601,1.5601,1.5601,1.5601,1.5601,1.5601,1.5601,1.5601,1.5601,1.572,1.5898,1.614,1.607,1.6102,1.6667,1.6404,1.614,1.6387,1.6043,1.5736,1.5822,1.5704,1.5601,1.5601,1.5601,1.5601,1.5601,1.5601,1.551,1.5278,1.5123,1.511,1.4967,1.52,1.5369,1.5482,1.5356,1.5137,1.4974,1.4805,1.4624,1.4431,1.434,1.4298,1.4298,1.4298,1.4298,1.4298,1.4298,1.4201,0.8382,0.8339,0.8337,0.882,0.0,0.0,0.0,0.0,0.0,0.0,0.0,0.0,0.0,0.0,0.0,0.0,0.0,0.0,0.0,0.0,0.0,0.0,0.0,0.0,0.0,0.0,0.0,0.0,0.0,0.0,0.0,0.0,0.0,0.0,1.7071,1.711,1.6901,1.6782,1.6464,1.5713,1.5926,1.607,1.6301,1.6307,1.6178,1.5946,1.5941,1.5811,1.5601,1.5596,1.5596,1.5601,1.5596,1.5596,1.5601,1.5601,1.5601,1.5601,1.5601,1.5601,1.5601,1.5601,1.5601,1.5601,1.5601,1.5601,1.5601,1.5601,1.5601,1.5601,1.5601,1.5601,1.5655,1.5892,1.5946,1.6011,1.6264,1.6312,1.6237,1.6,1.5946,1.5871,1.5645,1.5601,1.5601,1.5601,1.5601,1.5601,1.5601,1.5596,1.5505,1.5278,1.5259,1.5244,1.5011,1.4973,1.5148,1.5482,1.5482,1.547,1.5511,1.4998,1.4727,1.4714,1.4443,1.4298,1.4292,1.4298,1.4298,1.4292,1.4298,1.4298,0.8382,0.87,0.0,0.0,0.0,0.0,0.0,0.0,0.0,0.0,0.0,0.0,0.0,0.0,0.0,0.0,0.0,0.0,0.0,0.0,0.0,0.0,0.0,0.0,0.0,0.0,0.0,0.0,0.0,0.0,0.0,0.0,0.0,0.0,1.6233,1.6238,1.6634,1.6198,1.5882,1.5579,1.5742,1.5655,1.5575,1.5736,1.5774,1.5693,1.5531,1.551,1.5585,1.5424,1.5451,1.558,1.5418,1.5456,1.5601,1.5601,1.5601,1.5601,1.5601,1.5601,1.5601,1.5601,1.5601,1.5601,1.5601,1.5601,1.5601,1.5601,1.5601,1.5601,1.5601,1.5601,1.5655,1.5892,1.5822,1.5817,1.6226,1.6048,1.5887,1.6156,1.593,1.5731,1.5828,1.5704,1.5601,1.5601,1.5601,1.5601,1.5601,1.5456,1.5327,1.5257,1.4885,1.4722,1.4657,1.4641,1.4713,1.4821,1.5041,1.5246,1.5511,1.5348,1.5095,1.4727,1.4636,1.4101,1.3216,1.3902,1.3908,1.3221,1.3908,1.4298,0.8242,0.0,0.0,0.0,0.0,0.0,0.0,0.0,0.0,0.0,0.0,0.0,0.0,0.0,0.0,0.0,0.0,0.0,0.0,0.0,0.0,0.0,0.0,0.0,0.0,0.0,0.0,0.0,0.0,0.0,0.0,0.0,0.0,0.0,1.5726,1.5731,1.6115,1.5731,1.5537,1.5408,1.5537,1.5478,1.5257,1.5397,1.5461,1.5451,1.5208,1.5187,1.5305,1.516,1.5187,1.5311,1.5268,1.5338,1.5472,1.5564,1.5601,1.5601,1.5601,1.5601,1.5601,1.5601,1.5601,1.5601,1.5601,1.5601,1.5601,1.5601,1.5601,1.5601,1.5601,1.5601,1.5634,1.5774,1.5698,1.5677,1.5968,1.5801,1.5682,1.5973,1.5795,1.5645,1.5785,1.5693,1.5601,1.5601,1.5601,1.5601,1.5601,1.5478,1.5392,1.5392,1.5047,1.4821,1.4821,1.4706,1.4746,1.4761,1.487,1.5189,1.5463,1.5449,1.5197,1.4877,1.4769,1.408,1.2727,1.3318,1.3318,1.2732,1.3318,1.3902,0.0,0.0,0.0,0.0,0.0,0.0,0.0,0.0,0.0,0.0,0.0,0.0,0.0,0.0,0.0,0.0,0.0,0.0,0.0,0.0,0.0,0.0,0.0,0.0,0.0,0.0,0.0,0.0,0.0,0.0,0.0,0.0,0.0,1.5208,1.5467,1.5596,1.5596,1.5553,1.5397,1.5237,1.5402,1.5424,1.5219,1.5262,1.5273,1.5241,1.5015,1.4902,1.488,1.4859,1.4864,1.4902,1.5106,1.5198,1.5241,1.5456,1.5548,1.5569,1.5569,1.558,1.5601,1.5601,1.5601,1.5601,1.5601,1.5601,1.5601,1.5601,1.5601,1.5601,1.5601,1.5601,1.5601,1.5601,1.5601,1.5601,1.5601,1.5601,1.5601,1.5601,1.5601,1.5601,1.5601,1.5601,1.5601,1.5601,1.5601,1.5601,1.5601,1.5601,1.5601,1.5601,1.5392,1.5252,1.5252,1.5004,1.4874,1.5,1.4966,1.5074,1.5386,1.5247,1.5086,1.5113,1.4772,1.39,1.2533,1.2533,1.2533,1.2436,1.2533,1.3125,0.0,0.0,0.0,0.0,0.0,0.0,0.0,0.0,0.0,0.0,0.0,0.0,0.0,0.0,0.0,0.0,0.0,0.0,0.0,0.0,0.0,0.0,0.0,0.0,0.0,0.0,0.0,0.0,0.0,0.0,0.0,0.0,0.0,1.494,1.496,1.509,1.5337,1.5103,1.5063,0.0,1.5063,1.5009,1.4972,1.5354,1.5424,1.5246,1.5192,1.5063,1.4869,1.4686,1.4719,1.4869,1.474,1.4799,1.4966,1.502,1.516,1.5327,1.5327,1.5445,1.5601,1.5601,1.5601,1.5601,1.5601,1.5601,1.5601,1.5601,1.5601,1.5601,1.5601,1.5601,1.5601,1.5601,1.5601,1.5601,1.5601,1.5601,1.5601,1.5601,1.5601,1.5601,1.5601,1.5601,1.5601,1.5601,1.5601,1.5601,1.5601,1.5601,1.5601,1.5601,1.5392,1.5252,1.5252,1.4859,1.4589,1.4652,1.4478,1.4456,1.4826,1.5209,1.5281,1.5119,1.423,1.3063,1.156,1.156,1.1072,1.0288,1.117,1.1658,0.0,0.0,0.0,0.0,0.0,0.0,0.0,0.0,0.0,0.0,0.0,0.0,0.0,0.0,0.0,0.0,0.0,0.0,0.0,0.0,0.0,0.0,0.0,0.0,0.0,0.0,0.0,0.0,0.0,0.0,0.0,1.4576,1.4532,1.4416,1.4551,1.4574,1.4706,1.4568,1.4595,1.4676,1.4589,1.4552,1.4568,1.5042,1.5128,1.4907,1.4907,1.4772,1.4546,1.4422,1.4444,1.4552,1.4541,1.4611,1.4729,1.4842,1.5042,1.5235,1.5117,1.5235,1.5435,1.5435,1.5435,1.5456,1.5564,1.5601,1.5601,1.5601,1.5601,1.5601,1.5601,1.5601,1.5601,1.5601,1.5601,1.5601,1.5601,1.5601,1.5601,1.5601,1.5601,1.5601,1.5601,1.5601,1.5601,1.5601,1.5601,1.5601,1.5601,1.5601,1.5601,1.5601,1.5488,1.537,1.5257,1.502,1.4553,1.3765,1.3537,1.3416,1.3181,1.384,1.4261,1.4185,1.376,1.2506,1.0391,1.0391,1.0194,0.9608,1.0194,1.0681,0.0,0.0,0.0,0.0,0.0,0.0,0.0,0.0,0.0,0.0,0.0,0.0,0.0,0.0,0.0,0.0,0.0,0.0,0.0,0.0,0.0,0.0,0.0,0.0,0.0,0.0,0.0,0.0,0.0,0.0,1.4183,1.4177,1.4066,1.3837,1.4066,1.4206,1.4236,1.4195,1.4125,1.4126,1.4089,1.4089,1.4143,1.4525,1.4616,1.4471,1.4428,1.4304,1.4132,1.4132,1.4132,1.4153,1.4385,1.4476,1.4498,1.4692,1.4918,1.5101,1.4891,1.4982,1.5192,1.5235,1.5252,1.5295,1.5531,1.5601,1.5601,1.5601,1.5601,1.5601,1.5601,1.5601,1.5601,1.5601,1.5601,1.5601,1.5601,1.5601,1.5601,1.5601,1.5601,1.5601,1.5601,1.5601,1.5601,1.5601,1.5601,1.5601,1.5601,1.5601,1.5601,1.5601,1.5601,1.5521,1.5327,1.5235,1.4443,1.2931,1.2729,1.2271,1.1442,1.22,1.2651,1.2427,1.2936,1.2097,0.9899,0.9509,0.9312,0.9312,0.9312,0.9801,0.0,0.0,0.0,0.0,0.0,0.0,0.0,0.0,0.0,0.0,0.0,0.0,0.0,0.0,0.0,0.0,0.0,0.0,0.0,0.0,0.0,0.0,0.0,0.0,0.0,0.0,0.0,0.0,0.0,0.0,1.3853,1.4028,1.4138,1.4138,1.4138,1.4207,1.424,1.3987,1.3814,1.3868,1.3669,1.368,1.3873,1.3933,1.4062,1.4229,1.4008,1.3895,1.3868,1.3868,1.3868,1.3895,1.4143,1.4239,1.4245,1.4277,1.4433,1.4627,1.4595,1.4735,1.4966,1.5182,1.5252,1.5295,1.5531,1.5601,1.5601,1.5601,1.5601,1.5601,1.5601,1.5601,1.5601,1.5601,1.5601,1.5601,1.5601,1.5601,1.5601,1.5601,1.5601,1.5601,1.5601,1.5601,1.5601,1.5601,1.5601,1.5601,1.5601,1.5601,1.5601,1.5601,1.5601,1.5585,1.5553,1.5171,1.4442,1.3122,1.2663,1.201,1.0891,1.1324,1.1147,0.9943,1.1178,1.1489,1.0974,0.9118,0.8237,0.8237,0.8237,0.8333,0.0,0.0,0.0,0.0,0.0,0.0,0.0,0.0,0.0,0.0,0.0,0.0,0.0,0.0,0.0,0.0,0.0,0.0,0.0,0.0,0.0,0.0,0.0,0.0,0.0,0.0,0.0,0.0,0.0,1.3777,1.3784,1.3789,1.3784,1.3566,1.3681,1.3658,1.3385,1.3428,1.3346,1.3227,1.3125,1.313,1.3227,1.3227,1.3502,1.3976,1.3868,1.3744,1.3631,1.3631,1.3701,1.383,1.3943,1.4073,1.4196,1.4196,1.4342,1.4519,1.4385,1.4492,1.4708,1.4815,1.4848,1.4896,1.5128,1.5295,1.5402,1.5402,1.5499,1.5601,1.5601,1.5601,1.5601,1.5601,1.5601,1.5601,1.5601,1.5601,1.5601,1.5601,1.5601,1.5601,1.5601,1.5601,1.5601,1.5601,1.5601,1.5601,1.5601,1.4992,1.451,1.451,1.3904,1.3379,1.3263,1.298,1.2302,1.094,1.0588,1.0014,0.903,0.9798,1.012,0.9663,1.0402,1.0272,0.941,0.8432,0.8038,0.8038,0.8038,0.8038,0.0,0.0,0.0,0.0,0.0,0.0,0.0,0.0,0.0,0.0,0.0,0.0,0.0,0.0,0.0,0.0,0.0,0.0,0.0,0.0,0.0,0.0,0.0,0.0,0.0,0.0,0.0,0.0,0.0,1.3663,1.3578,1.3609,1.3491,1.3259,1.3386,1.3268,1.2925,1.3001,1.2969,1.2764,1.2764,1.2764,1.2764,1.2764,1.305,1.355,1.355,1.3453,1.3303,1.3362,1.3486,1.3647,1.3706,1.3884,1.411,1.4169,1.4304,1.4433,1.432,1.4352,1.446,1.4514,1.4536,1.4579,1.4815,1.5009,1.5171,1.5235,1.5375,1.5521,1.5585,1.5601,1.5601,1.5601,1.5601,1.5601,1.5601,1.5359,1.5116,1.5116,1.5116,1.5116,1.5116,1.5359,1.5601,1.5601,1.5359,1.5116,1.5116,1.4028,1.3181,1.3181,1.2337,1.1679,1.1434,1.1374,1.0616,0.9315,0.9055,0.8517,0.7496,0.8374,0.905,0.9176,0.9478,0.9274,0.8492,0.8155,0.8038,0.8038,0.8038,0.8038,0.0,0.0,0.0,0.0,0.0,0.0,0.0,0.0,0.0,0.0,0.0,0.0,0.0,0.0,0.0,0.0,0.0,0.0,0.0,0.0,0.0,0.0,0.0,0.0,0.0,0.0,0.0,0.0,0.0,1.3444,1.3146,1.3501,1.3727,1.3496,1.3527,1.3364,1.3136,1.2897,1.2764,1.2764,1.2764,1.2764,1.2764,1.2764,1.2786,1.2818,1.2818,1.2813,1.2818,1.3034,1.313,1.3163,1.3405,1.3636,1.3868,1.411,1.4202,1.4245,1.4449,1.4385,1.425,1.4466,1.4536,1.4579,1.4815,1.4891,1.495,1.5187,1.5257,1.5322,1.5542,1.5601,1.5601,1.5601,1.5601,1.5601,1.5601,1.4629,1.3784,1.3784,1.3784,1.3784,1.3784,1.4753,1.5601,1.5601,1.451,1.3784,1.3784,1.2577,1.1852,1.1852,1.1732,1.1727,1.1719,1.1442,1.0798,0.9476,0.9208,0.8501,0.7271,0.7493,0.7595,0.7337,0.7855,0.8609,0.9665,0.8607,0.8038,0.8038,0.8038,0.8038,0.0,0.0,0.0,0.0,0.0,0.0,0.0,0.0,0.0,0.0,0.0,0.0,0.0,0.0,0.0,0.0,0.0,0.0,0.0,0.0,0.0,0.0,0.0,0.0,0.0,0.0,0.0,0.0,0.0,0.0,1.2891,1.305,1.3052,1.2835,1.3051,1.3113,1.2874,1.2802,1.2608,1.2307,1.2619,1.2684,1.2544,1.2694,1.2764,1.2764,1.2764,1.2764,1.277,1.285,1.2969,1.3114,1.32,1.3475,1.383,1.3922,1.4056,1.4207,1.4288,1.4261,1.4207,1.4288,1.4315,1.4331,1.4417,1.4541,1.4708,1.495,1.5128,1.5305,1.5537,1.5601,1.5601,1.5601,1.5601,1.5601,1.5601,1.4629,1.3665,1.3665,1.3062,1.2457,1.2457,1.2817,1.3057,1.3057,1.2697,1.2457,1.2457,1.1249,1.0528,1.0528,0.9805,0.9319,0.9319,0.9077,0.8822,0.8221,0.8085,0.7728,0.7271,0.7493,0.7523,0.7347,0.7584,0.7949,0.8421,0.8165,0.8038,0.8038,0.8038,0.8038,0.0,0.0,0.0,0.0,0.0,0.0,0.0,0.0,0.0,0.0,0.0,0.0,0.0,0.0,0.0,0.0,0.0,0.0,0.0,0.0,0.0,0.0,0.0,0.0,0.0,0.0,0.0,0.0,0.0,0.0,1.2561,1.2635,1.2593,1.2291,1.2592,1.271,1.2587,1.2592,1.2438,1.2129,1.2398,1.2441,1.2301,1.2538,1.2646,1.2651,1.2727,1.2764,1.2764,1.2764,1.285,1.299,1.299,1.3233,1.3599,1.376,1.3927,1.4099,1.4342,1.4326,1.4207,1.4283,1.4256,1.4196,1.4196,1.4299,1.4466,1.4702,1.4939,1.5182,1.5418,1.5542,1.5601,1.5601,1.5235,1.4992,1.4992,1.3904,1.3057,1.3057,1.1972,1.1008,1.1008,1.137,1.1732,1.1732,1.137,1.1008,1.1008,0.9923,0.9201,0.9201,0.8355,0.7872,0.7872,0.7766,0.7649,0.7527,0.7404,0.7282,0.716,0.7379,0.7433,0.7308,0.7396,0.7538,0.7516,0.7766,0.7942,0.8038,0.8038,0.8038,0.0,0.0,0.0,0.0,0.0,0.0,0.0,0.0,0.0,0.0,0.0,0.0,0.0,0.0,0.0,0.0,0.0,0.0,0.0,0.0,0.0,0.0,0.0,0.0,0.0,0.0,0.0,0.0,0.0,1.2296,1.2106,1.229,1.2296,1.2106,1.2045,1.2093,1.2093,1.2108,1.2059,1.2072,1.2113,1.2129,1.2135,1.2296,1.2404,1.242,1.2651,1.2754,1.2754,1.2759,1.2764,1.2764,1.2764,1.2904,1.3163,1.3626,1.3809,1.3916,1.4611,1.4557,1.4218,1.4449,1.4369,1.4186,1.4191,1.4196,1.4245,1.4471,1.4697,1.4934,1.5187,1.5418,1.5591,1.5596,1.4629,1.3665,1.3665,1.2577,1.1611,1.1611,1.0649,0.9805,0.9805,1.077,1.1611,1.1611,1.0528,0.9805,0.9805,0.8717,0.7872,0.7872,0.7869,0.7867,0.7867,0.7763,0.7644,0.7521,0.7402,0.7282,0.716,0.7154,0.71,0.6989,0.7074,0.7261,0.734,0.7513,0.7746,0.8038,0.8038,0.8038,0.7325,0.0,0.0,0.0,0.0,0.0,0.0,0.0,0.0,0.0,0.0,0.0,0.0,0.0,0.0,0.0,0.0,0.0,0.0,0.0,0.0,0.0,0.0,0.0,0.0,0.0,0.0,0.0,1.1543,1.1543,1.1543,1.1543,1.164,1.1824,1.18,1.1842,1.1842,1.1954,1.191,1.1524,1.189,1.204,1.1806,1.2038,1.2151,1.2161,1.2404,1.2511,1.2527,1.2694,1.2764,1.2764,1.2764,1.2904,1.312,1.3254,1.3523,1.3846,1.4046,1.4029,1.3965,1.4207,1.4121,1.3959,1.4137,1.4196,1.4245,1.4471,1.4579,1.4729,1.5144,1.53,1.5152,1.4351,1.3909,1.3421,1.2457,1.1249,1.0286,1.0286,0.9323,0.8477,0.8477,0.8717,0.8958,0.8958,0.8596,0.8477,0.8477,0.8113,0.7872,0.7872,0.7799,0.7747,0.7747,0.7638,0.7516,0.7394,0.7353,0.7282,0.716,0.7154,0.71,0.6989,0.697,0.695,0.7138,0.7208,0.754,0.8038,0.8038,0.8038,0.0,0.0,0.0,0.0,0.0,0.0,0.8088,0.8377,0.0,0.0,0.0,0.0,0.0,0.0,0.0,0.0,0.0,0.0,0.0,0.0,0.0,0.0,0.0,0.0,0.0,0.0,0.0,1.0982,1.0702,1.0702,1.1165,1.117,1.1262,1.1543,1.1543,1.1543,1.1543,1.1727,1.1635,1.1267,1.1191,1.1071,1.0931,1.079,1.098,1.1364,1.1693,1.2031,1.2431,1.2667,1.2764,1.2764,1.2764,1.2845,1.2974,1.3071,1.3346,1.369,1.3787,1.382,1.3857,1.4116,1.4024,1.3868,1.4121,1.4196,1.4223,1.4358,1.446,1.451,1.4302,1.428,1.4079,1.3025,1.2342,1.163,1.0921,0.9737,0.9064,0.966,0.8717,0.7872,0.7872,0.7872,0.7872,0.7872,0.7872,0.7872,0.7872,0.7831,0.7818,0.7867,0.7722,0.7646,0.7698,0.7543,0.7413,0.7339,0.7288,0.7228,0.7157,0.7154,0.7124,0.7056,0.694,0.6898,0.683,0.7006,0.7341,0.7842,0.7842,0.7942,0.0,0.0,0.0,0.0,0.0,0.0,0.7925,0.821,0.8447,0.0,0.0,0.0,0.0,0.0,0.0,0.0,0.0,0.0,0.0,0.0,0.0,0.0,0.0,0.0,0.0,0.969,0.9577,1.0454,0.9767,0.9734,1.0645,1.0742,1.089,1.1079,1.117,1.1262,1.1262,1.1262,1.1262,1.1262,1.0313,0.9873,0.9864,0.9153,0.9315,1.015,1.0543,1.1204,1.201,1.2331,1.2543,1.2764,1.2764,1.2764,1.2786,1.299,1.3222,1.3464,1.3669,1.3739,1.3782,1.4035,1.3965,1.383,1.4078,1.4169,1.4196,1.4196,1.4227,1.4098,1.3296,1.3008,1.2557,1.1434,1.029,0.9364,0.9248,0.8326,0.7931,0.9226,0.8687,0.7856,0.7869,0.7872,0.7872,0.7872,0.7872,0.7872,0.7872,0.7771,0.7744,0.7858,0.766,0.7562,0.7671,0.747,0.7331,0.7315,0.7214,0.7154,0.7154,0.7154,0.7154,0.7154,0.7043,0.6872,0.6638,0.6825,0.716,0.7547,0.7646,0.7743,0.0,0.0,0.0,0.0,0.0,0.0,0.8388,0.8447,0.8317,0.0,0.0,0.0,0.0,0.0,0.0,0.0,0.0,0.0,0.0,0.0,0.0,0.0,0.0,0.0,0.0,1.0194,1.0053,1.0058,0.9518,0.9038,0.8787,0.9331,0.978,0.9962,1.0428,1.0799,1.1073,1.1073,1.1165,1.1262,1.0313,0.9873,0.9859,0.9016,0.8681,0.887,0.9182,0.9456,0.9801,0.9984,1.1125,1.2764,1.2764,1.2764,1.277,1.2813,1.2974,1.3184,1.3227,1.3243,1.3287,1.3534,1.3583,1.3588,1.3825,1.4035,1.4196,1.4196,1.3557,1.2859,1.286,1.2118,1.1134,1.0022,0.9596,0.9136,0.8096,0.7633,0.7532,0.7928,0.7784,0.7763,0.7856,0.7872,0.7872,0.7872,0.7872,0.7872,0.7872,0.7771,0.7744,0.7858,0.766,0.7529,0.7551,0.7421,0.7293,0.7195,0.7168,0.7154,0.7154,0.7154,0.7154,0.7154,0.7043,0.6912,0.6766,0.7364,0.7446,0.7238,0.7739,0.7939,0.0,0.0,0.0,0.8207,0.0,0.0,0.0,0.8425,0.8382,0.0,0.0,0.0,0.0,0.0,0.0,0.0,0.0,0.0,0.0,0.0,0.0,0.0,0.0,0.0,0.0,0.8903,0.8662,0.9059,0.8495,0.8239,0.866,0.8589,0.8614,0.8923,0.9252,0.9509,0.96,0.9663,0.9716,0.9854,0.8965,0.8528,0.8456,0.7492,0.7404,0.7848,0.8102,0.8493,0.9046,0.9222,0.9975,1.1134,1.1726,1.1965,1.2068,1.2565,1.291,1.3087,1.2974,1.3007,1.3125,1.3249,1.3292,1.3357,1.3712,1.3555,1.3197,1.2649,1.1987,1.1459,1.1007,1.0366,0.9712,0.8558,0.8351,0.8127,0.7448,0.7336,0.7355,0.7415,0.7527,0.7649,0.7766,0.7834,0.785,0.7796,0.7785,0.7763,0.7703,0.7592,0.7565,0.7682,0.7481,0.7388,0.7508,0.735,0.7244,0.7244,0.7187,0.7154,0.7154,0.7154,0.7154,0.7154,0.7097,0.7013,0.6893,0.7398,0.7576,0.7339,0.7746,0.8009,0.0,0.0,0.0,0.0,0.0,0.8283,0.0,0.0,0.0,0.8317,0.0,0.0,0.0,0.0,0.0,0.0,0.0,0.0,0.0,0.0,0.0,0.0,0.0,0.0,0.0,0.7536,0.7065,0.767,0.7147,0.7261,0.8227,0.7639,0.7526,0.7821,0.796,0.8116,0.8116,0.8229,0.8361,0.8384,0.7464,0.7112,0.7051,0.6086,0.6086,0.6884,0.7085,0.7601,0.8363,0.8494,0.8652,0.8917,1.0351,1.1039,1.1272,1.2165,1.2774,1.3012,1.2829,1.2785,1.2736,1.2736,1.2594,1.2633,1.3003,1.2651,1.1864,1.0954,1.0534,1.0127,0.914,0.8702,0.8371,0.7376,0.7154,0.7154,0.7154,0.7154,0.7184,0.7282,0.7399,0.7524,0.7646,0.7763,0.7799,0.7684,0.7665,0.763,0.7532,0.7413,0.7383,0.7505,0.732,0.7279,0.75,0.7317,0.723,0.7331,0.7222,0.7154,0.7154,0.7154,0.7154,0.7154,0.7154,0.7108,0.7018,0.7457,0.7629,0.7443,0.7722,0.7965,0.0,0.0,0.0,0.0,0.8474,0.0,0.0,0.0,0.8317,0.7722,0.0,0.0,0.0,0.0,0.0,0.0,0.0,0.0,0.0,0.0,0.0,0.0,0.0,0.0,0.0,0.0,0.6885,0.5719,0.5751,0.5695,0.5307,0.5992,0.6438,0.6595,0.7239,0.7643,0.7806,0.7886,0.8012,0.8379,0.7415,0.7037,0.7051,0.6086,0.5733,0.5822,0.5925,0.5986,0.6267,0.6282,0.6363,0.6682,0.8818,1.0237,1.117,1.137,1.198,1.2797,1.277,1.2181,1.1404,1.1404,1.0956,1.0427,1.0681,1.0835,1.0853,1.0584,0.9791,0.903,0.892,0.8149,0.7376,0.7265,0.7154,0.7154,0.7154,0.7154,0.716,0.7173,0.7274,0.7394,0.7519,0.7641,0.7679,0.7557,0.754,0.7535,0.7521,0.7413,0.7383,0.7505,0.7396,0.7372,0.7508,0.7394,0.732,0.7334,0.7222,0.7154,0.7154,0.7154,0.7154,0.7154,0.7154,0.7149,0.7135,0.7677,0.7806,0.744,0.7824,0.813,0.0,0.0,0.0,0.0,0.0,0.0,0.8517,0.0,0.8452,0.0,0.0,0.0,0.0,0.0,0.0,0.0,0.0,0.0,0.0,0.0,0.0,0.0,0.0,0.0,0.0,0.0,0.0,0.0,0.5408,0.5065,0.5412,0.5385,0.5335,0.5494,0.5809,0.596,0.6051,0.6136,0.6258,0.642,0.6204,0.6125,0.6147,0.5877,0.5733,0.5733,0.5733,0.576,0.5803,0.5803,0.5874,0.6076,0.696,0.8157,0.9344,0.9925,1.0877,1.1863,1.1863,1.1965,1.2068,1.137,1.1074,1.0702,0.9476,0.9223,0.9301,0.8689,0.8097,0.7837,0.791,0.7598,0.7154,0.7154,0.7154,0.7154,0.7154,0.7154,0.7154,0.7154,0.7252,0.7331,0.7312,0.7527,0.766,0.7538,0.7519,0.7519,0.7519,0.735,0.7277,0.7399,0.7304,0.7279,0.7402,0.7301,0.726,0.7331,0.7222,0.7154,0.7154,0.7154,0.7154,0.7154,0.7154,0.7154,0.7154,0.7633,0.784,0.7672,0.8141,0.837,0.865,0.0,0.0,0.0,0.0,0.0,0.0,0.0,0.0,0.0,0.0,0.0,0.0,0.0,0.0,0.0,0.0,0.0,0.0,0.0,0.0,0.0,0.0,0.0,0.0,0.0,0.0,0.6052,0.5029,0.4703,0.5474,0.498,0.4717,0.4794,0.4831,0.4803,0.4809,0.4919,0.4963,0.5021,0.5285,0.5472,0.5515,0.5604,0.5644,0.5733,0.5733,0.5733,0.5733,0.5733,0.5782,0.5855,0.5855,0.6441,0.74,0.853,0.9702,1.0706,1.076,1.1277,1.1775,1.0681,1.0419,1.0268,0.8299,0.7911,0.797,0.7121,0.6959,0.7013,0.7124,0.7154,0.7154,0.7154,0.7154,0.7154,0.7154,0.7154,0.7154,0.7154,0.7225,0.7258,0.7171,0.7432,0.7611,0.7486,0.7497,0.7505,0.7472,0.7315,0.7225,0.7279,0.7206,0.7203,0.7326,0.7225,0.7192,0.7279,0.7203,0.7154,0.7154,0.7154,0.7154,0.7154,0.7154,0.7154,0.7154,0.7615,0.7877,0.7837,0.8344,0.8557,0.0,0.0,0.0,0.8774,0.0,0.0,0.0,0.0,0.871,0.0,0.0,0.0,0.0,0.0,0.0,0.4143,0.0,0.0,0.0,0.0,0.0,0.0,0.0,0.0,0.0,0.0,0.0,0.4257,0.4403,0.4491,0.4523,0.4687,0.4787,0.4787,0.4773,0.4767,0.4771,0.4819,0.4847,0.5018,0.5112,0.5281,0.5458,0.546,0.5552,0.5733,0.5733,0.5733,0.5733,0.5733,0.5735,0.5738,0.5738,0.5809,0.6124,0.7406,0.8568,0.9464,0.9641,0.9706,0.9509,0.8418,0.8227,0.8123,0.6877,0.6611,0.6801,0.6806,0.6893,0.7013,0.7124,0.7154,0.7154,0.7154,0.7154,0.7154,0.7154,0.7154,0.7154,0.7154,0.7157,0.716,0.7154,0.7361,0.7483,0.7358,0.7442,0.7475,0.7355,0.7334,0.7288,0.7173,0.7157,0.7203,0.7326,0.7225,0.7157,0.716,0.7157,0.7154,0.7154,0.7154,0.7154,0.7154,0.7154,0.7154,0.7154,0.7706,0.7968,0.7837,0.8239,0.8564,0.0,0.0,0.7432,0.746,0.0,0.0,0.0,0.0,0.0,0.0,0.0,0.0,0.0,0.0,0.0,0.4257,0.0,0.0,0.0,0.0,0.0,0.0,0.0,0.0,0.0,0.0,0.0,0.4118,0.4268,0.4341,0.437,0.4624,0.4767,0.4767,0.4742,0.474,0.4773,0.4754,0.4792,0.4859,0.5092,0.5254,0.5271,0.5412,0.5552,0.5552,0.5644,0.5733,0.5733,0.5733,0.5733,0.5733,0.5733,0.5803,0.5923,0.6458,0.7429,0.849,0.9347,0.9608,0.9406,0.8319,0.8058,0.7889,0.6748,0.6597,0.6785,0.666,0.6981,0.7428,0.7334,0.7538,0.7709,0.7709,0.7709,0.7709,0.7709,0.7709,0.7709,0.7709,0.7601,0.7493,0.7493,0.7406,0.7413,0.7451,0.7491,0.7532,0.7573,0.7366,0.723,0.7271,0.7201,0.7171,0.7211,0.7179,0.7154,0.7154,0.7154,0.7154,0.7154,0.7154,0.7154,0.7154,0.7154,0.7154,0.7154,0.7709,0.802,0.7974,0.8477,0.8757,0.7658,0.7233,0.0,0.6864,0.7322,0.0,0.7433,0.0,0.0,0.0,0.0,0.0,0.0,0.0,0.0,0.4379,0.4423,0.4431,0.0,0.43,0.0,0.0,0.0,0.0,0.0,0.0,0.4007,0.4047,0.4126,0.4189,0.0,0.0,0.4637,0.4723,0.4726,0.47,0.4798,0.4756,0.473,0.4778,0.506,0.5127,0.5234,0.5376,0.5473,0.5463,0.5644,0.5733,0.573,0.5687,0.5695,0.573,0.5687,0.5738,0.586,0.6026,0.6565,0.7498,0.8678,0.9015,0.8913,0.8219,0.8024,0.7928,0.6734,0.6639,0.6877,0.6841,0.7128,0.7524,0.7642,0.7725,0.7984,0.8033,0.8045,0.8045,0.8045,0.8045,0.8045,0.8045,0.7823,0.7715,0.7715,0.7595,0.7475,0.7442,0.7491,0.7532,0.7568,0.7364,0.7233,0.7269,0.7201,0.7154,0.7154,0.7154,0.7154,0.7154,0.7154,0.7154,0.7154,0.7154,0.7176,0.722,0.7176,0.7176,0.722,0.7733,0.8045,0.8045,0.8605,0.8886]},{"header":{"parameterUnit":"m.s-1","parameterCategory":1,"la1":30.6,"la2":29.2853,"lo1":-89.7004,"lo2":-87.6739,"dy":0.0162,"dx":0.0183,"nx":112,"ny":82,"refTime":"2023-04-29T12:00:00:Z","depth":0,"parameterNumber":3,"parameterNumberName":"V-component_of_WINDS"},"data":[0.0,0.0,0.0,0.0,0.0,0.0,0.0,0.0,0.0,0.0,0.0,0.0,0.0,0.0,0.0,0.0,0.0,0.0,0.0,0.0,0.0,0.0,0.0,0.0,0.0,0.0,0.0,0.0,0.0,0.0,0.0,0.0,0.0,0.0,0.0,0.0,0.0,0.0,0.0,0.0,0.0,0.0,0.0,0.0,0.0,0.0,0.0,0.0,0.0,0.0,0.0,0.0,0.0,0.0,0.0,0.0,0.0,0.0,0.0,0.0,0.0,0.0,0.0,0.0,0.0,0.0,0.0,0.0,0.0,0.0,0.0,0.0,0.0,0.0,0.0,0.0,0.0,0.0,0.0,0.0,0.0,0.0,0.0,0.0,0.0,0.0,0.0,0.0,0.0,0.0,0.0,-2.2076,-2.4083,-2.502,-2.44,-2.3991,-2.34,-2.2437,0.0,0.0,0.0,0.0,0.0,0.0,0.0,0.0,0.0,0.0,0.0,0.0,0.0,0.0,0.0,0.0,0.0,0.0,0.0,0.0,0.0,0.0,0.0,0.0,0.0,0.0,0.0,0.0,0.0,0.0,0.0,0.0,0.0,0.0,0.0,0.0,0.0,0.0,0.0,0.0,0.0,0.0,0.0,0.0,0.0,0.0,0.0,0.0,0.0,0.0,0.0,0.0,0.0,0.0,0.0,0.0,0.0,0.0,0.0,0.0,0.0,0.0,0.0,0.0,0.0,0.0,0.0,0.0,0.0,0.0,0.0,0.0,0.0,0.0,0.0,0.0,0.0,0.0,0.0,0.0,0.0,0.0,0.0,0.0,0.0,0.0,0.0,0.0,0.0,0.0,0.0,0.0,0.0,0.0,0.0,0.0,0.0,0.0,0.0,0.0,0.0,0.0,0.0,0.0,-2.2739,-2.4199,-2.516,-2.5389,-2.4523,-2.3552,-2.2828,-2.2406,0.0,0.0,0.0,0.0,0.0,0.0,0.0,0.0,0.0,0.0,0.0,0.0,0.0,0.0,0.0,0.0,0.0,0.0,0.0,0.0,0.0,0.0,0.0,0.0,0.0,0.0,0.0,0.0,0.0,0.0,0.0,0.0,0.0,0.0,0.0,0.0,0.0,0.0,0.0,0.0,0.0,0.0,0.0,0.0,0.0,0.0,0.0,0.0,0.0,0.0,0.0,0.0,0.0,0.0,0.0,0.0,0.0,0.0,0.0,0.0,0.0,0.0,0.0,0.0,0.0,0.0,0.0,0.0,0.0,0.0,0.0,0.0,0.0,0.0,0.0,0.0,0.0,0.0,0.0,0.0,0.0,0.0,0.0,0.0,0.0,0.0,0.0,0.0,0.0,0.0,0.0,0.0,0.0,0.0,0.0,0.0,0.0,0.0,0.0,0.0,0.0,0.0,0.0,-2.2427,-2.3779,-2.5013,-2.5726,-2.5599,-2.4358,-2.3544,-2.2833,-2.2133,-2.1133,0.0,0.0,0.0,0.0,0.0,0.0,0.0,0.0,0.0,0.0,0.0,0.0,0.0,0.0,0.0,0.0,0.0,0.0,0.0,0.0,0.0,0.0,0.0,0.0,0.0,0.0,0.0,0.0,0.0,0.0,0.0,0.0,0.0,0.0,0.0,0.0,0.0,0.0,0.0,0.0,0.0,0.0,0.0,0.0,0.0,0.0,0.0,0.0,0.0,0.0,0.0,0.0,0.0,0.0,0.0,0.0,0.0,0.0,0.0,0.0,0.0,0.0,0.0,0.0,0.0,0.0,0.0,0.0,0.0,0.0,0.0,0.0,0.0,0.0,0.0,0.0,0.0,0.0,0.0,0.0,0.0,0.0,0.0,0.0,0.0,0.0,0.0,0.0,0.0,0.0,0.0,0.0,0.0,0.0,0.0,0.0,0.0,0.0,0.0,0.0,0.0,0.0,-2.3753,-2.4024,-2.5275,-2.5682,-2.5324,-2.3987,-2.3189,-2.2513,-2.1853,-2.046,0.0,0.0,0.0,0.0,0.0,0.0,0.0,0.0,0.0,0.0,0.0,0.0,0.0,0.0,0.0,0.0,0.0,0.0,0.0,0.0,0.0,0.0,0.0,0.0,0.0,0.0,0.0,0.0,0.0,0.0,0.0,0.0,0.0,0.0,0.0,0.0,0.0,0.0,0.0,0.0,0.0,0.0,0.0,0.0,0.0,0.0,0.0,0.0,0.0,0.0,0.0,0.0,0.0,0.0,0.0,0.0,0.0,0.0,0.0,0.0,0.0,0.0,0.0,0.0,0.0,0.0,0.0,0.0,0.0,0.0,0.0,0.0,0.0,0.0,0.0,0.0,0.0,0.0,0.0,0.0,0.0,0.0,0.0,0.0,0.0,0.0,0.0,0.0,0.0,0.0,0.0,0.0,0.0,0.0,0.0,0.0,0.0,0.0,0.0,0.0,0.0,0.0,-2.366,-2.3459,-2.5225,-2.4726,-2.4066,-2.358,-2.1983,-2.1223,-2.1755,-2.0229,0.0,0.0,0.0,0.0,0.0,0.0,0.0,0.0,0.0,0.0,0.0,0.0,0.0,0.0,0.0,0.0,0.0,0.0,0.0,0.0,0.0,0.0,0.0,0.0,0.0,0.0,0.0,0.0,0.0,0.0,0.0,0.0,0.0,0.0,0.0,0.0,0.0,0.0,0.0,0.0,0.0,0.0,0.0,0.0,0.0,0.0,0.0,0.0,0.0,0.0,0.0,0.0,0.0,0.0,0.0,0.0,0.0,0.0,0.0,0.0,0.0,0.0,0.0,0.0,0.0,0.0,0.0,0.0,0.0,0.0,0.0,0.0,0.0,0.0,0.0,0.0,0.0,0.0,0.0,0.0,0.0,0.0,0.0,0.0,0.0,0.0,0.0,0.0,0.0,0.0,0.0,0.0,0.0,0.0,0.0,0.0,0.0,0.0,0.0,0.0,0.0,0.0,-2.3736,-2.3835,0.0,-2.4548,-2.3927,-2.332,-2.2346,-2.1713,-2.1504,0.0,0.0,0.0,0.0,0.0,0.0,0.0,0.0,0.0,0.0,0.0,0.0,0.0,0.0,0.0,0.0,0.0,0.0,0.0,0.0,0.0,0.0,0.0,0.0,0.0,0.0,0.0,0.0,0.0,0.0,0.0,0.0,0.0,0.0,0.0,0.0,0.0,0.0,0.0,0.0,0.0,0.0,0.0,0.0,0.0,0.0,0.0,0.0,0.0,0.0,0.0,0.0,0.0,0.0,0.0,0.0,0.0,0.0,0.0,0.0,0.0,0.0,0.0,0.0,0.0,0.0,0.0,0.0,0.0,0.0,0.0,0.0,0.0,0.0,0.0,0.0,0.0,0.0,0.0,0.0,0.0,0.0,0.0,0.0,0.0,0.0,0.0,0.0,0.0,0.0,0.0,0.0,0.0,0.0,0.0,0.0,0.0,0.0,0.0,0.0,0.0,0.0,-2.3573,-2.3553,-2.3736,0.0,-2.4037,-2.3395,-2.2739,-2.211,-2.1568,-2.1166,0.0,0.0,0.0,0.0,0.0,0.0,0.0,0.0,0.0,0.0,0.0,0.0,0.0,0.0,0.0,0.0,0.0,0.0,0.0,0.0,0.0,0.0,0.0,0.0,0.0,0.0,0.0,0.0,0.0,0.0,0.0,0.0,0.0,0.0,0.0,0.0,0.0,0.0,0.0,0.0,0.0,0.0,0.0,0.0,0.0,0.0,0.0,0.0,0.0,0.0,0.0,0.0,0.0,0.0,0.0,0.0,0.0,0.0,0.0,0.0,0.0,0.0,0.0,0.0,0.0,0.0,0.0,0.0,0.0,0.0,0.0,0.0,0.0,0.0,0.0,0.0,0.0,0.0,0.0,0.0,0.0,0.0,0.0,0.0,0.0,0.0,0.0,0.0,0.0,0.0,0.0,0.0,0.0,0.0,0.0,0.0,0.0,0.0,0.0,0.0,0.0,0.0,-2.3345,-2.3014,-2.2924,-2.3522,-2.2959,-2.2321,-2.184,-2.0872,-2.0442,0.0,0.0,0.0,0.0,0.0,0.0,0.0,0.0,0.0,0.0,0.0,0.0,0.0,0.0,0.0,0.0,0.0,0.0,0.0,0.0,0.0,0.0,0.0,0.0,0.0,0.0,0.0,0.0,0.0,0.0,0.0,0.0,0.0,0.0,0.0,0.0,0.0,0.0,0.0,0.0,0.0,0.0,0.0,0.0,0.0,0.0,0.0,0.0,0.0,0.0,0.0,0.0,0.0,0.0,0.0,0.0,0.0,0.0,0.0,0.0,0.0,0.0,0.0,0.0,0.0,0.0,0.0,0.0,0.0,0.0,0.0,0.0,0.0,0.0,0.0,0.0,0.0,0.0,0.0,0.0,0.0,0.0,0.0,0.0,0.0,0.0,0.0,0.0,0.0,0.0,0.0,0.0,0.0,0.0,0.0,0.0,0.0,0.0,0.0,0.0,0.0,0.0,0.0,-2.3316,-2.3459,-2.3547,-2.3715,-2.3255,-2.2656,-2.1991,-2.1357,-2.0941,-2.0811,0.0,0.0,0.0,0.0,0.0,0.0,0.0,0.0,0.0,0.0,0.0,0.0,0.0,0.0,0.0,0.0,0.0,0.0,0.0,0.0,0.0,0.0,0.0,0.0,0.0,0.0,0.0,0.0,0.0,0.0,0.0,0.0,0.0,0.0,0.0,0.0,0.0,0.0,0.0,0.0,0.0,0.0,0.0,0.0,0.0,0.0,0.0,0.0,0.0,0.0,0.0,0.0,0.0,0.0,0.0,0.0,0.0,0.0,0.0,0.0,0.0,0.0,0.0,0.0,0.0,0.0,0.0,0.0,0.0,0.0,0.0,0.0,0.0,0.0,0.0,0.0,0.0,0.0,0.0,0.0,0.0,0.0,0.0,0.0,0.0,0.0,0.0,0.0,0.0,0.0,0.0,0.0,0.0,0.0,0.0,0.0,0.0,0.0,0.0,0.0,0.0,0.0,-2.3063,-2.343,-2.3722,-2.3942,-2.3841,-2.3311,-2.2261,-2.1918,-2.1424,-2.0644,0.0,0.0,0.0,0.0,0.0,0.0,0.0,0.0,0.0,0.0,0.0,0.0,0.0,0.0,0.0,0.0,0.0,0.0,0.0,0.0,0.0,0.0,0.0,0.0,0.0,0.0,0.0,0.0,0.0,0.0,0.0,0.0,0.0,0.0,0.0,0.0,0.0,0.0,0.0,0.0,0.0,0.0,0.0,0.0,0.0,0.0,0.0,0.0,0.0,0.0,0.0,0.0,0.0,0.0,0.0,0.0,0.0,0.0,0.0,0.0,0.0,0.0,0.0,0.0,0.0,0.0,0.0,0.0,0.0,0.0,0.0,0.0,0.0,0.0,0.0,0.0,0.0,0.0,0.0,0.0,0.0,0.0,0.0,0.0,0.0,0.0,0.0,0.0,0.0,0.0,0.0,0.0,0.0,0.0,0.0,0.0,0.0,0.0,0.0,0.0,0.0,0.0,-2.2795,-2.3204,-2.3671,-2.4273,-2.456,-2.4084,-2.2606,-2.2394,-2.1773,-2.0478,0.0,0.0,0.0,0.0,0.0,0.0,0.0,0.0,0.0,0.0,0.0,0.0,0.0,0.0,0.0,0.0,0.0,0.0,0.0,0.0,0.0,0.0,0.0,0.0,0.0,0.0,0.0,0.0,0.0,0.0,0.0,0.0,0.0,0.0,0.0,0.0,0.0,0.0,0.0,0.0,0.0,0.0,0.0,0.0,0.0,0.0,0.0,0.0,0.0,0.0,0.0,0.0,0.0,0.0,0.0,0.0,0.0,0.0,0.0,0.0,-2.0959,0.0,0.0,0.0,0.0,0.0,0.0,0.0,0.0,0.0,0.0,0.0,0.0,0.0,0.0,0.0,0.0,0.0,0.0,0.0,0.0,0.0,0.0,0.0,0.0,0.0,0.0,0.0,0.0,0.0,0.0,0.0,0.0,0.0,0.0,0.0,0.0,0.0,0.0,0.0,0.0,0.0,-2.3552,-2.375,-2.4161,-2.5124,-2.4913,-2.4226,-2.3061,-2.2311,-2.1689,-2.1106,-2.0597,0.0,0.0,0.0,0.0,0.0,0.0,0.0,0.0,0.0,0.0,0.0,0.0,0.0,0.0,0.0,0.0,0.0,0.0,0.0,0.0,0.0,0.0,0.0,0.0,0.0,0.0,0.0,0.0,0.0,0.0,0.0,0.0,0.0,0.0,0.0,0.0,0.0,0.0,0.0,0.0,0.0,0.0,0.0,0.0,0.0,0.0,0.0,0.0,0.0,0.0,0.0,0.0,0.0,0.0,0.0,0.0,0.0,0.0,0.0,0.0,-2.173,0.0,0.0,0.0,0.0,0.0,0.0,0.0,0.0,0.0,0.0,0.0,0.0,0.0,0.0,0.0,0.0,0.0,0.0,0.0,0.0,0.0,0.0,0.0,0.0,0.0,0.0,0.0,0.0,0.0,0.0,0.0,0.0,0.0,0.0,0.0,0.0,0.0,0.0,0.0,0.0,-2.3489,-2.3719,-2.4215,-2.5613,-2.5436,-2.4857,-2.3894,-2.2904,-2.2028,-2.1337,-2.0674,0.0,0.0,0.0,0.0,0.0,0.0,0.0,0.0,0.0,0.0,0.0,0.0,0.0,0.0,0.0,0.0,0.0,0.0,0.0,0.0,0.0,0.0,0.0,0.0,0.0,0.0,0.0,0.0,0.0,0.0,0.0,0.0,0.0,0.0,0.0,0.0,0.0,0.0,0.0,0.0,0.0,0.0,0.0,0.0,0.0,0.0,0.0,0.0,0.0,0.0,0.0,0.0,0.0,-2.7761,-2.8648,-2.9121,-3.0402,-3.08,-3.0258,-2.5905,-2.3696,-2.319,0.0,0.0,0.0,0.0,0.0,0.0,0.0,0.0,0.0,0.0,0.0,0.0,0.0,0.0,0.0,0.0,0.0,0.0,0.0,0.0,0.0,0.0,0.0,0.0,0.0,-2.4634,-2.4404,0.0,0.0,0.0,0.0,0.0,0.0,0.0,0.0,0.0,0.0,0.0,0.0,-2.3215,-2.3509,-2.4145,-2.5717,-2.5721,-2.535,-2.4733,-2.3622,-2.2556,-2.1631,-2.0879,-2.0428,0.0,0.0,0.0,0.0,0.0,0.0,0.0,0.0,0.0,0.0,0.0,0.0,0.0,0.0,0.0,0.0,0.0,0.0,0.0,0.0,0.0,0.0,0.0,0.0,0.0,0.0,0.0,0.0,0.0,0.0,0.0,0.0,-2.402,-2.3815,0.0,0.0,0.0,0.0,0.0,0.0,0.0,0.0,0.0,0.0,0.0,0.0,0.0,-2.6704,-2.803,-2.9333,-2.9789,-2.943,-3.0277,-3.0375,-2.988,-3.0254,-3.0734,-3.1221,-3.0648,0.0,-2.6372,-2.6372,0.0,0.0,0.0,0.0,0.0,0.0,0.0,0.0,0.0,0.0,0.0,0.0,0.0,0.0,0.0,0.0,0.0,0.0,0.0,0.0,0.0,0.0,-2.491,-2.5566,-2.5329,-2.5069,0.0,-2.4365,-2.3164,-2.1979,-2.1742,0.0,0.0,0.0,0.0,0.0,0.0,0.0,-2.3333,-2.3695,-2.4254,-2.5363,-2.5052,-2.4823,-2.5041,-2.3928,-2.3087,-2.2717,-2.1719,-2.0921,-2.0335,-2.0875,0.0,0.0,0.0,0.0,0.0,0.0,0.0,0.0,0.0,0.0,0.0,0.0,0.0,0.0,0.0,0.0,0.0,0.0,0.0,0.0,0.0,0.0,0.0,0.0,0.0,0.0,0.0,0.0,0.0,-2.5052,-2.5527,-2.4163,-2.5123,-2.5576,0.0,0.0,0.0,0.0,0.0,0.0,0.0,0.0,0.0,-2.7639,-2.798,-2.8862,-3.0415,-3.109,-3.1846,-3.2751,-3.3919,-3.4725,-3.5235,-3.5729,-3.6142,-3.6422,-3.6108,-3.4454,-3.1869,-2.9741,-2.7541,-2.5448,0.0,0.0,0.0,0.0,-2.5465,-2.5621,-2.6022,-2.6006,0.0,-2.525,0.0,0.0,0.0,0.0,0.0,0.0,0.0,0.0,0.0,0.0,-2.7004,-2.8094,-2.841,-2.8458,-2.8363,-2.7873,-2.6562,0.0,-2.2722,-2.2438,-2.2422,0.0,0.0,0.0,0.0,-2.2207,-2.3035,-2.3592,-2.4312,-2.5325,-2.5013,-2.4831,-2.513,-2.4069,-2.3165,-2.2602,-2.1967,-2.121,-2.0335,-2.1113,-2.1541,0.0,0.0,0.0,0.0,0.0,0.0,0.0,0.0,0.0,0.0,0.0,0.0,0.0,0.0,0.0,0.0,0.0,0.0,0.0,0.0,0.0,0.0,0.0,0.0,0.0,0.0,0.0,0.0,-2.5967,-2.6808,-2.4794,-2.6663,-2.7515,0.0,0.0,0.0,0.0,0.0,0.0,-2.8884,-2.9137,-2.9891,-3.1358,-3.1271,-3.1885,-3.3292,-3.3491,-3.4402,-3.6025,-3.7334,-3.851,-3.9587,-4.0315,-4.0647,-4.0613,-3.9868,-3.8526,-3.6589,-3.3156,-3.0474,-2.8441,-2.8338,-2.797,-2.7562,-2.8101,-2.8461,-2.8769,-2.9318,-2.9319,-2.8936,-2.7799,0.0,-2.5835,-2.4792,0.0,0.0,0.0,0.0,-2.5661,-2.7431,-2.8395,-2.9248,-3.0654,-3.1239,-3.1334,-3.0828,-3.0433,-2.909,0.0,-2.4318,-2.3844,-2.3518,0.0,0.0,0.0,0.0,-2.2596,-2.3085,-2.3808,-2.4617,-2.5379,-2.523,-2.5169,-2.546,-2.4576,-2.3723,-2.3038,-2.2591,-2.1972,-2.1127,-2.1819,-2.2228,-2.2282,0.0,0.0,0.0,0.0,0.0,0.0,0.0,0.0,0.0,0.0,0.0,0.0,0.0,0.0,0.0,0.0,0.0,0.0,0.0,0.0,0.0,0.0,0.0,0.0,0.0,0.0,0.0,0.0,0.0,-2.5735,-2.8037,0.0,0.0,0.0,0.0,-2.961,-3.0368,-3.1144,-3.1938,-3.2747,-3.3592,-3.4331,-3.5894,-3.7102,-3.788,-3.8543,-3.8941,-3.9056,-3.9835,-4.0249,-4.0348,-4.1044,-4.1359,-4.1326,-4.063,-3.9852,-3.8941,-3.6671,-3.4419,-3.2415,-3.2415,-3.2381,-3.2365,-3.2398,-3.2314,-3.2167,-3.22,-3.2063,-3.1862,-3.1501,-3.0258,-2.89,-2.8791,-2.8347,0.0,0.0,-2.8363,-2.9042,-2.9817,-3.0543,-3.1413,-3.2819,-3.2677,-3.2254,-3.2222,-3.1162,-2.9532,0.0,-2.6909,-2.6451,-2.5132,0.0,-2.3812,-2.3812,-2.3812,-2.3828,-2.386,-2.4772,-2.5433,-2.5406,-2.5594,-2.5868,-2.6225,-2.5709,-2.5257,-2.4977,-2.4209,-2.367,-2.3335,-2.3268,-2.3255,-2.3331,-2.3293,0.0,0.0,0.0,0.0,0.0,0.0,0.0,0.0,0.0,0.0,0.0,0.0,0.0,0.0,0.0,0.0,0.0,0.0,0.0,0.0,0.0,0.0,0.0,0.0,0.0,0.0,0.0,0.0,-2.9794,-3.2488,0.0,-3.1544,-3.2063,-3.2436,-3.224,-3.3034,-3.4065,-3.5284,-3.5646,-3.6373,-3.7614,-3.8676,-3.9338,-3.9603,-3.9868,-3.9984,-4.0001,-4.0713,-4.1044,-4.1077,-4.1789,-4.2121,-4.2088,-4.1359,-4.0895,-4.058,-3.9802,-3.7649,-3.4816,-3.4816,-3.4535,-3.417,-3.4651,-3.4673,-3.4546,-3.5021,-3.4709,-3.3891,-3.2723,-3.163,-3.0704,-3.0513,-3.0291,-3.0196,-3.0654,-3.0954,-3.1413,-3.2534,-3.3008,-3.3435,-3.4415,-3.4462,-3.4146,-3.3672,-3.3166,-3.2345,-3.0749,-2.9327,-2.8094,-2.7146,-2.6419,-2.5803,-2.5329,-2.5266,-2.5108,-2.465,-2.5306,-2.564,-2.5194,-2.5224,-2.5301,-2.5339,-2.5307,-2.5062,-2.4479,-2.4538,-2.4162,-2.3151,-2.3935,-2.4301,-2.4113,-2.4758,-2.4547,0.0,0.0,0.0,0.0,0.0,0.0,0.0,0.0,0.0,0.0,0.0,0.0,0.0,0.0,0.0,0.0,0.0,0.0,0.0,0.0,0.0,0.0,0.0,0.0,0.0,0.0,-3.1772,-3.2847,-3.6588,-3.7965,-3.5153,-3.5926,-3.6454,-3.619,-3.6951,-3.8112,-3.9587,-3.9669,-4.01,-4.1077,-4.1574,-4.1591,-4.111,-4.0862,-4.0862,-4.111,-4.1727,-4.2132,-4.2415,-4.3538,-4.3738,-4.3082,-4.2582,-4.2176,-4.1756,-4.1524,-4.0109,-3.8019,-3.7866,-3.7469,-3.697,-3.7469,-3.7402,-3.7101,-3.7442,-3.6905,-3.5912,-3.4781,-3.3903,-3.3173,-3.2854,-3.2752,-3.2863,-3.3235,-3.3324,-3.3577,-3.4715,-3.5015,-3.5126,-3.5631,-3.5742,-3.5473,-3.4494,-3.4494,-3.4257,-3.2882,-3.1302,-2.9817,-2.8647,-2.8079,-2.7541,-2.6814,-2.6514,-2.6293,-2.6056,-2.6322,-2.6277,-2.5616,-2.5614,-2.5557,-2.5217,-2.5532,-2.5432,-2.4665,-2.5248,-2.5072,-2.4019,-2.4743,-2.4944,-2.4522,-2.5049,-2.4857,-2.3842,0.0,0.0,0.0,0.0,0.0,0.0,0.0,0.0,0.0,0.0,0.0,0.0,0.0,0.0,0.0,0.0,0.0,0.0,0.0,0.0,0.0,0.0,0.0,-2.8949,-3.0635,-3.2562,-3.4611,-4.0085,-4.2303,-3.8781,-3.9702,-4.0812,-4.1531,-4.2187,-4.3181,-4.4633,-4.4732,-4.4732,-4.4683,-4.4716,-4.4069,-4.2659,-4.1913,-4.1856,-4.2585,-4.3099,-4.371,-4.4377,-4.6312,-4.6136,-4.436,-4.44,-4.3695,-4.2535,-4.1806,-4.1772,-4.2122,-4.1594,-4.1238,-4.0978,-4.0978,-4.054,-3.9883,-3.9484,-3.8685,-3.7863,-3.788,-3.7192,-3.6319,-3.6017,-3.5892,-3.5838,-3.5554,-3.5514,-3.56,-3.6279,-3.6453,-3.6453,-3.6453,-3.6453,-3.6074,-3.4668,-3.492,-3.5015,-3.364,-3.2819,-3.1697,-2.958,-2.9186,-2.8995,-2.83,-2.762,0.0,-2.8047,-2.7806,-2.7373,-2.6694,-2.683,-2.6726,-2.6072,-2.6557,-2.6542,-2.5749,-2.6314,-2.6515,-2.6085,-2.5726,-2.5216,-2.459,-2.4138,-2.4138,-2.4554,0.0,0.0,0.0,0.0,0.0,0.0,0.0,0.0,0.0,0.0,0.0,0.0,0.0,0.0,0.0,0.0,0.0,0.0,0.0,0.0,0.0,0.0,-3.3743,-3.3304,-3.507,-3.7514,-4.0565,-4.3454,-4.4876,-4.4054,-4.4214,-4.4456,-4.4851,-4.4704,-4.4524,-4.4406,-4.5274,-4.5145,-4.3726,-4.5003,-4.5529,-4.5196,-4.4432,-4.4193,-4.4632,-4.4747,-4.4749,-4.4664,-4.6026,-4.6406,-4.5917,-4.6248,-4.571,-4.4615,-4.4397,-4.4085,-4.3586,-4.2383,-4.2044,-4.2278,-4.2278,-4.1818,-4.1035,-4.0324,-3.9935,-3.9598,-3.9137,-3.8742,-3.8434,-3.7887,-3.7681,-3.7681,-3.7585,-3.7399,-3.7243,-3.7435,-3.734,-3.7196,-3.7196,-3.7196,-3.6943,-3.6026,-3.5995,-3.5884,-3.4984,-3.4668,-3.3862,-3.176,-3.1413,-3.1176,-3.0464,-2.9769,0.0,-2.8884,-2.831,-2.7699,-2.7031,-2.7035,-2.6773,-2.6054,-2.6366,-2.629,-2.554,-2.6081,-2.6228,-2.5848,-2.6175,-2.6266,-2.61,-2.4925,-2.4765,0.0,0.0,0.0,0.0,0.0,0.0,0.0,0.0,0.0,0.0,0.0,0.0,0.0,0.0,0.0,0.0,0.0,0.0,0.0,0.0,0.0,0.0,-3.5843,-3.8112,-3.8891,-3.9398,-4.0779,-4.3827,-4.6186,-4.7412,-4.7079,-4.7124,-4.713,-4.7312,-4.7316,-4.7284,-4.725,-4.7449,-4.7312,-4.6826,-4.7375,-4.7683,-4.7756,-4.6456,-4.6195,-4.6931,-4.6498,-4.6477,-4.6868,-4.8014,-4.8031,0.0,-4.7773,-4.7312,-4.614,-4.614,-4.6034,0.0,0.0,0.0,0.0,0.0,-4.272,-4.2223,-4.1627,-4.1423,-4.1356,-4.095,-4.0471,-3.9974,-3.9468,-3.8939,-3.8544,-3.8448,-3.8262,-3.8075,-3.7943,-3.7786,-3.7642,-3.7539,-3.748,-3.7291,-3.6579,-3.6658,-3.6579,-3.5584,-3.5631,0.0,-3.3846,-3.3087,-3.2471,-3.176,-3.0812,-3.0133,-3.0022,-2.9137,-2.8268,-2.7589,-2.7525,-2.7115,-2.6088,-2.6574,0.0,0.0,0.0,-2.7267,-2.7141,-2.6701,0.0,0.0,0.0,-2.5271,-2.635,0.0,0.0,0.0,-2.4216,-2.3735,0.0,0.0,0.0,0.0,0.0,0.0,0.0,0.0,0.0,0.0,0.0,0.0,0.0,0.0,0.0,0.0,-3.9636,-4.2211,-4.4926,-4.3846,-4.363,-4.5706,-4.8449,-4.9792,-4.8936,-4.8992,-4.9172,-4.9248,-4.9778,-5.0472,-5.1468,0.0,0.0,0.0,0.0,-5.0166,-5.0384,-4.8434,-4.8138,-4.941,-4.8448,-4.8652,-4.9872,-5.0805,-5.0277,-4.861,-4.9129,-4.8626,-4.7437,-4.7437,-4.7589,-4.7744,-4.6215,-4.5272,-4.4644,-4.3794,-4.3513,-4.3464,-4.308,0.0,0.0,-4.286,-4.2125,-4.1219,-4.0903,-4.0076,-3.9128,-3.8858,-3.873,-3.8529,-3.823,-3.81,-3.7985,-3.7801,-3.7685,-3.7467,-3.6774,-3.7139,-3.7218,-3.5966,-3.622,-3.6426,-3.5824,-3.4508,-3.3361,-3.2701,-3.1431,-3.0782,-3.1353,-3.0149,-2.9041,-2.8484,0.0,0.0,-2.6424,-2.721,-2.7187,-2.5728,-2.7599,-2.8817,-2.9068,-2.7343,-2.6853,-2.7772,-2.6183,-2.5832,-2.6826,-2.6497,-2.653,-2.6843,-2.4656,-2.377,0.0,0.0,0.0,0.0,0.0,0.0,0.0,0.0,0.0,0.0,0.0,0.0,0.0,0.0,0.0,-4.0282,-4.3926,-4.7115,-4.8647,-4.9385,-4.9708,-4.9589,-5.0625,-5.1614,-5.2188,-5.0995,-5.0583,-5.165,-5.1326,-5.1457,-5.2143,-5.2375,-5.2241,-5.1817,-5.1891,-5.2377,-5.3176,-5.1594,-5.1014,-5.1491,0.0,0.0,-5.0108,-5.0752,-5.077,-5.0436,-5.0735,-5.0153,-4.9025,-4.8841,-4.8384,-4.787,-4.7248,-4.6915,-4.6665,-4.5264,-4.4756,-4.4668,-4.3925,-4.3698,-4.3633,-4.3294,-4.3042,-4.2821,-4.2467,-4.1948,0.0,-4.105,-4.0551,-4.0043,-3.9692,-3.9368,-3.9119,-3.9065,-3.8974,-3.8723,-3.8076,-3.8028,-3.8044,-3.777,-3.7834,-3.7857,-3.7613,-3.6136,-3.4895,-3.4623,-3.3511,-3.2673,-3.2643,-3.1402,-3.0422,-3.0293,-3.0141,-2.9541,-2.8359,-2.8764,-2.8549,-2.734,-2.8222,-2.889,-2.9104,-2.8149,-2.7724,-2.7789,-2.715,-2.7083,-2.757,-2.7835,-2.7985,-2.8027,-2.604,-2.516,0.0,0.0,0.0,0.0,0.0,0.0,0.0,0.0,0.0,0.0,0.0,-3.5363,0.0,0.0,-4.3065,-4.4976,-4.801,-5.0521,-5.1627,-5.2892,-5.3142,-5.1709,-5.2062,-5.266,-5.3173,-5.2381,-5.2195,-5.3063,-5.3339,-5.3579,-5.3958,-5.3489,-5.3387,-5.3852,-5.3459,-5.3743,-5.4773,-5.3401,-5.2759,-5.2881,-5.2094,-5.1583,-5.1345,-5.1432,-5.15,-5.15,-5.1521,-5.1154,-5.0609,-5.0453,-5.0171,-4.9749,-4.9043,-4.8217,-4.7257,-4.6098,-4.5659,-4.5607,-4.5203,-4.5062,-4.5014,-4.4803,-4.4655,-4.4385,-4.3836,-4.3357,-4.2872,-4.2347,-4.192,-4.154,-4.1256,-4.0712,-4.0217,-4.0113,-3.9671,-3.9262,-3.8941,-3.8832,-3.8832,-3.8739,-3.8739,-3.8734,-3.8639,-3.792,-3.688,-3.5707,-3.4707,-3.3941,-3.3448,-3.2089,-3.1188,-3.1188,-3.078,-3.0137,-2.9206,-2.917,-2.9202,-2.9202,-2.9465,-2.9856,-3.0321,-2.9602,-2.9138,-2.9013,-2.8443,-2.8222,-2.8399,-2.8589,-2.8699,-2.8682,-2.7711,-2.6942,0.0,0.0,0.0,0.0,0.0,0.0,0.0,0.0,-3.3894,-3.6238,-3.8404,-4.0431,-4.2323,-4.4868,-4.735,-4.9496,-5.1451,-5.3021,-5.3969,-5.4928,-5.5027,-5.3428,-5.3594,-5.3799,-5.376,-5.3708,-5.3813,-5.4183,-5.5023,-5.5557,-5.5676,-5.4433,-5.4458,-5.6052,-5.5062,-5.4952,-5.5926,-5.4755,-5.4146,-5.4146,-5.3186,-5.2733,-5.2715,-5.2365,-5.2198,-5.215,-5.1889,-5.174,-5.1672,-5.153,-5.1369,-5.1155,-5.0137,-4.8823,-4.7459,-4.6677,-4.6312,-4.6172,-4.6172,-4.6172,-4.6172,-4.6172,-4.6023,-4.5665,-4.5005,-4.4543,-4.4078,-4.3442,-4.3185,-4.3031,-4.2672,-4.2108,-4.1529,-4.1323,-4.0662,-4.0019,-3.9847,-3.9694,-3.9542,-3.9401,-3.9348,-3.9401,-3.9523,-3.9523,-3.8872,-3.6853,-3.5873,-3.506,-3.4439,-3.304,-3.2074,-3.1941,-3.1358,-3.0664,-2.9928,-2.9572,-2.9856,-3.0869,-3.0814,-3.0999,-3.16,-3.0839,-3.0372,-3.0245,-2.9649,-2.927,-2.9231,-2.9367,-2.9434,-2.9414,-2.9434,-2.876,-2.9185,-2.9314,-2.9916,-3.1125,-3.1491,-3.2896,0.0,0.0,-3.9868,-4.277,-4.4585,-4.603,-4.6926,-4.917,-5.1106,-5.2045,-5.3488,-5.4695,-5.5308,-5.553,-5.5663,-5.5913,-5.6023,-5.5986,-5.5794,-5.5415,-5.5248,-5.5297,-5.5402,-5.5736,-5.6237,-5.5865,-5.5966,-5.6689,-5.6562,-5.6665,-5.7011,-5.6174,-5.574,-5.5721,-5.4255,-5.3566,-5.3548,-5.2777,-5.2452,-5.2452,-5.2198,-5.1938,-5.1637,-5.0905,-5.0209,-4.9513,-4.8746,-4.8289,-4.8016,-4.7491,-4.6818,-4.6172,-4.6172,-4.6172,-4.6172,-4.6172,-4.6172,-4.6105,-4.6017,-4.5732,-4.5355,-4.4974,-4.4533,-4.4143,-4.3825,-4.358,-4.3398,-4.3367,-4.268,-4.1902,-4.1324,-4.0612,-4.0086,-3.9952,-3.9902,-4.007,-4.0614,-4.071,-4.024,-3.8802,-3.7519,-3.667,-3.6409,-3.5053,-3.3845,-3.3187,-3.2844,-3.2342,-3.1603,-3.113,-3.1113,-3.1625,-3.1662,-3.1623,-3.1617,-3.0879,-3.0448,-3.0372,-3.016,-3.0071,-3.0051,-3.0734,-3.0997,-3.0954,-3.1019,-3.0234,-3.356,-3.33,0.0,0.0,-3.6784,-3.8946,-4.2274,-4.363,-4.4906,-4.7355,-4.908,-5.038,-5.1071,-5.2682,-5.4037,0.0,-5.5352,-5.6093,-5.651,-5.6509,-5.6595,-5.6855,-5.6852,-5.6665,-5.6166,-5.5733,-5.5517,-5.5511,-5.5851,-5.6067,-5.6235,-5.6217,-5.6365,-5.6794,-5.6794,-5.6951,-5.7206,-5.6862,-5.6446,-5.5975,-5.5341,-5.4562,-5.3693,-5.3349,-5.2933,-5.2498,-5.2387,-5.2246,-5.2114,-5.182,-5.1495,-5.1106,-5.0641,-4.9894,-4.8916,-4.747,-4.7029,-4.7015,-4.6428,-4.6172,-4.6172,-4.6172,-4.6537,-4.6818,-4.6362,-4.6388,-4.6529,-4.5926,-4.56,-4.5396,-4.5277,-4.4874,-4.4493,-4.4493,-4.3898,-4.3179,-4.2826,-4.2452,-4.2089,-4.1529,-4.1395,-4.1354,-4.1111,-4.1059,-4.0832,-4.025,-3.8918,-3.7767,-3.7216,-3.584,-3.4565,-3.383,-3.3235,-3.2783,-3.2472,-3.1874,-3.1579,-3.18,-3.18,-3.1746,-3.1709,-3.1399,-3.119,-3.1079,-3.1042,-3.1022,-3.0963,-3.1198,-3.1312,-3.1346,-3.1312,-3.0972,-3.5567,0.0,0.0,-3.8796,-4.149,-4.4079,-4.5965,-4.7713,-4.9416,-5.1187,-5.2523,-5.3602,-5.4147,-5.503,0.0,-5.5973,-5.6491,-5.7003,-5.7188,-5.7193,-5.6891,-5.6013,-5.5873,-5.6031,-5.6345,-5.6152,-5.5973,-5.5972,-5.6347,-5.6562,-5.642,-5.6456,-5.6653,-5.6899,-5.6899,-5.6984,-5.7188,-5.7188,-5.6899,-5.6319,-5.6102,-5.5305,-5.4019,-5.3566,-5.3041,-5.2498,-5.2498,-5.2498,-5.2498,-5.2498,-5.2371,-5.2172,-5.1968,-5.1153,-4.9883,-4.7872,-4.7329,-4.7465,-4.6707,-4.6557,-4.6751,-4.6653,-4.704,-4.7375,-4.6713,-4.6783,-4.6958,-4.6379,-4.6172,-4.6172,-4.6172,-4.5817,-4.5414,-4.5414,-4.4799,-4.4173,-4.4078,-4.3855,-4.3493,-4.2875,-4.2549,-4.2218,-4.1627,-4.1291,-4.1123,-4.1123,-3.9887,-3.876,-3.8163,-3.6577,-3.5214,-3.4473,-3.3697,-3.3231,-3.3231,-3.2731,-3.2421,-3.2421,-3.2421,-3.2421,-3.2421,-3.2214,-3.2056,-3.1963,-3.1531,-3.1288,-3.123,-3.0933,-3.083,-3.0868,-3.0813,-3.084,0.0,0.0,-3.8422,-4.171,-4.4284,-4.6748,-4.9571,-5.1771,-5.3419,-5.4194,-5.4991,-5.552,-5.5538,-5.5812,-5.598,-5.6029,-5.6681,-5.7188,-5.7188,-5.7198,-5.606,-5.3008,-5.2629,-5.3844,0.0,-5.7175,-5.7133,-5.7155,-5.7191,-5.7155,-5.7189,-5.692,-5.6899,-5.7188,-5.7206,-5.7188,-5.7188,-5.7188,-5.7188,-5.7152,-5.6373,-5.5595,-5.4816,-5.3241,-5.2516,-5.2498,-5.2498,-5.2498,-5.2498,-5.2498,-5.2027,-5.1339,-5.1339,-5.1285,-5.1004,-4.9154,-4.7823,-4.7015,-4.6998,-4.7497,-4.8093,-4.7824,-4.7776,-4.7709,-4.7462,-4.6853,-4.6256,-4.6239,-4.6172,-4.6172,-4.6172,-4.6154,-4.6186,-4.6186,-4.5607,-4.5014,-4.4883,-4.424,-4.365,-4.3572,-4.2914,-4.2392,-4.2375,-4.1714,-4.1209,-4.1209,-4.0412,-3.9818,-3.9629,-3.7663,-3.5973,-3.5249,-3.449,-3.4042,-3.4042,-3.4024,-3.4007,-3.4007,-3.4007,-3.4007,-3.4007,-3.3283,-3.2869,-3.2869,-3.1328,-3.0516,-3.0516,-2.9796,-2.9384,-2.9279,-2.9384,-2.9759,0.0,0.0,-4.4836,-4.7698,-5.0203,-5.2328,-5.3803,-5.5038,-5.5716,-5.4927,-5.4521,-5.4002,-5.2936,-5.3266,-5.3838,-5.4381,-5.5558,-5.6591,-5.7116,-5.7193,-5.68,-5.5716,-5.1899,0.0,0.0,0.0,0.0,-5.7202,-5.721,-5.7213,-5.7213,-5.709,-5.7105,-5.7206,-5.7188,-5.7188,-5.7188,-5.7188,-5.7188,-5.7188,-5.6373,-5.5613,-5.487,-5.3784,-5.3005,-5.2498,-5.2498,-5.2498,-5.2498,-5.2498,-5.2335,-5.21,-5.21,-5.143,-5.0434,-4.9784,-4.8648,-4.7443,-4.7133,-4.7158,-4.7479,-4.7903,-4.8081,-4.8123,-4.8364,-4.7925,-4.7347,-4.7694,-4.7046,-4.6344,-4.6871,-4.6625,-4.6172,-4.6172,-4.6028,-4.5804,-4.5786,-4.5527,-4.5194,-4.4703,-4.4406,-4.4008,-4.3465,-4.2684,-4.1911,-4.1279,-4.052,-3.977,-3.9071,-3.839,-3.7837,-3.7473,-3.6318,-3.5559,-3.5559,-3.4645,-3.4093,-3.4093,-3.4093,-3.4093,-3.4093,-3.3835,-3.3438,-3.2921,-3.2366,-3.1829,-3.1384,-3.0999,-3.0621,-3.0229,-3.0638,-3.0705,0.0,-4.6319,-4.8612,-5.1782,-5.3947,-5.5486,-5.6247,-5.6391,-5.5939,-5.4363,-5.3168,-5.1919,-5.0307,-5.0434,-5.1194,-5.249,-5.3396,-5.4683,-5.6889,-5.7182,-5.7218,-5.7182,-5.3598,0.0,0.0,0.0,0.0,-5.5432,-5.6576,-5.7216,-5.7188,-5.7188,-5.7188,-5.7188,-5.7188,-5.7188,-5.7188,-5.7188,-5.7188,-5.7188,-5.6373,-5.574,-5.5269,-5.42,-5.3422,-5.2915,-5.2625,-5.2498,-5.2498,-5.2498,-5.2498,-5.2462,-5.2172,-5.143,-5.0452,-4.9872,-4.9021,-4.8055,-4.7445,-4.7626,-4.8183,-4.8611,-4.8923,-4.918,-4.9457,-4.9017,-4.8453,-4.8788,-4.8055,-4.7266,-4.7477,-4.7061,-4.6572,-4.6242,-4.6172,-4.6172,-4.6172,-4.6172,-4.6081,-4.5607,-4.5291,-4.494,-4.4413,-4.3419,-4.2363,-4.1422,-4.0899,-4.0262,-3.9274,-3.9232,-3.9024,-3.8364,-3.7404,-3.6654,-3.6377,-3.5462,-3.4887,-3.4887,-3.4887,-3.4887,-3.4887,-3.4628,-3.4249,-3.3731,-3.3179,-3.2662,-3.2179,-3.1829,-3.133,-3.0713,-3.1364,-3.1259,-4.5165,-4.7555,-5.0019,-5.4062,-5.5613,-5.6283,-5.6935,-5.5884,-5.4309,-5.2607,-5.0904,-4.9238,0.0,0.0,-4.8206,-5.0377,-5.046,-5.1883,-5.64,-5.7145,-5.7229,0.0,0.0,0.0,0.0,0.0,0.0,-5.2293,0.0,-5.7224,-5.7315,-5.7243,-5.7224,-5.7261,-5.7224,-5.7188,-5.7188,-5.7188,-5.7188,-5.7188,-5.6428,-5.6029,-5.5939,-5.4454,-5.3748,-5.3657,-5.2842,-5.2498,-5.2498,-5.2498,-5.2498,-5.2426,-5.1647,-5.1303,-5.1049,-4.9528,-4.8931,-4.8749,-4.8025,-4.8768,-4.9991,-4.9784,-5.0279,-5.0861,-5.0659,-5.0061,-4.9472,-4.9526,-4.9279,-4.8852,-4.8125,-4.7682,-4.7254,-4.6467,-4.6256,-4.6172,-4.6172,-4.6172,-4.6172,-4.6172,-4.5642,-4.5133,-4.5115,-4.3904,-4.2594,-4.1618,-4.1568,-4.1288,-4.0296,-4.0147,-3.9573,-3.8154,-3.7853,-3.7438,-3.6676,-3.6437,-3.6301,-3.6301,-3.6301,-3.6301,-3.6301,-3.5628,-3.5232,-3.5197,-3.3766,-3.3007,-3.2955,-3.2265,-3.1524,-3.0817,-3.1558,-3.147,-5.0038,-5.305,-5.5401,-5.7098,-5.7641,-5.7387,-5.5848,-5.4255,-5.2317,-4.951,-4.6685,-4.424,0.0,0.0,0.0,-4.8158,-5.0904,0.0,-5.4711,-5.6197,0.0,0.0,0.0,-5.689,-5.6059,-5.5243,0.0,0.0,-5.5437,-5.7738,-5.8903,-5.7825,-5.7448,-5.8076,-5.7514,-5.7188,-5.7188,-5.7188,-5.7188,-5.7188,-5.6989,-5.6573,-5.5957,-5.5015,-5.4273,-5.3657,-5.2842,-5.2498,-5.2498,-5.2498,-5.2498,-5.248,-5.2263,-5.1448,-5.0343,-4.9945,-4.9039,-4.8079,-4.8478,-4.8876,-4.9311,-4.9846,-5.0525,-5.1238,-5.1598,-5.1126,-5.0605,-5.0972,-5.0263,-4.9394,-4.9733,-4.8773,-4.7625,-4.7413,-4.679,-4.6172,-4.6172,-4.6172,-4.6172,-4.6172,-4.6081,-4.5765,-4.5185,-4.4764,-4.4062,-4.2665,-4.2454,-4.2111,-4.108,-4.1021,-4.0882,-4.0374,-3.9347,-3.8573,-3.8235,-3.7119,-3.6402,-3.6301,-3.6301,-3.6301,-3.6301,-3.6111,-3.5766,-3.5197,-3.48,-3.4335,-3.3783,-3.3593,-3.311,-3.2352,-3.3145,-3.3076,-5.3171,-5.5754,-5.7387,-5.8202,-5.813,-5.7261,-5.4907,-5.2317,-4.9492,-4.6269,-4.3607,0.0,0.0,0.0,0.0,0.0,0.0,0.0,-5.507,-5.5672,-5.6192,0.0,-5.7611,0.0,-5.7242,-5.7211,-5.6468,0.0,-5.6187,-5.7891,-5.9499,-5.8997,-5.8531,-5.8402,-5.7967,-5.755,-5.7188,-5.7188,-5.7188,-5.7188,-5.7188,-5.6953,-5.65,-5.5721,-5.4961,-5.4182,0.0,-5.2824,-5.2498,-5.2498,-5.2498,-5.2462,-5.21,-5.1411,-5.056,-5.0216,-4.9528,-4.8822,-4.9275,-4.9655,-5.0035,-5.047,-5.1158,-5.19,-5.2149,-5.1968,-5.1651,-5.1958,-5.1359,-5.0599,-5.0653,-4.9817,-4.8893,-4.8573,-4.7953,-4.7407,-4.7407,-4.7307,-4.7169,-4.6818,-4.6748,-4.6379,-4.5291,-4.527,-4.494,-4.3511,-4.3454,-4.3244,-4.23,-4.1753,-4.1331,-4.0954,-3.9792,-3.8868,-3.8494,-3.7321,-3.6544,-3.6402,-3.6402,-3.6343,-3.6301,-3.6301,-3.6111,-3.568,-3.568,-3.5473,-3.5059,-3.5243,-3.4905,-3.4175,-3.4957,-3.4812,-5.5323,-5.6971,-5.7822,-5.8402,-5.7876,-5.6464,-5.3693,-5.0035,-4.6287,-4.2955,0.0,0.0,-3.7196,0.0,-4.2703,-4.6738,0.0,-5.0123,-5.6197,-5.5595,-5.5202,-5.7007,-5.8021,-5.8329,-5.7578,-5.7361,-5.7185,-5.7207,-5.7616,-5.844,-5.9844,-6.0155,-5.9758,-5.8601,-5.8347,-5.7967,-5.7369,-5.7243,-5.7188,-5.7188,-5.7188,-5.7188,-5.717,-5.6355,-5.5649,-5.4997,-5.4092,0.0,-5.2643,-5.2534,-5.2498,-5.2426,-5.1719,-5.1375,-5.1212,-5.0506,-5.018,-5.0108,-5.0198,-5.0705,-5.1285,-5.1285,-5.1828,-5.2498,-5.2498,-5.2498,-5.2498,-5.2498,-5.234,-5.197,-5.1297,-5.0838,-5.0396,-4.9752,-4.9345,-4.9029,-4.9029,-4.8708,-4.8222,-4.7538,-4.7342,-4.69,-4.5563,-4.5719,-4.5641,-4.441,-4.46,-4.4496,-4.362,-4.2457,-4.1508,-4.0845,-3.9901,-3.9063,-3.852,-3.7533,-3.6905,-3.683,-3.6725,-3.6591,-3.6492,-3.6451,-3.6451,-3.6451,-3.6409,-3.6367,-3.6367,-3.6719,-3.6566,-3.5972,-3.6679,-3.6427,-5.7442,-5.9072,-6.0068,-5.9524,-5.8293,-5.5884,-5.0886,-4.7138,0.0,0.0,0.0,-3.5711,-3.5965,-3.8083,0.0,-4.5062,0.0,0.0,0.0,0.0,-5.6785,0.0,0.0,0.0,0.0,0.0,0.0,0.0,0.0,-6.128,-6.1569,-6.043,-5.9618,-5.9416,-5.8094,-5.7659,-5.8184,-5.7532,-5.7188,-5.7188,-5.7188,-5.7188,-5.717,-5.6355,-5.5921,-5.5721,-5.4309,0.0,-5.344,-5.277,-5.2498,-5.248,-5.2353,-5.1882,-5.1267,-5.1122,-5.0651,-5.018,-5.085,-5.1176,-5.1285,-5.1285,-5.1828,-5.2498,-5.2498,-5.2498,-5.2498,-5.2498,-5.2452,-5.2415,-5.2271,-5.1524,-5.0778,-5.0652,-4.9961,-4.9274,-4.9029,-4.8267,-4.7555,-4.7415,-4.7179,-4.6895,-4.6628,-4.6962,-4.6994,-4.6098,-4.6055,-4.5572,-4.409,-4.3116,-4.2564,-4.2433,-4.112,-4.0418,-4.0861,-3.9213,-3.828,-3.8562,-3.7844,-3.7414,-3.736,-3.7303,-3.7266,-3.7266,-3.6978,-3.6799,-3.6799,-3.686,-3.6829,-3.6707,-3.7175,-3.7272,-5.8525,-5.9905,-6.0629,-5.9814,-5.7786,-5.4653,-4.9474,0.0,0.0,0.0,0.0,-3.4606,-3.457,0.0,0.0,0.0,0.0,0.0,0.0,0.0,0.0,0.0,0.0,0.0,0.0,0.0,0.0,0.0,0.0,-6.2023,-6.2004,-6.0756,-6.0015,-6.0015,-5.9017,-5.8438,-5.8402,-5.7605,-5.7188,-5.7188,-5.7188,-5.7188,-5.7188,-5.679,-5.6391,-5.5957,-5.5214,0.0,-5.4255,-5.3458,-5.3114,-5.3078,-5.2661,-5.2263,-5.1919,-5.1919,-5.1665,-5.1393,-5.1774,-5.1919,-5.1919,-5.1919,-5.219,-5.2498,-5.2498,-5.2498,-5.2498,-5.2498,-5.2498,-5.2498,-5.2498,-5.2098,-5.1744,-5.1744,-5.1126,-5.0517,-5.0234,-4.9342,-4.8571,-4.8364,-4.7897,-4.7454,-4.7276,-4.7632,-4.7769,-4.7107,-4.7234,-4.6973,-4.5694,-4.5052,-4.4193,-4.2935,-4.1779,-4.1235,-4.1559,-4.0328,-3.9553,-3.968,-3.8869,-3.8366,-3.8349,-3.7847,-3.756,-3.756,-3.734,-3.719,-3.719,-3.7432,-3.7542,-3.7542,-3.7721,-3.7913,-5.8542,-5.9808,-6.0445,-5.9647,-5.6767,-5.2915,-4.8261,-4.3462,0.0,0.0,-3.4787,-3.4208,-3.3737,0.0,0.0,0.0,0.0,0.0,0.0,0.0,0.0,0.0,0.0,0.0,0.0,0.0,0.0,0.0,0.0,0.0,-6.1987,-6.1226,-6.072,-6.0738,-5.9905,-5.918,-5.8655,-5.7695,-5.7188,-5.7188,-5.7188,-5.7188,-5.7188,-5.7188,-5.6862,-5.6247,-5.6066,0.0,0.0,-5.4037,-5.3603,-5.3385,-5.2752,-5.2498,-5.2498,-5.2498,-5.2498,-5.2498,-5.2498,-5.2498,-5.2498,-5.2498,-5.2498,-5.2498,-5.2498,-5.2498,-5.2498,-5.2498,-5.2498,-5.2498,-5.2498,-5.2498,-5.2498,-5.2498,-5.2132,-5.169,-5.1436,-5.0643,-4.9778,-4.9292,-4.8762,-4.8263,-4.7837,-4.8114,-4.8326,-4.7919,-4.8192,-4.8107,-4.7261,-4.687,-4.5875,-4.3798,-4.2759,-4.2268,-4.2467,-4.1485,-4.0868,-4.0831,-3.9888,-3.9327,-3.9259,-3.8361,-3.7877,-3.7877,-3.7738,-3.7632,-3.7632,-3.7948,-3.8101,-3.8101,-3.8186,-3.8401,-5.7007,-5.8666,-5.998,-5.9262,-5.532,-5.056,-4.645,0.0,0.0,0.0,-3.3556,-3.3719,-3.4371,-3.5403,0.0,0.0,0.0,0.0,0.0,0.0,0.0,0.0,0.0,0.0,0.0,0.0,0.0,0.0,0.0,0.0,-6.2005,-6.1933,-6.1878,-6.186,-5.9905,-5.9087,-5.9488,-5.7967,-5.7188,-5.7188,-5.7188,-5.7188,-5.7188,-5.7188,-5.7152,-5.7043,-5.6319,0.0,0.0,-5.4037,-5.3277,-5.2589,-5.2516,-5.2498,-5.2498,-5.2498,-5.2498,-5.2498,-5.2498,-5.2498,-5.2498,-5.2498,-5.2498,-5.2498,-5.2498,-5.2498,-5.2498,-5.2498,-5.2498,-5.2498,-5.2498,-5.2498,-5.2498,-5.2498,-5.2293,-5.1987,-5.174,-5.116,-5.0414,-4.9388,-4.9285,-4.9124,-4.8357,-4.8569,-4.882,-4.8785,-4.882,-4.8542,-4.7726,-4.7615,-4.721,-4.6246,-4.473,-4.4127,-4.4897,-4.3155,-4.2202,-4.2545,-4.1003,-4.0104,-4.0074,-3.9257,-3.8785,-3.8785,-3.836,-3.8147,-3.8147,-3.8117,-3.8101,-3.8101,-3.8483,-3.8658,-5.5692,-5.8307,-6.0129,-5.8823,-5.4679,-4.9815,-4.5805,0.0,0.0,-3.3954,-3.3393,-3.3502,-3.3828,-3.4552,-3.567,-3.7567,0.0,0.0,0.0,0.0,0.0,0.0,0.0,0.0,0.0,0.0,0.0,0.0,0.0,0.0,-6.1982,-6.2004,-6.1553,-6.0594,-5.9707,-5.9144,-5.8891,-5.775,-5.7188,-5.7188,-5.7188,-5.7188,-5.7188,-5.7188,-5.7188,-5.717,-5.6862,0.0,0.0,-5.4744,-5.3947,-5.3168,-5.2679,-5.2498,-5.2498,-5.2498,-5.2498,-5.2498,-5.2498,-5.2498,-5.2498,-5.2498,-5.2498,-5.2498,-5.2498,-5.2498,-5.2498,-5.2498,-5.2498,-5.2498,-5.2498,-5.2498,-5.2498,-5.2498,-5.2444,-5.2325,-5.2185,-5.161,-5.1058,-5.0908,-5.0506,-5.0037,-4.9455,-4.9508,-4.9466,-4.8964,-4.8909,-4.8779,-4.8463,-4.8426,-4.8296,-4.798,-4.6055,-4.4915,-4.5254,-4.4045,-4.3347,-4.3522,-4.2414,-4.1753,-4.1753,-4.0933,-4.0448,-4.0448,-3.9731,-3.9331,-3.9268,-3.8779,-3.8496,-3.8483,-3.8627,-3.8707,-5.2493,-5.5899,-5.8388,-5.7119,-5.2964,-4.8281,0.0,0.0,0.0,-3.381,-3.3393,-3.3422,-3.3481,-3.3935,-3.4659,-3.5687,-3.5999,-3.702,0.0,0.0,0.0,0.0,0.0,0.0,0.0,0.0,0.0,0.0,0.0,0.0,0.0,-6.1974,-6.1277,-5.9655,-5.9437,-5.9019,-5.8402,-5.7605,-5.7188,-5.7188,-5.7188,-5.7188,-5.7188,-5.7188,-5.7188,-5.7188,-5.7188,0.0,0.0,-5.5106,-5.4291,-5.3295,-5.2715,-5.2498,-5.2498,-5.2498,-5.2498,-5.2498,-5.2498,-5.2498,-5.2498,-5.2498,-5.2498,-5.2498,-5.2498,-5.2498,-5.2498,-5.2498,-5.2498,-5.2498,-5.2498,-5.2498,-5.2526,-5.2618,-5.2654,-5.2626,-5.2634,-5.2309,-5.2064,-5.2029,-5.1648,-5.1137,-5.0599,-5.0265,-4.9912,-4.9355,-4.9057,-4.8909,-4.8909,-4.8909,-4.8909,-4.8909,-4.7163,-4.59,-4.5677,-4.4636,-4.4005,-4.4005,-4.3243,-4.2797,-4.2797,-4.1976,-4.1408,-4.1167,-4.0496,-3.9981,-3.9711,-3.9098,-3.878,-3.8719,-3.8707,-3.8707,-4.6626,-5.0464,-5.3888,-5.3542,-4.9616,-4.5333,0.0,0.0,0.0,-3.3574,-3.3393,-3.3452,-3.3643,-3.3698,-3.4028,-3.5053,-3.6215,-3.7298,-3.8109,0.0,0.0,0.0,0.0,0.0,0.0,0.0,0.0,0.0,0.0,0.0,0.0,-6.1984,-6.1251,-5.9637,-5.9077,-5.866,-5.8402,-5.7605,-5.7188,-5.7188,-5.7188,-5.7188,-5.7188,-5.7188,-5.7188,0.0,0.0,0.0,0.0,-5.4907,-5.3965,-5.2498,-5.2498,-5.2498,-5.2498,-5.2498,-5.2498,-5.2498,-5.2498,-5.2498,-5.2498,-5.2498,-5.2498,-5.2498,-5.2498,-5.2498,-5.2498,-5.2498,-5.2498,-5.2498,-5.2498,-5.2498,-5.2572,-5.2912,-5.298,-5.3005,-5.2981,-5.3407,-5.3439,-5.2338,-5.24,-5.2436,-5.1616,-5.0726,-5.0098,-5.0098,-4.941,-4.8909,-4.8909,-4.8909,-4.8909,-4.8909,-4.8166,-4.7348,-4.655,-4.4952,-4.4005,-4.4005,-4.3243,-4.2797,-4.2797,-4.2036,-4.1219,-4.042,-4.0259,-3.9793,-3.8997,-3.8881,-3.8792,-3.8792,-3.8719,-3.8707,-4.1849,-4.4683,-4.6637,-4.6526,-4.3881,-4.0799,-3.8946,0.0,0.0,-3.277,-3.311,-3.3615,-3.3671,-3.3815,-3.4784,-3.7559,-3.6814,-3.6673,0.0,0.0,0.0,0.0,0.0,0.0,0.0,0.0,0.0,0.0,0.0,0.0,0.0,-6.1394,-6.0249,-6.0357,-5.9667,-5.8959,-5.8327,-5.7854,-5.7601,-5.7601,-5.7338,-5.7188,-5.7188,-5.7188,-5.7188,0.0,0.0,0.0,0.0,-5.4907,-5.3947,-5.2498,-5.2498,-5.2498,-5.2498,-5.2498,-5.2498,-5.2498,-5.2498,-5.2498,-5.2498,-5.2498,-5.2498,-5.2498,-5.2498,-5.2498,-5.2498,-5.2498,-5.2498,-5.2498,-5.2498,-5.2498,-5.2572,-5.2912,-5.3133,-5.3345,-5.3565,-5.3889,-5.4054,-5.3682,-5.3626,-5.3347,-5.249,-5.2046,-5.147,-5.0283,-4.9893,-4.9522,-4.8964,-4.8909,-4.8909,-4.8909,-4.8184,-4.7367,-4.6568,-4.5509,-4.4636,-4.4042,-4.3763,-4.3615,-4.3615,-4.3373,-4.3113,-4.2872,-4.1728,-4.1011,-4.0711,-3.9523,-3.891,-3.8773,-3.818,-3.8175,0.0,-3.9915,-4.186,-4.1761,-4.0008,0.0,0.0,0.0,0.0,0.0,0.0,-3.2981,-3.3301,-3.3511,-3.4507,-3.7094,-3.772,-3.8495,-4.0255,0.0,0.0,0.0,0.0,0.0,0.0,0.0,0.0,0.0,0.0,0.0,0.0,-6.1124,-5.9579,-6.0157,-5.9893,-5.9298,-5.8319,-5.8097,-5.7932,-5.7792,-5.7553,-5.7356,-5.7188,-5.7188,-5.7188,0.0,0.0,0.0,0.0,-5.4689,-5.3856,-5.2915,-5.2625,-5.2498,-5.2498,-5.2498,-5.2498,-5.2498,-5.2498,-5.2498,-5.2498,-5.2498,-5.259,-5.2708,-5.2708,-5.2708,-5.2708,-5.2708,-5.2779,-5.2831,-5.2831,-5.2831,-5.2919,-5.3258,-5.3484,-5.37,-5.4036,-5.4217,-5.4324,-5.4324,-5.4235,-5.3977,-5.3383,-5.2956,-5.2249,-5.0856,-5.0337,-4.9819,-4.9002,-4.8909,-4.8909,-4.8909,-4.8444,-4.7831,-4.7014,-4.5937,-4.4934,-4.4061,-4.4005,-4.4005,-4.4005,-4.4005,-4.3856,-4.3559,-4.2556,-4.1728,-4.1074,-3.9674,-3.8921,-3.8773,-3.8247,-3.8242,0.0,0.0,0.0,0.0,0.0,0.0,0.0,0.0,0.0,0.0,0.0,0.0,0.0,-3.3003,-3.356,-3.4861,-3.8675,-4.1709,0.0,0.0,0.0,0.0,0.0,0.0,0.0,0.0,0.0,0.0,0.0,0.0,0.0,-6.0999,-5.929,-5.9309,-5.9841,-5.9553,-5.8406,-5.8344,-5.8186,-5.7886,-5.7839,-5.7649,-5.7239,-5.7239,-5.7239,0.0,0.0,0.0,0.0,-5.4447,-5.3795,-5.3668,-5.2806,-5.2498,-5.2498,-5.2498,-5.2498,-5.2498,-5.2498,-5.2498,-5.2498,-5.2544,-5.2753,-5.2999,-5.3023,-5.3023,-5.3023,-5.3023,-5.3198,-5.3407,-5.3407,-5.3407,-5.3487,-5.3814,-5.3907,-5.3981,-5.4321,-5.4409,-5.4409,-5.4409,-5.4359,-5.4308,-5.4308,-5.3474,-5.2546,-5.1691,-5.0801,-4.9912,-4.9094,-4.8946,-4.8909,-4.8909,-4.8909,-4.8574,-4.7776,-4.6271,-4.5008,-4.4153,-4.4023,-4.4005,-4.4005,-4.4005,-4.3652,-4.289,-4.276,-4.1943,-4.0401,-3.9462,-3.8939,-3.8822,-3.8766,-3.8707,-2.758,0.0,-3.1165,-3.1742,0.0,0.0,0.0,0.0,0.0,0.0,0.0,0.0,0.0,0.0,-3.4727,-3.8963,-3.7798,-3.9013,0.0,0.0,0.0,0.0,0.0,0.0,0.0,0.0,0.0,0.0,0.0,0.0,0.0,-5.974,-5.929,-5.9309,-5.942,-5.9362,-5.9063,-5.8788,-5.8624,-5.854,-5.8301,-5.8006,-5.7649,-5.7649,-5.7649,0.0,0.0,0.0,-5.6728,-5.5487,-5.4647,-5.3981,-5.2926,-5.2498,-5.2498,-5.2498,-5.2498,-5.2498,-5.2498,-5.2498,-5.2526,-5.2779,-5.2955,-5.3023,-5.3222,-5.3304,-5.3304,-5.3304,-5.3326,-5.3407,-5.3407,-5.3407,-5.3487,-5.3814,-5.3907,-5.3981,-5.4321,-5.4409,-5.4409,-5.4409,-5.4409,-5.434,-5.4308,-5.4104,-5.3585,-5.2583,-5.1728,-5.0819,-4.993,-4.928,-4.8909,-4.8909,-4.8909,-4.8574,-4.7776,-4.6791,-4.5862,-4.5045,-4.4376,-4.4005,-4.4005,-4.4005,-4.3912,-4.3726,-4.25,-4.1386,-4.0401,-3.9462,-3.8979,-3.895,-3.8224,-3.8203,-2.6132,-2.773,-2.957,-2.9664,-2.9907,0.0,0.0,0.0,0.0,0.0,0.0,0.0,0.0,0.0,0.0,0.0,-3.6827,0.0,0.0,0.0,0.0,0.0,0.0,0.0,0.0,0.0,0.0,0.0,0.0,0.0,0.0,-5.929,-5.9309,-5.929,-5.929,-5.929,-5.929,-5.9121,-5.8947,-5.8788,-5.8624,-5.8344,-5.8006,-5.8006,-5.8006,0.0,0.0,0.0,-5.7026,-5.6043,-5.5349,-5.4865,-5.3726,-5.3281,-5.3199,-5.2671,-5.2498,-5.2544,-5.2663,-5.2806,-5.2944,-5.3115,-5.3281,-5.3444,-5.3584,-5.3998,-5.4298,-5.3754,-5.3738,-5.387,-5.387,-5.387,-5.3907,-5.4072,-5.4108,-5.4198,-5.4356,-5.4409,-5.4409,-5.4409,-5.4409,-5.4409,-5.434,-5.4324,-5.3973,-5.2989,-5.2449,-5.1651,-5.0354,-4.9815,-4.9371,-4.8946,-4.8909,-4.8723,-4.8296,-4.7163,-4.616,-4.5342,-4.4488,-4.4005,-4.4005,-4.4005,-4.4005,-4.4005,-4.2779,-4.1943,-4.1497,-4.0261,-3.961,-3.9515,-3.8662,-3.8427,-2.6151,-2.8575,-3.0828,-2.9777,-3.0189,-3.0827,0.0,0.0,0.0,0.0,0.0,0.0,0.0,0.0,0.0,0.0,0.0,0.0,0.0,0.0,0.0,0.0,0.0,0.0,0.0,0.0,0.0,0.0,0.0,0.0,0.0,-5.9309,-5.9272,-5.9253,-5.9272,-5.929,-5.9272,-5.929,-5.9178,-5.8847,-5.8868,-5.8706,-5.8388,-5.8388,-5.8388,-5.8351,0.0,0.0,-5.7172,-5.6321,-5.5914,-5.5665,-5.4516,-5.4074,-5.3939,-5.2971,-5.2645,-5.269,-5.298,-5.3198,-5.3407,-5.3447,-5.3662,-5.3907,-5.3944,-5.463,-5.5203,-5.4259,-5.4385,-5.4784,-5.4784,-5.4784,-5.4784,-5.4784,-5.4672,-5.4578,-5.4578,-5.4484,-5.4409,-5.4409,-5.4409,-5.4409,-5.4409,-5.434,-5.4046,-5.3315,-5.3022,-5.2373,-5.0903,-5.0589,-5.0145,-4.9203,-4.9129,-4.9039,-4.8909,-4.7534,-4.6345,-4.5528,-4.4544,-4.4005,-4.4005,-4.4005,-4.4005,-4.4005,-4.3206,-4.2797,-4.2797,-4.1311,-4.0465,-4.0211,-3.9526,-3.905,-2.6829,-2.9401,-3.1391,-2.9139,-2.9644,-3.0519,0.0,0.0,0.0,0.0,0.0,0.0,0.0,0.0,0.0,0.0,0.0,0.0,0.0,0.0,0.0,0.0,0.0,0.0,0.0,0.0,0.0,0.0,0.0,0.0,0.0,-5.9309,-5.9234,-5.9065,-5.9215,-5.9271,-5.9234,-5.9272,-5.9234,-5.9139,-5.9196,-5.9044,-5.8706,-5.8706,-5.8706,-5.8706,0.0,-5.8308,-5.7885,-5.6759,-5.5936,-5.517,-5.3983,-5.3511,-5.3511,-5.3341,-5.3244,-5.3244,-5.3326,-5.3367,-5.3447,-5.3738,-5.387,-5.3944,-5.4233,-5.445,-5.4559,-5.4359,-5.5369,-5.6512,-5.6512,-5.6512,-5.6512,-5.6512,-5.5948,-5.5441,-5.5441,-5.4878,-5.4409,-5.4409,-5.4409,-5.4409,-5.4409,-5.4409,-5.4337,-5.4121,-5.3465,-5.2888,-5.2522,-5.1906,-5.1124,-5.0182,-5.0089,-4.9775,-4.8964,-4.8054,-4.7163,-4.6364,-4.4859,-4.4005,-4.4005,-4.4005,-4.4005,-4.4005,-4.3206,-4.2797,-4.2797,-4.1869,-4.1051,-4.0354,-4.0129,-3.9645,-2.6451,-2.8631,-3.0527,-2.9401,-3.0938,0.0,0.0,0.0,0.0,0.0,0.0,0.0,0.0,0.0,0.0,0.0,0.0,0.0,0.0,0.0,0.0,0.0,0.0,0.0,0.0,0.0,0.0,0.0,0.0,0.0,0.0,0.0,-5.9159,-5.884,-5.8915,-5.9026,-5.9137,-5.8765,-5.8559,-5.8615,-5.9065,-5.899,-5.8427,-5.8895,-5.9082,-5.9064,0.0,-5.8035,-5.7431,-5.6874,-5.6182,-5.5359,-5.467,-5.4387,-5.4292,-5.3653,-5.3526,-5.3662,-5.3662,-5.3776,-5.3981,-5.4108,-5.4144,-5.4198,-5.4356,-5.4709,-5.5066,-5.5066,-5.561,-5.6099,-5.5667,-5.5873,-5.6211,-5.6211,-5.5911,-5.5742,-5.6211,-5.5648,-5.5066,-5.5066,-5.4709,-5.4409,-5.4409,-5.4409,-5.4409,-5.4359,-5.4003,-5.3556,-5.3019,-5.261,-5.2068,-5.1143,-5.0589,-5.0126,-4.97,-4.846,-4.7163,-4.5918,-4.4692,-4.4005,-4.4005,-4.4005,-4.4005,-4.4005,-4.3633,-4.3448,-4.3448,-4.263,-4.2054,-4.1683,-4.1189,-4.0481,-2.6714,-2.8387,-2.9983,0.0,0.0,0.0,0.0,0.0,0.0,0.0,0.0,0.0,0.0,0.0,0.0,0.0,0.0,0.0,0.0,0.0,0.0,0.0,0.0,0.0,0.0,0.0,0.0,0.0,0.0,0.0,0.0,0.0,-5.9159,-5.884,-5.8802,-5.8743,-5.8628,-5.8333,-5.8259,-5.8315,-5.8784,-5.8802,-5.8408,-5.9027,-5.9196,-5.899,-5.837,-5.7544,-5.6605,-5.6605,-5.6099,-5.5294,-5.508,-5.5025,-5.4895,-5.398,-5.3776,-5.4036,-5.4036,-5.4198,-5.4409,-5.4409,-5.4409,-5.4409,-5.4409,-5.4841,-5.5329,-5.5329,-5.546,-5.5516,-5.5085,-5.5441,-5.5967,-5.6155,-5.6061,-5.6155,-5.7,-5.6512,-5.5854,-5.5648,-5.5103,-5.4615,-5.4428,-5.4409,-5.4409,-5.4409,-5.4409,-5.4131,-5.3406,-5.3331,-5.2978,-5.2105,-5.1196,-5.0493,-5.0051,-4.8606,-4.7163,-4.5937,-4.4878,-4.4302,-4.4302,-4.4116,-4.4005,-4.4005,-4.4005,-4.4005,-4.4005,-4.3373,-4.2983,-4.2797,-4.2166,-4.1393,-2.88,-3.0114,-3.0828,-3.0828,0.0,0.0,0.0,0.0,0.0,0.0,0.0,0.0,0.0,0.0,0.0,0.0,0.0,0.0,0.0,0.0,0.0,0.0,0.0,0.0,0.0,0.0,0.0,0.0,0.0,0.0,0.0,0.0,0.0,-5.9248,-5.9073,-5.8415,-5.7258,-5.8482,-5.9045,-5.893,-5.8409,-5.8558,-5.9215,-5.9271,-5.8896,-5.8182,-5.8145,-5.7187,-5.5704,-5.5704,-5.5235,-5.4484,-5.445,-5.445,-5.445,-5.4375,-5.4356,-5.4356,-5.4356,-5.4356,-5.4409,-5.4409,-5.4409,-5.4409,-5.4409,-5.4446,-5.4484,-5.4484,-5.5028,-5.5779,-5.653,-5.6756,-5.6981,-5.7751,-5.7356,-5.7037,-5.7845,-5.7375,-5.6568,-5.5779,-5.5573,-5.5291,-5.454,-5.4409,-5.4409,-5.4409,-5.4409,-5.439,-5.4315,-5.4315,-5.3943,-5.3016,-5.2192,-5.102,-4.9325,-4.8255,-4.7646,-4.7534,-4.6067,-4.5212,-4.5212,-4.4432,-4.4005,-4.4005,-4.4005,-4.4005,-4.4005,-4.3949,-4.3522,-4.2797,-4.2742,-4.2277,-2.85,-3.0246,-3.1654,-3.1654,0.0,0.0,0.0,0.0,0.0,0.0,0.0,0.0,0.0,0.0,0.0,0.0,0.0,0.0,0.0,0.0,0.0,0.0,0.0,0.0,0.0,0.0,0.0,0.0,0.0,0.0,0.0,0.0,0.0,-5.8934,-5.8859,-5.8145,-5.6794,-5.6893,-5.7192,-5.7585,-5.7922,-5.7713,-5.7018,-5.7563,-5.7638,-5.7319,-5.6793,-5.6211,-5.5573,-5.5066,-5.4672,-5.4409,-5.4409,-5.4409,-5.4409,-5.4409,-5.4409,-5.4409,-5.4409,-5.4409,-5.4409,-5.4409,-5.4409,-5.4409,-5.4409,-5.4409,-5.4409,-5.4409,-5.4615,-5.4934,-5.5254,-5.5723,-5.6305,-5.715,-5.6718,-5.6605,-5.8445,-5.7413,-5.6305,-5.7037,-5.5911,-5.4934,-5.5122,-5.4728,-5.4409,-5.4409,-5.4409,-5.4409,-5.4409,-5.4409,-5.409,-5.323,-5.1869,-5.0549,-4.9276,-4.8803,-4.855,-4.855,-4.6973,-4.5807,-4.5324,-4.4971,-4.4544,-4.4005,-4.4005,-4.4005,-4.4005,-4.4005,-4.3838,-4.3559,-4.3559,-4.3113,-2.8519,-2.9852,-3.1072,-3.1598,0.0,0.0,0.0,0.0,0.0,0.0,0.0,0.0,0.0,0.0,0.0,0.0,0.0,0.0,0.0,0.0,0.0,0.0,0.0,0.0,0.0,0.0,0.0,0.0,0.0,0.0,0.0,0.0,0.0,0.0,-5.824,-5.7791,-5.5901,-5.5734,-5.5564,-5.5432,-5.6684,-5.6868,-5.6042,-5.6624,-5.6756,-5.6455,-5.5873,-5.5479,-5.5197,-5.4634,-5.4409,-5.4409,-5.4409,-5.4409,-5.4409,-5.4409,-5.4409,-5.4409,-5.4409,-5.4409,-5.4409,-5.4409,-5.4409,-5.4409,-5.4409,-5.4409,-5.4409,-5.4409,-5.4409,-5.4409,-5.4409,-5.4822,-5.5441,-5.6286,-5.6042,-5.6155,-5.8126,-5.7206,-5.6286,-5.715,-5.5948,-5.4878,-5.5179,-5.4766,-5.4409,-5.4409,-5.4409,-5.4409,-5.4409,-5.4409,-5.409,-5.3282,-5.1884,-5.0605,-4.973,-4.9332,-4.9116,-4.9101,-4.7973,-4.6936,-4.6085,-4.5565,-4.5008,-4.4413,-4.4135,-4.4005,-4.4005,-4.4005,-4.4005,-4.4005,-4.4005,-4.3708,-2.9232,-2.9082,-2.8838,-3.0508,0.0,0.0,0.0,0.0,0.0,0.0,0.0,0.0,0.0,0.0,0.0,0.0,0.0,0.0,0.0,0.0,0.0,0.0,0.0,0.0,0.0,0.0,0.0,0.0,0.0,0.0,0.0,0.0,0.0,0.0,-5.7174,-5.7305,-5.4429,-5.5323,-5.4705,-5.2626,-5.464,-5.6042,-5.6849,-5.6868,-5.6418,-5.561,-5.5592,-5.5141,-5.4409,-5.439,-5.439,-5.4409,-5.439,-5.439,-5.4409,-5.4409,-5.4409,-5.4409,-5.4409,-5.4409,-5.4409,-5.4409,-5.4409,-5.4409,-5.4409,-5.4409,-5.4409,-5.4409,-5.4409,-5.4409,-5.4409,-5.4409,-5.4597,-5.5423,-5.561,-5.5836,-5.6718,-5.6887,-5.6624,-5.5798,-5.561,-5.5348,-5.4559,-5.4409,-5.4409,-5.4409,-5.4409,-5.4409,-5.4409,-5.439,-5.4071,-5.3282,-5.2353,-5.1462,-5.0675,-4.9749,-4.9164,-4.9101,-4.9101,-4.8695,-4.7738,-4.616,-4.5324,-4.5287,-4.4451,-4.4005,-4.3986,-4.4005,-4.4005,-4.3986,-4.4005,-4.4005,-2.9232,-3.034,0.0,0.0,0.0,0.0,0.0,0.0,0.0,0.0,0.0,0.0,0.0,0.0,0.0,0.0,0.0,0.0,0.0,0.0,0.0,0.0,0.0,0.0,0.0,0.0,0.0,0.0,0.0,0.0,0.0,0.0,0.0,0.0,-5.5242,-5.5261,-5.4408,-5.4683,-5.449,-5.3887,-5.445,-5.4597,-5.4315,-5.4878,-5.501,-5.4728,-5.4165,-5.409,-5.4352,-5.3789,-5.3883,-5.4334,-5.377,-5.3902,-5.4409,-5.4409,-5.4409,-5.4409,-5.4409,-5.4409,-5.4409,-5.4409,-5.4409,-5.4409,-5.4409,-5.4409,-5.4409,-5.4409,-5.4409,-5.4409,-5.4409,-5.4409,-5.4597,-5.5423,-5.5179,-5.516,-5.6587,-5.5967,-5.5404,-5.6343,-5.5554,-5.4859,-5.5197,-5.4766,-5.4409,-5.4409,-5.4409,-5.4409,-5.4409,-5.3902,-5.3451,-5.3207,-5.1912,-5.0922,-5.0697,-4.9827,-4.9276,-4.9244,-4.9197,-4.8725,-4.7738,-4.7237,-4.6457,-4.5324,-4.5045,-4.4724,-4.426,-4.4091,-4.4109,-4.4279,-4.4109,-4.4005,-2.8744,0.0,0.0,0.0,0.0,0.0,0.0,0.0,0.0,0.0,0.0,0.0,0.0,0.0,0.0,0.0,0.0,0.0,0.0,0.0,0.0,0.0,0.0,0.0,0.0,0.0,0.0,0.0,0.0,0.0,0.0,0.0,0.0,0.0,-5.4393,-5.4412,-5.4402,-5.4412,-5.4183,-5.3733,-5.4183,-5.3977,-5.3207,-5.3695,-5.3921,-5.3883,-5.3038,-5.2963,-5.3376,-5.2869,-5.2963,-5.3395,-5.3245,-5.3489,-5.3958,-5.4277,-5.4409,-5.4409,-5.4409,-5.4409,-5.4409,-5.4409,-5.4409,-5.4409,-5.4409,-5.4409,-5.4409,-5.4409,-5.4409,-5.4409,-5.4409,-5.4409,-5.4521,-5.501,-5.4747,-5.4672,-5.5685,-5.5103,-5.469,-5.5704,-5.5085,-5.4559,-5.5047,-5.4728,-5.4409,-5.4409,-5.4409,-5.4409,-5.4409,-5.3977,-5.3677,-5.3677,-5.2475,-5.1686,-5.1686,-5.0866,-5.0183,-4.9832,-4.98,-4.9295,-4.8308,-4.7902,-4.7122,-4.5788,-4.5454,-4.4997,-4.4383,-4.425,-4.425,-4.4402,-4.425,-4.4091,0.0,0.0,0.0,0.0,0.0,0.0,0.0,0.0,0.0,0.0,0.0,0.0,0.0,0.0,0.0,0.0,0.0,0.0,0.0,0.0,0.0,0.0,0.0,0.0,0.0,0.0,0.0,0.0,0.0,0.0,0.0,0.0,0.0,-5.4378,-5.4386,-5.439,-5.439,-5.424,-5.3695,-5.2705,-5.3714,-5.3789,-5.3076,-5.3226,-5.3264,-5.3151,-5.2362,-5.1968,-5.1893,-5.1818,-5.1837,-5.1968,-5.2682,-5.3001,-5.3151,-5.3902,-5.4221,-5.4296,-5.4296,-5.4334,-5.4409,-5.4409,-5.4409,-5.4409,-5.4409,-5.4409,-5.4409,-5.4409,-5.4409,-5.4409,-5.4409,-5.4409,-5.4409,-5.4409,-5.4409,-5.4409,-5.4409,-5.4409,-5.4409,-5.4409,-5.4409,-5.4409,-5.4409,-5.4409,-5.4409,-5.4409,-5.4409,-5.4409,-5.4409,-5.4409,-5.4409,-5.4409,-5.3677,-5.3188,-5.3188,-5.2325,-5.1448,-5.0638,-5.0525,-5.0085,-4.9172,-4.8356,-4.7485,-4.6513,-4.5802,-4.5114,-4.4438,-4.4438,-4.4438,-4.4465,-4.4438,-4.4308,0.0,0.0,0.0,0.0,0.0,0.0,0.0,0.0,0.0,0.0,0.0,0.0,0.0,0.0,0.0,0.0,0.0,0.0,0.0,0.0,0.0,0.0,0.0,0.0,0.0,0.0,0.0,0.0,0.0,0.0,0.0,0.0,0.0,-5.4331,-5.4406,-5.4411,-5.4382,-5.3109,-5.2531,0.0,-5.2531,-5.2344,-5.2212,-5.3545,-5.3789,-5.317,-5.2982,-5.2531,-5.1855,-5.1217,-5.133,-5.1855,-5.1405,-5.1611,-5.2193,-5.2381,-5.2869,-5.3451,-5.3451,-5.3864,-5.4409,-5.4409,-5.4409,-5.4409,-5.4409,-5.4409,-5.4409,-5.4409,-5.4409,-5.4409,-5.4409,-5.4409,-5.4409,-5.4409,-5.4409,-5.4409,-5.4409,-5.4409,-5.4409,-5.4409,-5.4409,-5.4409,-5.4409,-5.4409,-5.4409,-5.4409,-5.4409,-5.4409,-5.4409,-5.4409,-5.4409,-5.4409,-5.3677,-5.3188,-5.3188,-5.1818,-5.0879,-5.0678,-5.0078,-4.9596,-4.9262,-4.8982,-4.81,-4.6531,-4.6545,-4.5933,-4.4701,-4.4701,-4.4825,-4.5011,-4.48,-4.4676,0.0,0.0,0.0,0.0,0.0,0.0,0.0,0.0,0.0,0.0,0.0,0.0,0.0,0.0,0.0,0.0,0.0,0.0,0.0,0.0,0.0,0.0,0.0,0.0,0.0,0.0,0.0,0.0,0.0,0.0,0.0,-5.0416,-5.0266,-5.1983,-5.2027,-5.1675,-5.0866,-5.0804,-5.0898,-5.118,-5.0879,-5.0748,-5.0804,-5.2456,-5.2757,-5.1987,-5.1987,-5.1518,-5.0729,-5.0297,-5.0372,-5.0748,-5.071,-5.0954,-5.1367,-5.1762,-5.2456,-5.3132,-5.2719,-5.3132,-5.3827,-5.3827,-5.3827,-5.3902,-5.4277,-5.4409,-5.4409,-5.4409,-5.4409,-5.4409,-5.4409,-5.4409,-5.4409,-5.4409,-5.4409,-5.4409,-5.4409,-5.4409,-5.4409,-5.4409,-5.4409,-5.4409,-5.4409,-5.4409,-5.4409,-5.4409,-5.4409,-5.4409,-5.4409,-5.4409,-5.4409,-5.4409,-5.4015,-5.3601,-5.3207,-5.2381,-5.16,-5.0926,-5.0522,-5.007,-4.9627,-4.9488,-4.8534,-4.6763,-4.6829,-4.6269,-4.5007,-4.5007,-4.5052,-4.5201,-4.5052,-4.4919,0.0,0.0,0.0,0.0,0.0,0.0,0.0,0.0,0.0,0.0,0.0,0.0,0.0,0.0,0.0,0.0,0.0,0.0,0.0,0.0,0.0,0.0,0.0,0.0,0.0,0.0,0.0,0.0,0.0,0.0,-4.8659,-4.864,-4.8652,-4.8657,-4.8652,-4.796,-4.6564,-4.7922,-4.8858,-4.9265,-4.9133,-4.9133,-4.9321,-5.0654,-5.0973,-5.0466,-5.0316,-4.9884,-4.9283,-4.9283,-4.9283,-4.9358,-5.0166,-5.0485,-5.056,-5.1236,-5.2024,-5.2663,-5.1931,-5.225,-5.2982,-5.3132,-5.3188,-5.3339,-5.4165,-5.4409,-5.4409,-5.4409,-5.4409,-5.4409,-5.4409,-5.4409,-5.4409,-5.4409,-5.4409,-5.4409,-5.4409,-5.4409,-5.4409,-5.4409,-5.4409,-5.4409,-5.4409,-5.4409,-5.4409,-5.4409,-5.4409,-5.4409,-5.4409,-5.4409,-5.4409,-5.4409,-5.4409,-5.4127,-5.3451,-5.3132,-5.2523,-5.1386,-5.1054,-5.0624,-5.0057,-4.9857,-4.8918,-4.72,-4.7043,-4.6358,-4.5118,-4.5222,-4.5263,-4.5263,-4.5263,-4.514,0.0,0.0,0.0,0.0,0.0,0.0,0.0,0.0,0.0,0.0,0.0,0.0,0.0,0.0,0.0,0.0,0.0,0.0,0.0,0.0,0.0,0.0,0.0,0.0,0.0,0.0,0.0,0.0,0.0,0.0,-4.5312,-4.5177,-4.5183,-4.5183,-4.5183,-4.5059,-4.4823,-4.5046,-4.6263,-4.8363,-4.7669,-4.7706,-4.8382,-4.8589,-4.9039,-4.9621,-4.8852,-4.8457,-4.8363,-4.8363,-4.8363,-4.8457,-4.9321,-4.9659,-4.9678,-4.979,-5.0335,-5.1011,-5.0898,-5.1386,-5.2193,-5.2944,-5.3188,-5.3339,-5.4165,-5.4409,-5.4409,-5.4409,-5.4409,-5.4409,-5.4409,-5.4409,-5.4409,-5.4409,-5.4409,-5.4409,-5.4409,-5.4409,-5.4409,-5.4409,-5.4409,-5.4409,-5.4409,-5.4409,-5.4409,-5.4409,-5.4409,-5.4409,-5.4409,-5.4409,-5.4409,-5.4409,-5.4409,-5.4352,-5.424,-5.2907,-5.2077,-5.2144,-5.0789,-5.0024,-5.0159,-5.0043,-4.9262,-4.7805,-4.7471,-4.6512,-4.4849,-4.5322,-4.555,-4.555,-4.555,-4.5513,0.0,0.0,0.0,0.0,0.0,0.0,0.0,0.0,0.0,0.0,0.0,0.0,0.0,0.0,0.0,0.0,0.0,0.0,0.0,0.0,0.0,0.0,0.0,0.0,0.0,0.0,0.0,0.0,0.0,-4.6885,-4.729,-4.7309,-4.729,-4.7312,-4.732,-4.6859,-4.5921,-4.4972,-4.5057,-4.6129,-4.5772,-4.5791,-4.6129,-4.6129,-4.7087,-4.8739,-4.8363,-4.7932,-4.7537,-4.7537,-4.7781,-4.8232,-4.8626,-4.9077,-4.9509,-4.9509,-5.0016,-5.0635,-5.0166,-5.0541,-5.1292,-5.1668,-5.178,-5.1949,-5.2757,-5.3339,-5.3714,-5.3714,-5.4052,-5.4409,-5.4409,-5.4409,-5.4409,-5.4409,-5.4409,-5.4409,-5.4409,-5.4409,-5.4409,-5.4409,-5.4409,-5.4409,-5.4409,-5.4409,-5.4409,-5.4409,-5.4409,-5.4409,-5.4409,-5.4519,-5.4629,-5.4629,-5.4746,-5.4676,-5.4202,-5.3044,-5.2243,-5.2026,-5.0903,-5.0342,-5.0567,-5.0404,-4.9743,-4.8579,-4.7907,-4.6816,-4.5243,-4.5495,-4.5586,-4.5586,-4.5586,-4.5586,0.0,0.0,0.0,0.0,0.0,0.0,0.0,0.0,0.0,0.0,0.0,0.0,0.0,0.0,0.0,0.0,0.0,0.0,0.0,0.0,0.0,0.0,0.0,0.0,0.0,0.0,0.0,0.0,0.0,-4.6877,-4.9378,-4.9491,-4.9483,-4.9485,-4.8681,-4.7843,-4.7005,-4.5341,-4.4496,-4.4515,-4.4515,-4.4515,-4.4515,-4.4515,-4.551,-4.7256,-4.7256,-4.6918,-4.6392,-4.6599,-4.703,-4.7594,-4.78,-4.842,-4.9208,-4.9415,-4.9884,-5.0335,-4.994,-5.0053,-5.0429,-5.0616,-5.0691,-5.0842,-5.1668,-5.2344,-5.2907,-5.3132,-5.362,-5.4127,-5.4352,-5.4409,-5.4409,-5.4409,-5.4409,-5.4409,-5.4409,-5.4458,-5.4505,-5.4505,-5.4505,-5.4505,-5.4505,-5.4458,-5.4409,-5.4409,-5.4458,-5.4505,-5.4505,-5.4735,-5.4905,-5.4905,-5.508,-5.4944,-5.4377,-5.3511,-5.2771,-5.2163,-5.1356,-5.0894,-5.0916,-5.072,-5.0048,-4.8912,-4.8198,-4.7163,-4.5821,-4.5664,-4.5586,-4.5586,-4.5586,-4.5586,0.0,0.0,0.0,0.0,0.0,0.0,0.0,0.0,0.0,0.0,0.0,0.0,0.0,0.0,0.0,0.0,0.0,0.0,0.0,0.0,0.0,0.0,0.0,0.0,0.0,0.0,0.0,0.0,0.0,-4.9313,-4.9495,-4.9521,-4.9499,-4.9502,-4.6409,-4.5479,-4.6967,-4.535,-4.4515,-4.4515,-4.4515,-4.4515,-4.4515,-4.4515,-4.459,-4.4702,-4.4702,-4.4684,-4.4702,-4.5453,-4.5791,-4.5904,-4.6749,-4.7556,-4.8363,-4.9208,-4.9527,-4.9678,-5.0391,-5.0166,-4.9696,-5.0447,-5.0691,-5.0842,-5.1668,-5.1931,-5.2137,-5.2963,-5.3207,-5.3433,-5.4202,-5.4409,-5.4409,-5.4409,-5.4409,-5.4409,-5.4409,-5.4597,-5.4776,-5.4776,-5.4776,-5.4776,-5.4776,-5.4584,-5.4409,-5.4409,-5.4629,-5.4776,-5.4776,-5.5026,-5.5167,-5.5167,-5.5193,-5.5174,-5.5135,-5.4415,-5.3671,-5.3067,-5.2222,-5.149,-5.0929,-5.0897,-5.0072,-4.8372,-4.8232,-4.7607,-4.6466,-4.5879,-4.5586,-4.5586,-4.5586,-4.5586,0.0,0.0,0.0,0.0,0.0,0.0,0.0,0.0,0.0,0.0,0.0,0.0,0.0,0.0,0.0,0.0,0.0,0.0,0.0,0.0,0.0,0.0,0.0,0.0,0.0,0.0,0.0,0.0,0.0,0.0,-4.94,-4.7457,-4.628,-4.6281,-4.5143,-4.427,-4.3812,-4.428,-4.397,-4.2919,-4.4008,-4.4233,-4.3745,-4.4271,-4.4515,-4.4515,-4.4515,-4.4515,-4.4533,-4.4815,-4.5228,-4.5735,-4.6035,-4.6993,-4.8232,-4.8551,-4.902,-4.9546,-4.9828,-4.9734,-4.9546,-4.9828,-4.9922,-4.9978,-5.0278,-5.071,-5.1292,-5.2137,-5.2757,-5.3376,-5.4183,-5.4409,-5.4409,-5.4409,-5.4409,-5.4409,-5.4409,-5.4597,-5.4806,-5.4806,-5.4933,-5.5053,-5.5053,-5.4971,-5.4914,-5.4914,-5.4998,-5.5053,-5.5053,-5.5293,-5.5455,-5.5455,-5.5607,-5.569,-5.569,-5.4978,-5.4169,-5.3414,-5.2526,-5.1711,-5.0929,-5.0897,-5.0339,-4.9161,-4.8571,-4.7503,-4.5993,-4.5722,-4.5586,-4.5586,-4.5586,-4.5586,0.0,0.0,0.0,0.0,0.0,0.0,0.0,0.0,0.0,0.0,0.0,0.0,0.0,0.0,0.0,0.0,0.0,0.0,0.0,0.0,0.0,0.0,0.0,0.0,0.0,0.0,0.0,0.0,0.0,0.0,-4.6072,-4.4064,-4.2856,-4.2862,-4.3914,-4.3961,-4.2837,-4.3202,-4.3023,-4.2299,-4.3238,-4.3388,-4.29,-4.3726,-4.4102,-4.412,-4.4383,-4.4515,-4.4515,-4.4515,-4.4815,-4.5303,-4.5303,-4.6148,-4.7425,-4.7988,-4.857,-4.9171,-5.0016,-4.9959,-4.9546,-4.9809,-4.9715,-4.9509,-4.9509,-4.9865,-5.0447,-5.1273,-5.21,-5.2944,-5.377,-5.4202,-5.4409,-5.4409,-5.4472,-5.4519,-5.4519,-5.4746,-5.4914,-5.4914,-5.5141,-5.5341,-5.5341,-5.5268,-5.5193,-5.5193,-5.5268,-5.5341,-5.5341,-5.5566,-5.573,-5.573,-5.5902,-5.6012,-5.6012,-5.5258,-5.4426,-5.3556,-5.2685,-5.1815,-5.0945,-5.0893,-5.0491,-4.9641,-4.8759,-4.759,-4.615,-4.5791,-4.5622,-4.5586,-4.5586,-4.5586,0.0,0.0,0.0,0.0,0.0,0.0,0.0,0.0,0.0,0.0,0.0,0.0,0.0,0.0,0.0,0.0,0.0,0.0,0.0,0.0,0.0,0.0,0.0,0.0,0.0,0.0,0.0,0.0,0.0,-3.96,-3.9597,-3.9581,-3.96,-3.9597,-4.2709,-4.4357,-4.4357,-4.2224,-4.171,-4.2803,-4.2243,-4.1954,-4.1972,-4.2881,-4.3257,-4.3313,-4.412,-4.4477,-4.4477,-4.4496,-4.4515,-4.4515,-4.4515,-4.5003,-4.5904,-4.7519,-4.8157,-4.8532,-5.0954,-5.0767,-4.9584,-5.0391,-5.0109,-4.9471,-4.949,-4.9509,-4.9678,-5.0466,-5.1255,-5.2081,-5.2963,-5.377,-5.4371,-5.439,-5.4597,-5.4806,-5.4806,-5.5026,-5.5218,-5.5218,-5.5431,-5.5607,-5.5607,-5.5408,-5.5218,-5.5218,-5.5455,-5.5607,-5.5607,-5.5827,-5.6012,-5.6012,-5.5993,-5.5973,-5.5973,-5.5238,-5.4387,-5.3517,-5.2666,-5.1815,-5.0945,-5.0906,-5.0519,-4.9726,-4.8787,-4.787,-4.7008,-4.613,-4.5676,-4.5586,-4.5586,-4.5586,-2.5756,0.0,0.0,0.0,0.0,0.0,0.0,0.0,0.0,0.0,0.0,0.0,0.0,0.0,0.0,0.0,0.0,0.0,0.0,0.0,0.0,0.0,0.0,0.0,0.0,0.0,0.0,0.0,-3.9602,-3.9602,-3.9602,-3.9602,-3.9614,-3.96,-4.0483,-4.0959,-4.0959,-4.0356,-4.0207,-4.0522,-4.1128,-4.1308,-4.1173,-4.198,-4.2374,-4.2412,-4.3257,-4.3632,-4.3688,-4.4271,-4.4515,-4.4515,-4.4515,-4.5003,-4.5754,-4.6223,-4.7162,-4.8288,-4.8983,-4.8927,-4.8701,-4.9546,-4.9246,-4.8683,-4.9302,-4.9509,-4.9678,-5.0466,-5.0842,-5.1367,-5.2813,-5.3357,-5.3724,-5.451,-5.4765,-5.4847,-5.5053,-5.5293,-5.55,-5.55,-5.571,-5.5884,-5.5884,-5.5827,-5.5769,-5.5769,-5.5846,-5.5884,-5.5884,-5.5958,-5.6012,-5.6012,-5.549,-5.5122,-5.5122,-5.4349,-5.3478,-5.2608,-5.2318,-5.1815,-5.0945,-5.0906,-5.0519,-4.9726,-4.8821,-4.7936,-4.7059,-4.6159,-4.5671,-4.5586,-4.5586,-4.5586,0.0,0.0,0.0,0.0,0.0,0.0,-2.7975,-2.9213,0.0,0.0,0.0,0.0,0.0,0.0,0.0,0.0,0.0,0.0,0.0,0.0,0.0,0.0,0.0,0.0,0.0,0.0,0.0,-3.9599,-3.9595,-3.9595,-3.9588,-3.9607,-3.9602,-3.9602,-3.9602,-3.9602,-3.9602,-3.9589,-3.9595,-3.962,-4.0352,-4.0608,-4.0443,-4.135,-4.1704,-4.1682,-4.2888,-4.3382,-4.3351,-4.4177,-4.4515,-4.4515,-4.4515,-4.4796,-4.5247,-4.5585,-4.6542,-4.7744,-4.8082,-4.8194,-4.8326,-4.9227,-4.8908,-4.8363,-4.9246,-4.9509,-4.9602,-5.0072,-5.0429,-5.1024,-5.246,-5.2831,-5.3006,-5.3737,-5.3998,-5.4136,-5.4283,-5.4528,-5.4901,-5.5493,-5.5827,-5.6012,-5.6012,-5.6012,-5.6012,-5.6012,-5.6012,-5.6012,-5.6012,-5.5722,-5.5625,-5.5973,-5.4948,-5.4407,-5.4774,-5.3672,-5.2743,-5.2221,-5.1854,-5.1428,-5.0925,-5.0906,-5.0693,-5.021,-4.9378,-4.8319,-4.7105,-4.619,-4.5703,-4.564,-4.564,-4.5622,0.0,0.0,0.0,0.0,0.0,0.0,-2.7636,-2.8631,-2.9701,0.0,0.0,0.0,0.0,0.0,0.0,0.0,0.0,0.0,0.0,0.0,0.0,0.0,0.0,0.0,0.0,-3.8506,-3.9138,-3.9358,-3.9172,-3.9039,-3.9044,-3.9402,-3.9604,-3.9613,-3.9607,-3.9602,-3.9602,-3.9602,-3.9602,-3.9602,-3.9879,-3.997,-3.9933,-4.0862,-4.1166,-4.1089,-4.2682,-4.3321,-4.3307,-4.4089,-4.4476,-4.4515,-4.4515,-4.4515,-4.459,-4.5303,-4.611,-4.6955,-4.7669,-4.7913,-4.8063,-4.8945,-4.8701,-4.8232,-4.9096,-4.9415,-4.9509,-4.9509,-5.0028,-5.0835,-5.1878,-5.2172,-5.2303,-5.266,-5.2935,-5.3106,-5.3127,-5.3319,-5.3872,-5.5132,-5.5634,-5.5896,-5.5993,-5.6012,-5.6012,-5.6012,-5.6012,-5.6012,-5.6012,-5.5296,-5.5103,-5.5915,-5.4503,-5.3807,-5.4581,-5.3149,-5.2163,-5.2047,-5.1331,-5.0906,-5.0906,-5.0906,-5.0906,-5.0906,-5.0113,-4.8894,-4.7231,-4.6356,-4.5851,-4.5709,-4.5693,-4.5657,0.0,0.0,0.0,0.0,0.0,0.0,-2.9251,-2.9457,-2.9738,0.0,0.0,0.0,0.0,0.0,0.0,0.0,0.0,0.0,0.0,0.0,0.0,0.0,0.0,0.0,0.0,-3.5844,-3.6249,-3.7867,-3.6474,-3.5589,-3.5571,-3.8133,-3.9591,-3.9586,-3.9607,-3.9609,-3.9594,-3.9594,-3.9588,-3.9602,-3.9879,-3.997,-3.9914,-4.0253,-4.0406,-4.0425,-4.1416,-4.2216,-4.2878,-4.3678,-4.4208,-4.4515,-4.4515,-4.4515,-4.4533,-4.4684,-4.5247,-4.5979,-4.6129,-4.6186,-4.6336,-4.7199,-4.7368,-4.7387,-4.8213,-4.8945,-4.9509,-4.9509,-4.9728,-5.0175,-5.1102,-5.1464,-5.1825,-5.2787,-5.3065,-5.3166,-5.3374,-5.3462,-5.3594,-5.3853,-5.4525,-5.5238,-5.5896,-5.6012,-5.6012,-5.6012,-5.6012,-5.6012,-5.6012,-5.5296,-5.5103,-5.5915,-5.4503,-5.3575,-5.373,-5.2801,-5.1892,-5.1196,-5.1003,-5.0906,-5.0906,-5.0906,-5.0906,-5.0906,-5.0113,-4.9184,-4.814,-4.7163,-4.6359,-4.57,-4.5637,-4.5603,0.0,0.0,0.0,-2.8388,0.0,0.0,0.0,-2.9382,-2.9719,0.0,0.0,0.0,0.0,0.0,0.0,0.0,0.0,0.0,0.0,0.0,0.0,0.0,0.0,0.0,0.0,-3.2656,-3.2902,-3.4716,-3.345,-3.3353,-3.5059,-3.8347,-3.9261,-3.7166,-3.7106,-3.7102,-3.7119,-3.8755,-3.9707,-3.9895,-4.0024,-4.0119,-4.0214,-4.0425,-4.0441,-4.0377,-4.1203,-4.1742,-4.2106,-4.2927,-4.364,-4.4245,-4.4537,-4.4655,-4.4648,-4.4551,-4.5021,-4.5641,-4.5247,-4.5359,-4.5772,-4.6204,-4.6354,-4.658,-4.7819,-4.8878,-4.9683,-4.9805,-4.9929,-5.0133,-5.0694,-5.0948,-5.1156,-5.1837,-5.199,-5.2045,-5.2166,-5.2202,-5.2337,-5.2763,-5.3556,-5.4426,-5.5258,-5.5741,-5.5857,-5.547,-5.5393,-5.5238,-5.4813,-5.402,-5.3826,-5.4658,-5.3227,-5.2569,-5.342,-5.2298,-5.1544,-5.1544,-5.1138,-5.0906,-5.0906,-5.0906,-5.0906,-5.0906,-5.05,-4.99,-4.9049,-4.8067,-4.7169,-4.6336,-4.629,-4.6007,0.0,0.0,0.0,0.0,0.0,-2.8651,0.0,0.0,0.0,-2.9738,0.0,0.0,0.0,0.0,0.0,0.0,0.0,0.0,0.0,0.0,0.0,0.0,0.0,0.0,0.0,-3.0227,-3.03,-3.1642,-3.1584,-3.2419,-3.4602,-3.797,-3.8271,-3.4916,-3.4824,-3.4808,-3.4808,-3.7506,-3.9336,-4.0309,-4.0271,-4.0335,-4.0504,-4.072,-4.072,-4.0592,-4.1232,-4.1517,-4.1569,-4.222,-4.3005,-4.3829,-4.4395,-4.4692,-4.4795,-4.4621,-4.4918,-4.5378,-4.474,-4.4956,-4.5538,-4.5538,-4.58,-4.6336,-4.7693,-4.8918,-4.9898,-4.9926,-5.0096,-5.0339,-5.0547,-5.0644,-5.07,-5.0874,-5.0906,-5.0906,-5.0906,-5.0906,-5.1119,-5.1815,-5.2647,-5.3536,-5.4407,-5.5238,-5.549,-5.4677,-5.4542,-5.4291,-5.3594,-5.2743,-5.2531,-5.3401,-5.2086,-5.1796,-5.3362,-5.2066,-5.1447,-5.2163,-5.1389,-5.0906,-5.0906,-5.0906,-5.0906,-5.0906,-5.0906,-5.0577,-4.9939,-4.9164,-4.8169,-4.6992,-4.6769,-4.6352,0.0,0.0,0.0,0.0,-2.9551,0.0,0.0,0.0,-2.9738,-2.9857,0.0,0.0,0.0,0.0,0.0,0.0,0.0,0.0,0.0,0.0,0.0,0.0,0.0,0.0,0.0,0.0,-3.0122,-3.0484,-3.3038,-3.3583,-3.1291,-3.4424,-3.6051,-3.5585,-3.558,-3.5575,-3.5579,-3.5942,-3.7693,-4.0729,-4.0499,-4.0427,-4.0504,-4.072,-4.079,-4.0778,-4.0862,-4.1287,-4.1936,-4.2033,-4.2574,-4.3414,-4.3829,-4.4341,-4.48,-4.477,-4.4712,-4.4627,-4.4533,-4.4678,-4.4903,-4.4903,-4.6079,-4.7522,-4.7686,-4.8872,-4.9988,-4.9266,-4.9789,-5.0567,-5.0587,-5.0736,-5.0874,-5.089,-5.0906,-5.0906,-5.0906,-5.0906,-5.0945,-5.1041,-5.1757,-5.2608,-5.3498,-5.4368,-5.4639,-5.3768,-5.3652,-5.3614,-5.3517,-5.2743,-5.2531,-5.3401,-5.2627,-5.2453,-5.342,-5.2608,-5.2086,-5.2182,-5.1389,-5.0906,-5.0906,-5.0906,-5.0906,-5.0906,-5.0906,-5.0867,-5.077,-5.0612,-4.9288,-4.6973,-4.6138,-4.6105,0.0,0.0,0.0,0.0,0.0,0.0,-2.9701,0.0,-2.972,0.0,0.0,0.0,0.0,0.0,0.0,0.0,0.0,0.0,0.0,0.0,0.0,0.0,0.0,0.0,0.0,0.0,0.0,0.0,-3.1888,-3.2439,-3.2343,-3.4484,-3.5697,-3.5693,-3.4713,-3.4687,-3.5682,-3.5707,-3.6419,-3.7858,-3.9733,-4.0378,-3.994,-4.0533,-4.079,-4.079,-4.079,-4.0984,-4.1293,-4.1293,-4.1796,-4.2557,-4.2738,-4.348,-4.4438,-4.4312,-4.445,-4.4662,-4.4662,-4.4655,-4.4648,-4.477,-4.5689,-4.682,-4.7103,-4.8009,-4.8988,-4.9279,-4.9716,-5.0192,-5.0656,-5.0841,-5.0906,-5.0906,-5.0906,-5.0906,-5.0906,-5.0906,-5.0906,-5.0906,-5.1602,-5.2163,-5.2028,-5.3556,-5.4503,-5.3633,-5.3498,-5.3498,-5.3498,-5.2298,-5.1776,-5.2647,-5.197,-5.1796,-5.2666,-5.195,-5.166,-5.2163,-5.1389,-5.0906,-5.0906,-5.0906,-5.0906,-5.0906,-5.0906,-5.0906,-5.0906,-5.0323,-4.95,-4.8439,-4.8006,-4.7471,-3.0415,0.0,0.0,0.0,0.0,0.0,0.0,0.0,0.0,0.0,0.0,0.0,0.0,0.0,0.0,0.0,0.0,0.0,0.0,0.0,0.0,0.0,0.0,0.0,0.0,0.0,0.0,-3.0778,-3.0882,-3.1467,-3.2709,-3.4348,-3.5232,-3.5222,-3.3837,-3.3643,-3.4767,-3.4455,-3.4765,-3.5723,-3.821,-3.9565,-3.9874,-4.0513,-4.0803,-4.079,-4.079,-4.079,-4.079,-4.079,-4.1139,-4.1661,-4.1661,-4.2463,-4.3635,-4.3886,-4.4221,-4.4592,-4.482,-4.4814,-4.4726,-4.4919,-4.5582,-4.6317,-4.6472,-4.7272,-4.8272,-4.9115,-4.9513,-4.99,-5.0693,-5.0906,-5.0906,-5.0906,-5.0906,-5.0906,-5.0906,-5.0906,-5.0906,-5.0906,-5.1409,-5.1641,-5.1022,-5.2879,-5.4155,-5.3265,-5.3343,-5.3401,-5.3169,-5.2047,-5.1409,-5.1796,-5.1273,-5.1254,-5.2124,-5.1409,-5.1177,-5.1796,-5.1254,-5.0906,-5.0906,-5.0906,-5.0906,-5.0906,-5.0906,-5.0906,-5.0906,-5.0207,-4.9732,-4.9481,-4.92,-4.8529,0.0,0.0,0.0,-3.1111,0.0,0.0,0.0,0.0,-3.0885,0.0,0.0,0.0,0.0,0.0,0.0,-2.9476,0.0,0.0,0.0,0.0,0.0,0.0,0.0,0.0,0.0,0.0,0.0,-2.9361,-3.084,-3.1458,-3.0723,-3.2831,-3.406,-3.406,-3.343,-3.2879,-3.2405,-3.1311,-3.2433,-3.5704,-3.5809,-3.758,-4.0769,-4.0788,-4.0796,-4.079,-4.079,-4.079,-4.079,-4.079,-4.081,-4.0829,-4.0829,-4.1332,-4.2234,-4.3673,-4.4077,-4.4053,-4.4874,-4.518,-4.5222,-4.5418,-4.6068,-4.6661,-4.6012,-4.7038,-4.8392,-4.843,-4.9049,-4.99,-5.0693,-5.0906,-5.0906,-5.0906,-5.0906,-5.0906,-5.0906,-5.0906,-5.0906,-5.0906,-5.0925,-5.0945,-5.0906,-5.2376,-5.3246,-5.2356,-5.2956,-5.3188,-5.2337,-5.2182,-5.1854,-5.1041,-5.0925,-5.1254,-5.2124,-5.1409,-5.0925,-5.0945,-5.0925,-5.0906,-5.0906,-5.0906,-5.0906,-5.0906,-5.0906,-5.0906,-5.0906,-5.0805,-5.031,-4.9481,-4.8584,-4.8567,0.0,0.0,-3.3182,-3.2314,0.0,0.0,0.0,0.0,0.0,0.0,0.0,0.0,0.0,0.0,0.0,-3.0288,0.0,0.0,0.0,0.0,0.0,0.0,0.0,0.0,0.0,0.0,0.0,-2.9302,-3.0366,-3.0888,-3.0608,-3.2386,-3.3392,-3.3392,-3.3218,-3.3198,-3.343,-3.2289,-3.3053,-3.5706,-3.6817,-3.7386,-3.7502,-3.977,-4.0796,-4.0796,-4.0803,-4.079,-4.079,-4.079,-4.079,-4.079,-4.079,-4.1293,-4.2144,-4.3211,-4.3808,-4.4192,-4.4937,-4.5201,-4.5223,-4.5436,-4.5701,-4.5909,-4.5834,-4.6211,-4.6796,-4.7386,-4.8149,-4.8971,-4.9814,-5.0436,-5.0825,-5.0825,-5.0825,-5.0825,-5.0825,-5.0825,-5.0825,-5.0825,-5.0861,-5.0897,-5.0897,-5.1876,-5.2743,-5.3014,-5.3304,-5.3594,-5.3884,-5.2414,-5.1447,-5.1738,-5.1235,-5.1022,-5.1312,-5.108,-5.0906,-5.0906,-5.0906,-5.0906,-5.0906,-5.0906,-5.0906,-5.0906,-5.0906,-5.0906,-5.0906,-5.0825,-5.0638,-5.0349,-4.9989,-4.9663,-3.317,-3.3665,0.0,-3.3364,-3.3026,0.0,-3.1879,0.0,0.0,0.0,0.0,0.0,0.0,0.0,0.0,-3.1159,-3.1468,-3.1526,0.0,-3.0598,0.0,0.0,0.0,0.0,0.0,0.0,-2.8509,-2.8799,-2.936,-2.9805,0.0,0.0,-3.2483,-3.3082,-3.3102,-3.3441,-3.4137,-3.3314,-3.3654,-3.5106,-3.6585,-3.7069,-3.6659,-3.8868,-4.0215,-4.0808,-4.0803,-4.079,-4.0771,-4.0462,-4.052,-4.0771,-4.0462,-4.0829,-4.1699,-4.2879,-4.3926,-4.4807,-4.517,-4.5323,-4.5323,-4.5454,-4.5509,-4.5545,-4.5737,-4.5791,-4.6012,-4.7182,-4.7693,-4.8186,-4.965,-5.019,-5.0407,-5.0715,-5.0793,-5.0793,-5.0793,-5.0793,-5.0793,-5.0793,-5.0827,-5.0863,-5.0863,-5.1592,-5.236,-5.2956,-5.3304,-5.3594,-5.3846,-5.2395,-5.1467,-5.1718,-5.1235,-5.0906,-5.0906,-5.0906,-5.0906,-5.0906,-5.0906,-5.0906,-5.0906,-5.0906,-5.1061,-5.137,-5.1061,-5.1061,-5.137,-5.0979,-5.0793,-5.0793,-5.074,-5.0394]}]]